[[[{"header":{"parameterUnit":"kt","parameterCategory":2,"dx":1,"dy":1,"la1":29.587661999999998,"la2":31.0,"lo1":-88.76705300000003,"lo2":-86.6583820000003,"nx":115,"ny":88,"refTime":"2022-10-16T06:00:00:Z","depth":0,"parameterNumber":1,"parameterNumberName":"U-component_of_WINDS"},"data":[2.3318,2.4637,2.5437,2.7233,2.9496,3.0371,3.2121,3.4231,3.5192,3.5868,3.639,3.6929,3.68,3.5717,3.7039,3.7703,3.7939,3.8979,3.9463,3.9736,4.0215,4.096,4.1575,4.1942,4.2549,4.3415,4.4389,4.4976,4.5418,4.5534,4.5995,4.6794,4.722,4.747,4.7831,4.8359,4.8689,4.8908,4.9207,4.9665,4.9772,4.9665,4.9531,4.9772,5.0254,5.0469,5.1282,5.2649,5.3281,5.403,5.481,5.5228,5.4961,5.4154,5.3681,5.3433,5.3235,5.3136,5.3136,5.3235,5.3334,5.3334,5.3433,5.3728,5.363,5.3531,5.3491,5.3462,5.3305,5.3334,5.3502,5.3531,5.3531,5.3531,5.3433,5.3826,5.402,5.3923,5.3923,5.3826,5.3923,5.4694,5.5572,5.5665,5.5572,5.5787,5.6001,5.646,5.7683,5.8481,5.9158,6.0644,6.2139,6.1983,6.1639,6.3863,6.5851,6.5565,6.5564,6.6607,6.7242,6.7463,6.8124,6.9642,7.1744,7.3279,7.39,7.3087,7.5336,7.7398,7.723,7.7195,7.7428,7.7628,7.7694,2.1239,2.2228,2.3559,2.5433,2.7485,2.8875,3.05,3.2134,3.3503,3.4171,3.4171,3.4304,3.4322,3.4569,3.5586,3.5979,3.665,3.7554,3.8088,3.845,3.8958,3.9589,4.0112,4.0361,4.1206,4.2208,4.3078,4.3653,4.4247,4.4507,4.5001,4.5583,4.6045,4.6275,4.6731,4.7159,4.7556,4.7779,4.8223,4.8689,4.8689,4.8715,4.8715,4.8934,4.9232,5.0067,5.1421,5.2649,5.3528,5.4603,5.6163,5.6223,5.5479,5.3845,5.3235,5.2936,5.2736,5.2635,5.2707,5.2736,5.2836,5.2936,5.2936,5.3036,5.3065,5.2893,5.2807,5.2677,5.2389,5.2462,5.2836,5.3036,5.3036,5.3036,5.3036,5.3107,5.3235,5.3264,5.3235,5.3107,5.3404,5.3894,5.4407,5.4628,5.4724,5.5009,5.5257,5.5599,5.609,5.6977,5.7621,5.8757,5.9525,5.9621,5.9406,6.1391,6.4083,6.3957,6.4398,6.5566,6.6516,6.6897,6.7468,6.8346,6.8497,6.9346,7.0151,7.196,7.4458,7.6934,7.6895,7.6924,7.7127,7.7228,7.7328,1.9505,2.0406,2.2209,2.4128,2.5842,2.7347,2.8876,3.054,3.1732,3.2003,3.1613,3.2291,3.2562,3.2831,3.4152,3.4815,3.5079,3.6149,3.667,3.7039,3.7426,3.8216,3.8598,3.8979,3.9987,4.0734,4.1475,4.2087,4.2958,4.3318,4.3939,4.4531,4.4742,4.5093,4.5674,4.6135,4.6567,4.6655,4.7358,4.747,4.7133,4.7297,4.7522,4.7917,4.8295,4.9154,5.052,5.2094,5.3155,5.4717,5.6386,5.6341,5.5556,5.35,5.2422,5.223,5.2157,5.1924,5.1896,5.197,5.2044,5.2202,5.2304,5.2734,5.2734,5.3945,5.371,5.3332,5.3142,5.2055,5.2462,5.2791,5.2848,5.2807,5.2749,5.2764,5.2836,5.2936,5.2836,5.2707,5.3007,5.3502,5.3826,5.405,5.4244,5.4407,5.4628,5.4974,5.5257,5.5809,5.6023,5.6479,5.6501,5.6471,5.7403,5.9529,6.1796,6.2606,6.3073,6.4363,6.5562,6.6068,6.6609,6.7279,6.7468,6.7278,6.8586,7.0897,7.3448,7.5748,7.6261,7.6584,7.6752,7.6956,7.6617,1.8115,1.8912,2.0731,2.2665,2.4562,2.572,2.7386,2.9108,2.9799,2.9523,2.9401,3.0519,3.1221,3.134,3.2697,3.3369,3.3637,3.4569,3.5211,3.5474,3.6149,3.6929,3.7446,3.7703,3.8471,3.9232,3.9736,4.0339,4.1475,4.2231,4.2716,4.3438,4.3677,4.4034,4.4624,4.5093,4.5442,4.5674,4.5995,4.5855,4.579,4.607,4.6414,4.682,4.7425,4.8192,4.9908,5.1418,5.272,5.4229,5.5782,5.6156,5.6086,5.3586,5.2251,5.184,5.1743,5.1479,5.1368,5.1381,5.156,5.1691,5.2159,5.245,5.3304,5.4644,5.517,5.481,5.4079,5.2805,5.2242,5.2609,5.291,5.2786,5.2689,5.2648,5.2635,5.2635,5.2635,5.2635,5.2635,5.2936,5.3433,5.363,5.3728,5.3923,5.405,5.4311,5.4599,5.4694,5.4997,5.4902,5.4554,5.4931,5.596,5.774,5.9155,6.0173,6.1285,6.2873,6.4568,6.5097,6.5726,6.622,6.6641,6.6737,6.7628,7.0058,7.2209,7.4197,7.5191,7.5832,7.6202,7.6338,7.5992,1.6821,1.7873,1.8768,2.0669,2.3232,2.4438,2.5919,2.7435,2.7014,2.7014,2.7731,2.9124,2.9693,2.9953,3.1204,3.1749,3.2291,3.3235,3.3904,3.4037,3.4966,3.5606,3.6129,3.654,3.7317,3.7852,3.8492,3.8979,4.009,4.1105,4.172,4.233,4.2474,4.2958,4.3558,4.3915,4.4129,4.4389,4.4365,4.4459,4.4649,4.5118,4.5699,4.593,4.6626,4.7603,4.9556,5.0939,5.1974,5.3697,5.4859,5.4986,5.4935,5.4024,5.2793,5.2347,5.2104,5.1804,5.1474,5.1495,5.154,5.1867,5.2335,5.3137,5.4228,5.5629,5.6621,5.6523,5.4503,5.3121,5.2925,5.3367,5.3564,5.348,5.2994,5.2619,5.2468,5.227,5.2213,5.2129,5.2129,5.2433,5.2836,5.3235,5.3305,5.3235,5.3334,5.3601,5.3796,5.3796,5.3855,5.3855,5.3855,5.4108,5.5057,5.5955,5.7087,5.822,5.9446,6.0922,6.2497,6.3742,6.4797,6.5458,6.6019,6.6117,6.6723,6.9497,7.1769,7.3425,7.4475,7.5144,7.5537,7.5537,7.5355,1.5284,1.6108,1.7076,1.8719,2.0848,2.2722,2.3814,2.4567,2.4763,2.5333,2.6197,2.7591,2.8289,2.8429,2.9677,3.0382,3.0519,3.1885,3.2579,3.2831,3.3637,3.4285,3.4834,3.5362,3.6018,3.667,3.7188,3.7703,3.8853,3.9861,4.061,4.0858,4.1251,4.1743,4.2208,4.2693,4.2791,4.2814,4.2958,4.3078,4.3462,4.3939,4.4413,4.4888,4.5901,4.7313,4.9116,5.0315,5.1648,5.3325,5.412,5.4146,5.3479,5.428,5.3659,5.2781,5.256,5.2262,5.2076,5.2299,5.2656,5.2986,5.3647,5.4447,5.5563,5.6286,5.7236,5.7603,5.5449,5.3775,5.389,5.4085,5.4225,5.4226,5.3472,5.2714,5.2267,5.1931,5.1736,5.1596,5.1616,5.1924,5.223,5.2607,5.2808,5.2736,5.2836,5.3007,5.3107,5.3107,5.3107,5.3206,5.3305,5.3404,5.402,5.471,5.5933,5.7,5.8004,5.9036,6.0432,6.1722,6.2818,6.3969,6.5124,6.5318,6.5388,6.8342,7.1098,7.2457,7.3627,7.4309,7.4814,7.4923,7.5,1.3782,1.4646,1.5914,1.7222,1.8672,2.028,2.1442,2.2166,2.3044,2.3762,2.4491,2.6056,2.6762,2.7044,2.8289,2.9001,2.9693,3.0382,3.1084,3.1766,3.2562,3.2984,3.3521,3.4171,3.4834,3.5343,3.5887,3.654,3.7575,3.8237,3.8874,3.9632,4.0134,4.0632,4.0982,4.1206,4.1206,4.1329,4.1575,4.1965,4.2474,4.2958,4.3198,4.3962,4.4966,4.6364,4.8023,4.938,5.0953,5.2362,5.3085,5.3241,5.2374,5.319,5.4219,5.3315,5.3114,5.2822,5.2815,5.3082,5.3291,5.3383,5.4451,5.5668,5.6472,5.7015,5.7164,5.739,5.6263,5.5689,5.5717,5.5417,5.5113,5.4921,5.4311,5.3531,5.2803,5.2413,5.1806,5.1639,5.0992,5.1305,5.2055,5.2433,5.2405,5.223,5.223,5.2332,5.2433,5.2534,5.2635,5.2635,5.2736,5.2936,5.3433,5.402,5.4959,5.5715,5.6405,5.7374,5.8307,5.9314,6.0759,6.2358,6.3998,6.4541,6.4602,6.7083,7.016,7.1614,7.2823,7.3559,7.4074,7.4375,7.4486,1.2696,1.3614,1.512,1.6281,1.6882,1.7186,1.8521,2.0435,2.1744,2.2467,2.29,2.4491,2.5346,2.5928,2.6903,2.7746,2.8444,2.9139,2.9847,3.069,3.1357,3.1902,3.2427,3.3101,3.3619,3.4037,3.4721,3.5362,3.5979,3.667,3.7337,3.8109,3.9,3.9506,3.961,3.9589,3.9714,3.9965,4.0361,4.088,4.1374,4.1865,4.23,4.3173,4.4387,4.5772,4.7147,4.8513,5.0024,5.098,5.1794,5.2084,5.2217,5.2192,5.3241,5.3709,5.3581,5.3016,5.2653,5.2905,5.3126,5.3526,5.482,5.5973,5.6537,5.6564,5.6933,5.7055,5.7198,5.7226,5.7226,5.6633,5.6064,5.5629,5.511,5.4255,5.3424,5.2621,5.1988,5.1329,5.0654,5.0887,5.1644,5.185,5.1896,5.1719,5.1616,5.1719,5.1588,5.1822,5.2027,5.2027,5.2129,5.2332,5.2936,5.363,5.4332,5.438,5.5034,5.5427,5.569,5.6537,5.9351,6.1809,6.3177,6.4068,6.4446,6.6286,6.8909,7.0566,7.185,7.2604,7.3367,7.3706,7.3706,1.1085,1.2294,1.3643,1.4838,1.5723,1.5434,1.6177,1.7805,1.9705,2.1018,2.1744,2.29,2.3905,2.4634,2.5502,2.6211,2.7073,2.7761,2.8599,2.9155,2.9969,3.0673,3.1221,3.1919,3.2427,3.2948,3.3637,3.4171,3.4683,3.5249,3.5887,3.68,3.7703,3.7981,3.796,3.8088,3.8344,3.8726,3.9232,3.9758,4.0258,4.0764,4.1316,4.2385,4.3819,4.5447,4.6726,4.8168,4.9554,5.0285,5.0858,5.1127,5.1285,5.1528,5.2431,5.3371,5.3607,5.3452,5.3339,5.3555,5.3522,5.3574,5.4935,5.5515,5.5443,5.5819,5.644,5.7055,5.7515,5.7461,5.7379,5.7136,5.674,5.6522,5.5939,5.4877,5.3863,5.2546,5.1753,5.069,5.0147,5.0572,5.1201,5.1201,5.1277,5.1201,5.0992,5.0887,5.0755,5.1097,5.1409,5.1409,5.1512,5.1822,5.2332,5.3036,5.3235,5.3136,5.3437,5.3668,5.4144,5.549,5.862,6.1497,6.2325,6.3155,6.388,6.5216,6.7277,6.9053,7.0765,7.1774,7.2525,7.2563,7.2508,0.9582,1.0789,1.2444,1.3344,1.3778,1.3935,1.4697,1.5889,1.7648,1.9119,2.03,2.1454,2.2455,2.3188,2.4049,2.4919,2.58,2.6494,2.7325,2.8025,2.8583,2.9294,3.0002,3.0673,3.1204,3.1885,3.2427,3.2966,3.3503,3.4189,3.4834,3.5474,3.6149,3.6299,3.6149,3.667,3.7208,3.7595,3.8109,3.8513,3.9064,3.9743,4.0534,4.1635,4.3586,4.4922,4.5979,4.7616,4.865,4.9179,4.9886,5.0046,4.9797,5.0612,5.1661,5.2718,5.2693,5.298,5.3346,5.3579,5.3837,5.4043,5.4376,5.4657,5.4709,5.509,5.5845,5.6591,5.6933,5.7178,5.7178,5.7055,5.7001,5.6812,5.646,5.5505,5.4172,5.275,5.1475,5.0447,4.9504,4.9799,5.0227,5.0227,5.0333,5.0333,5.0281,5.0068,5.0147,5.0466,5.0782,5.0782,5.0887,5.1201,5.1616,5.2332,5.2635,5.2635,5.2635,5.2607,5.3634,5.489,5.7767,6.1081,6.1682,6.2086,6.2403,6.3156,6.5429,6.78,6.9849,7.1174,7.1593,7.1653,7.1564,0.8073,0.9289,1.1259,1.1705,1.1235,1.2294,1.3501,1.4689,1.56,1.6927,1.8836,1.9851,2.1018,2.2033,2.2599,2.3619,2.4634,2.5075,2.5914,2.6903,2.7465,2.8041,2.8738,2.9432,2.9969,3.069,3.1374,3.2191,3.2732,3.3253,3.3771,3.4437,3.4702,3.4721,3.455,3.5455,3.6129,3.656,3.7079,3.7595,3.8166,3.9004,3.9924,4.117,4.2885,4.4249,4.5328,4.6802,4.7677,4.8235,4.8927,4.895,4.872,4.966,5.0882,5.2084,5.1661,5.1637,5.1952,5.1927,5.2431,5.3085,5.363,5.3888,5.4325,5.4581,5.4963,5.597,5.6317,5.644,5.6564,5.6564,5.6564,5.651,5.6607,5.592,5.4384,5.2948,5.1571,5.0497,4.9495,4.8715,4.9152,4.9369,4.9585,4.9504,4.9449,4.9449,4.9557,4.9746,5.0068,5.0174,5.0202,5.0493,5.0992,5.1616,5.2055,5.2055,5.2055,5.2027,5.276,5.434,5.7088,6.0387,6.1279,6.1279,6.1224,6.1253,6.36,6.603,6.8276,6.9821,7.0451,7.0691,7.0934,0.7166,0.8073,0.9436,0.9895,0.9733,1.0638,1.1849,1.3358,1.4107,1.574,1.7943,1.8836,1.9862,2.0872,2.1599,2.2467,2.3331,2.4049,2.4906,2.563,2.6339,2.7058,2.7761,2.8444,2.9016,2.9587,3.0415,3.1118,3.1528,3.2173,3.2831,3.3118,3.3253,3.3253,3.3503,3.4285,3.4928,3.5211,3.5756,3.6299,3.6809,3.7811,3.8971,4.0569,4.2119,4.3423,4.475,4.5741,4.6594,4.7279,4.77,4.8002,4.842,4.8812,4.9774,5.0342,5.0612,5.0588,5.0858,5.0858,5.0834,5.1902,5.2693,5.3111,5.3266,5.3526,5.43,5.5317,5.5694,5.5819,5.5944,5.6068,5.6068,5.6193,5.6166,5.5809,5.4339,5.2912,5.1685,5.04,4.9434,4.8496,4.8825,4.907,4.8961,4.8632,4.8548,4.8548,4.8768,4.8987,4.9287,4.9449,4.9476,4.9961,5.0466,5.0992,5.1409,5.1409,5.1409,5.1409,5.2022,5.3834,5.6234,5.9314,6.06,6.0515,6.0401,6.0515,6.2155,6.4328,6.5787,6.7492,6.8292,6.9803,7.0173,0.5797,0.7014,0.7773,0.8077,0.822,0.9436,1.0644,1.1849,1.2915,1.4398,1.6168,1.75,1.8542,1.9423,2.0289,2.1163,2.19,2.2611,2.3475,2.4205,2.5075,2.5786,2.6636,2.734,2.8056,2.8738,2.9448,3.0018,3.0586,3.1374,3.1783,3.1919,3.1783,3.2055,3.2444,3.3083,3.3752,3.4152,3.4683,3.546,3.5823,3.6901,3.8268,4.0057,4.1552,4.3071,4.4005,4.4834,4.5453,4.6168,4.6736,4.7019,4.7279,4.8258,4.895,4.941,4.95,4.9613,5.0022,4.9886,4.975,5.0675,5.1745,5.2587,5.2768,5.29,5.3656,5.4555,5.5217,5.5694,5.5568,5.5542,5.5667,5.5667,5.5554,5.5227,5.4244,5.2812,5.1507,5.0364,4.941,4.8374,4.8517,4.8575,4.808,4.7634,4.7634,4.7634,4.7969,4.8165,4.8522,4.8658,4.8658,4.8961,4.9692,5.0227,5.0782,5.0887,5.0887,5.086,5.1053,5.2985,5.5477,5.8121,6.0056,5.9824,5.9708,5.9796,6.117,6.3443,6.4806,6.5584,6.7044,6.8782,6.943,0.3816,0.6105,0.6105,0.6409,0.6699,0.8224,0.9436,1.0493,1.1561,1.2758,1.4257,1.5731,1.7066,1.811,1.8983,1.9716,2.0446,2.1163,2.2033,2.2755,2.3488,2.4504,2.5502,2.6226,2.6932,2.7901,2.8599,2.9448,3.0139,3.0415,3.0569,3.0569,3.069,3.1101,3.163,3.2038,3.2562,3.3235,3.3972,3.4727,3.5402,3.654,3.7842,3.9725,4.1634,4.2976,4.2813,4.3547,4.4276,4.4711,4.5574,4.6146,4.6146,4.7138,4.8141,4.8443,4.8535,4.8651,4.8789,4.8927,4.9065,4.9453,5.0405,5.137,5.1843,5.2241,5.2743,5.363,5.481,5.5317,5.5317,5.5138,5.4986,5.5138,5.5212,5.4916,5.4161,5.2833,5.164,5.0336,4.9337,4.8243,4.8099,4.7625,4.7184,4.6845,4.6731,4.6845,4.7159,4.741,4.7634,4.7857,4.7857,4.8165,4.8825,4.9477,4.9907,5.0147,5.0254,5.0254,5.0336,5.2711,5.5189,5.763,5.9358,5.9005,5.8915,5.9263,6.0175,6.2584,6.431,6.5309,6.6578,6.7906,6.8801,0.1679,0.2289,0.3971,0.5039,0.5794,0.6855,0.8068,0.9436,1.0342,1.1555,1.2758,1.4099,1.5731,1.7066,1.7962,1.8699,1.9559,2.0289,2.1163,2.1888,2.2624,2.3488,2.4348,2.536,2.6084,2.6777,2.762,2.846,2.8877,2.9016,2.9171,2.9464,2.9709,3.0261,3.0827,3.1101,3.1511,3.2226,3.3057,3.3861,3.4678,3.6193,3.7473,3.8805,4.0305,4.1467,4.1687,4.239,4.3107,4.3693,4.4566,4.4711,4.4566,4.5861,4.7182,4.7885,4.7442,4.7419,4.7559,4.7839,4.8258,4.8927,4.975,5.0158,5.0723,5.0882,5.1419,5.3111,5.43,5.4709,5.481,5.4605,5.4478,5.4657,5.4836,5.468,5.4164,5.31,5.2036,5.0966,4.9836,4.8654,4.7187,4.6629,4.6275,4.607,4.607,4.6045,4.6275,4.6529,4.6757,4.7071,4.7071,4.7046,4.8054,4.8961,4.9179,4.9504,4.9638,4.9854,5.015,5.1965,5.473,5.6621,5.8483,5.8531,5.8173,5.8662,5.9318,6.1451,6.3244,6.461,6.5924,6.6992,6.7879,-0.0764,0.0153,0.2139,0.3666,0.4884,0.5794,0.6855,0.8068,0.9284,1.0342,1.1561,1.2758,1.4107,1.5591,1.7076,1.7805,1.8394,1.9423,2.0143,2.0581,2.1744,2.2599,2.3331,2.4348,2.5204,2.5914,2.6777,2.748,2.7495,2.7635,2.8056,2.8615,2.9001,2.9416,3.0123,3.0261,3.0552,3.1082,3.18,3.2889,3.4079,3.5337,3.6635,3.7782,3.9015,3.9978,4.06,4.1349,4.1925,4.2665,4.2833,4.2981,4.3107,4.4711,4.631,4.7182,4.6453,4.6168,4.6288,4.6878,4.7419,4.8096,4.8651,4.9202,4.9797,5.0206,5.1151,5.2456,5.3526,5.4069,5.4017,5.3786,5.394,5.4222,5.4504,5.4299,5.4092,5.314,5.2475,5.1586,5.0574,4.8226,4.6353,4.5963,4.5583,4.5234,4.5234,4.5234,4.5375,4.5608,4.5839,4.6185,4.616,4.6135,4.7271,4.8301,4.8522,4.8742,4.8878,4.9203,4.9629,5.1351,5.4383,5.666,5.7897,5.8053,5.7664,5.8168,5.9166,6.0657,6.2141,6.4083,6.5929,6.6782,6.7203,-0.3206,-0.1221,0.0611,0.2292,0.3821,0.4884,0.5791,0.6703,0.8224,0.9284,1.0348,1.1555,1.2765,1.4107,1.574,1.6622,1.7362,1.8394,1.9129,1.9705,2.0727,2.1454,2.2178,2.3188,2.4062,2.5062,2.5786,2.6084,2.6084,2.6523,2.7214,2.7901,2.818,2.8599,2.9294,2.9294,2.9571,3.0002,3.0448,3.1563,3.3416,3.4301,3.5506,3.6928,3.7962,3.8745,3.9505,4.011,4.0731,4.133,4.12,4.107,4.1667,4.413,4.5287,4.5431,4.5021,4.4711,4.5287,4.6025,4.6736,4.7301,4.7839,4.8512,4.9088,4.966,5.0342,5.1285,5.2587,5.3266,5.3241,5.2959,5.3244,5.3554,5.3837,5.3863,5.3812,5.2892,5.2713,5.2053,5.1243,4.8697,4.5793,4.5338,4.4766,4.4531,4.4319,4.4319,4.4319,4.4673,4.4884,4.5234,4.5351,4.5674,4.6592,4.7297,4.7746,4.7969,4.8165,4.8301,4.9147,5.0645,5.3772,5.6321,5.7226,5.7812,5.7448,5.7884,5.9156,6.0366,6.1639,6.3474,6.5571,6.6359,6.6792,-0.4424,-0.2133,-0.1068,0.0458,0.2291,0.3666,0.4886,0.5794,0.6703,0.7917,0.9284,1.0342,1.1404,1.2615,1.3957,1.5591,1.7548,1.7224,1.81,1.8983,1.9716,2.0446,2.1454,2.2322,2.3056,2.4062,2.4777,2.4919,2.4933,2.5658,2.6367,2.6932,2.734,2.7901,2.832,2.846,2.8893,2.9171,2.9619,3.0592,3.2084,3.3545,3.4834,3.6126,3.7127,3.7745,3.8133,3.8745,3.9505,3.9978,3.9827,3.9846,4.12,4.296,4.3985,4.3985,4.3547,4.3985,4.4566,4.5143,4.5904,4.6758,4.716,4.7745,4.8304,4.872,4.941,5.1175,5.2241,5.2637,5.2743,5.2381,5.2537,5.2849,5.3085,5.306,5.301,5.2829,5.2729,5.2182,5.1738,4.9429,4.6172,4.5036,4.463,4.4249,4.3939,4.3939,4.3629,4.3844,4.3963,4.4319,4.4673,4.5118,4.5674,4.6503,4.682,4.7123,4.7487,4.7763,4.8678,5.0296,5.309,5.6054,5.6974,5.73,5.7083,5.7203,5.8975,6.039,6.1175,6.2699,6.4841,6.594,6.6262,-0.5487,-0.396,-0.2439,-0.0915,0.0458,0.2139,0.3816,0.5185,0.5794,0.6855,0.8224,0.9284,1.0348,1.1404,1.2458,1.4257,1.6203,1.664,1.7362,1.81,1.8983,1.9716,2.03,2.1454,2.2178,2.2755,2.3188,2.3475,2.3918,2.4777,2.5516,2.6098,2.6367,2.6932,2.7355,2.7635,2.7776,2.818,2.8677,2.9409,3.0781,3.1932,3.3613,3.4801,3.5866,3.6489,3.6902,3.7673,3.8458,3.8916,3.8763,3.922,4.0129,4.131,4.237,4.239,4.2686,4.296,4.3401,4.4629,4.5208,4.5904,4.6453,4.7019,4.7487,4.7767,4.8304,4.9797,5.0906,5.2134,5.2374,5.2035,5.2035,5.2349,5.2612,5.2637,5.2637,5.2612,5.2192,5.137,5.0933,4.9394,4.6243,4.5088,4.4439,4.4033,4.3721,4.3386,4.3051,4.3148,4.3172,4.3532,4.3891,4.4343,4.5001,4.5467,4.579,4.645,4.6781,4.7226,4.8322,5.1302,5.3881,5.5731,5.6086,5.6564,5.6574,5.7101,5.8951,6.0555,6.153,6.2672,6.4391,6.5593,6.5862,-0.6399,-0.549,-0.3656,-0.2287,-0.1069,0.0764,0.2594,0.4272,0.5033,0.5946,0.7166,0.8376,0.9284,1.0191,1.1253,1.2915,1.4556,1.5889,1.6622,1.7214,1.809,1.8983,1.9569,2.0446,2.1018,2.1163,2.1599,2.2322,2.3188,2.3775,2.4361,2.5401,2.5516,2.58,2.6226,2.6664,2.6791,2.7058,2.751,2.8318,2.943,3.0456,3.1819,3.3804,3.4579,3.5207,3.5971,3.6747,3.7383,3.7881,3.817,3.8305,3.8611,3.9846,4.09,4.1369,4.1628,4.2074,4.2706,4.411,4.4693,4.5042,4.5574,4.631,4.6736,4.6878,4.716,4.8258,4.9637,5.1309,5.2001,5.1528,5.1528,5.1819,5.2084,5.2109,5.1976,5.1843,5.1443,5.0477,5.015,4.9072,4.7099,4.5502,4.4705,4.4007,4.372,4.3289,4.2896,4.2566,4.2566,4.2711,4.3098,4.3652,4.42,4.4507,4.503,4.572,4.6659,4.6994,4.9555,5.2356,5.3986,5.5107,5.5667,5.5819,5.6521,5.7206,5.8953,6.1469,6.2173,6.2876,6.3962,6.5052,6.5323,-0.7306,-0.5937,-0.4878,-0.3355,-0.1679,-0.0305,0.1069,0.2442,0.4119,0.5338,0.5946,0.7162,0.8224,0.9133,0.9576,1.0789,1.2608,1.4249,1.5731,1.6622,1.7205,1.809,1.8836,1.9423,1.9705,1.9705,2.0435,2.1297,2.2021,2.2624,2.3331,2.3775,2.4348,2.479,2.4933,2.536,2.5786,2.5928,2.6367,2.7069,2.7998,2.8867,3.0276,3.2246,3.3158,3.4009,3.4877,3.5363,3.5988,3.6937,3.6799,3.6799,3.7109,3.8152,3.9543,4.1089,4.0731,4.1031,4.2094,4.3083,4.3985,4.4732,4.4999,4.5287,4.5861,4.6168,4.6168,4.6997,4.8096,4.991,5.0636,5.0477,5.0612,5.0747,5.1017,5.1017,5.0771,5.0636,5.0342,4.9524,4.9269,4.8889,4.723,4.5743,4.4872,4.4053,4.3675,4.3206,4.2566,4.2201,4.2178,4.23,4.2323,4.2763,4.3102,4.3438,4.444,4.5472,4.6708,4.8426,5.0957,5.2398,5.2988,5.4248,5.5217,5.5217,5.5605,5.7068,5.9288,6.2148,6.3117,6.3066,6.3636,6.4534,6.4752,-0.8367,-0.7006,-0.594,-0.4723,-0.3203,-0.1526,-0.0,0.1526,0.3357,0.4579,0.5493,0.6244,0.7158,0.8224,0.8816,0.9868,1.1542,1.2901,1.4249,1.5583,1.6613,1.7214,1.7952,1.81,1.8542,1.9276,1.9862,2.0267,2.085,2.1587,2.2166,2.243,2.3188,2.3631,2.3918,2.4205,2.4491,2.479,2.5075,2.5649,2.6598,2.7301,2.8543,3.001,3.1639,3.2826,3.3553,3.4232,3.5017,3.5317,3.4608,3.3869,3.4222,3.6886,3.8842,3.9827,3.9638,4.0203,4.118,4.2134,4.2874,4.3421,4.4276,4.4855,4.5143,4.5287,4.5431,4.6003,4.7138,4.8812,5.0094,4.991,4.9774,4.991,5.0206,5.0342,5.0206,4.9684,4.8997,4.8835,4.8674,4.8186,4.7509,4.6085,4.5271,4.4926,4.4523,4.3246,4.2569,4.1801,4.1689,4.1722,4.1655,4.1811,4.2155,4.2919,4.3948,4.5075,4.6701,4.9143,5.0906,5.149,5.2217,5.3526,5.4836,5.4709,5.502,5.7207,5.9315,6.1656,6.3191,6.3275,6.3467,6.3958,6.4315,-0.9274,-0.8081,-0.6699,-0.5788,-0.4726,-0.2901,-0.1069,0.0764,0.2139,0.3511,0.4884,0.5636,0.6244,0.7158,0.8059,0.9415,1.0633,1.1699,1.2758,1.4249,1.5731,1.6325,1.6631,1.6918,1.7657,1.8394,1.8846,1.9255,1.9965,2.0559,2.1152,2.1419,2.2021,2.2467,2.2755,2.3044,2.32,2.3475,2.3905,2.4441,2.5089,2.5758,2.6557,2.7753,2.9575,3.0928,3.1839,3.3013,3.3637,3.3451,3.2224,3.1285,3.2575,3.5793,3.8079,3.8745,3.8805,3.9071,4.011,4.12,4.1925,4.2538,4.3401,4.4276,4.4566,4.4566,4.4855,4.5596,4.631,4.7559,4.9249,4.895,4.8812,4.9111,4.9386,4.9524,4.9547,4.8743,4.8187,4.8025,4.8025,4.8141,4.8397,4.6588,4.5977,4.573,4.4742,4.3404,4.2433,4.158,4.1426,4.142,4.1391,4.1373,4.1756,4.2558,4.3537,4.4687,4.6924,4.9243,4.9729,5.0342,5.1794,5.3136,5.4325,5.4351,5.4249,5.6318,5.9202,6.1303,6.3127,6.3073,6.3159,6.349,6.3848,-1.0029,-0.883,-0.7306,-0.6095,-0.5341,-0.4276,-0.2596,-0.0611,0.0611,0.2138,0.3511,0.4576,0.5484,0.624,0.7306,0.8367,0.9878,1.0633,1.1699,1.2908,1.4107,1.5144,1.5451,1.6334,1.6927,1.7362,1.7972,1.8552,1.9276,1.9423,1.9862,2.0581,2.1018,2.1163,2.1454,2.1888,2.2335,2.231,2.2755,2.3144,2.3705,2.4183,2.5006,2.5839,2.7244,2.8398,2.9535,3.0505,3.103,3.0999,2.8954,2.9386,3.1773,3.466,3.6968,3.8115,3.7836,3.8105,3.9638,4.0129,4.0881,4.1945,4.237,4.296,4.3839,4.3985,4.4151,4.4732,4.4855,4.6288,4.7885,4.8025,4.7885,4.8164,4.8326,4.8187,4.8047,4.7745,4.7627,4.7182,4.7182,4.7182,4.7115,4.6936,4.6556,4.6063,4.5028,4.3895,4.3167,4.2159,4.1593,4.144,4.1263,4.1101,4.1707,4.2361,4.3434,4.4523,4.7037,4.8231,4.8692,4.9934,5.1394,5.2718,5.3785,5.4069,5.4119,5.6262,5.9167,6.137,6.2627,6.2927,6.304,6.3319,6.3459,-1.1091,-1.0035,-0.8367,-0.7003,-0.5788,-0.4884,-0.3664,-0.2138,-0.0458,0.1069,0.2443,0.4119,0.503,0.5487,0.6703,0.8068,0.9128,0.9878,1.094,1.2163,1.3208,1.395,1.4854,1.5451,1.6334,1.6918,1.7224,1.7815,1.8414,1.8846,1.914,1.9716,2.0154,2.0435,2.0581,2.1018,2.1163,2.1163,2.1454,2.1888,2.2322,2.2857,2.354,2.424,2.5273,2.6191,2.7456,2.8776,2.9046,2.82,2.7838,2.7972,2.9355,3.2839,3.574,3.7211,3.6921,3.719,3.8446,3.9505,4.028,4.1031,4.1925,4.2518,4.296,4.3401,4.3547,4.413,4.4566,4.5431,4.6453,4.6758,4.6878,4.716,4.7019,4.6736,4.6594,4.6617,4.6453,4.6453,4.6453,4.6453,4.7041,4.7019,4.6633,4.616,4.5277,4.4474,4.3857,4.274,4.2001,4.2001,4.1939,4.194,4.2399,4.2925,4.3741,4.4876,4.6679,4.7248,4.8212,4.9547,5.1017,5.2349,5.3266,5.4068,5.4787,5.6129,5.9083,6.1337,6.2082,6.2672,6.2786,6.2927,6.2927,-1.2006,-1.1085,-0.9576,-0.8064,-0.6695,-0.5484,-0.4576,-0.3511,-0.1374,0.0153,0.1526,0.3508,0.4574,0.4878,0.6247,0.7314,0.822,0.9123,1.0342,1.1555,1.2301,1.3051,1.3957,1.4862,1.5608,1.6334,1.6622,1.7066,1.7815,1.812,1.8552,1.8983,1.9287,1.9433,1.9862,2.0008,1.9997,2.0154,2.0581,2.1018,2.132,2.1622,2.2033,2.2793,2.3591,2.4529,2.5489,2.6744,2.68,2.5714,2.6339,2.6903,2.7785,3.1272,3.4165,3.5437,3.5822,3.6211,3.7279,3.8598,3.9505,4.011,4.1031,4.1945,4.2242,4.2665,4.296,4.3401,4.411,4.4999,4.5431,4.5882,4.5882,4.6003,4.5718,4.5574,4.5718,4.5718,4.5739,4.5574,4.5596,4.6025,4.6736,4.7019,4.6833,4.6134,4.5338,4.4557,4.4245,4.3481,4.2585,4.2585,4.2528,4.2821,4.3043,4.3491,4.409,4.525,4.6086,4.6837,4.8029,4.8997,5.0365,5.2109,5.3005,5.3656,5.45,5.5915,5.8946,6.2082,6.2478,6.2416,6.2531,6.254,6.254,-1.2901,-1.2013,-1.0337,-0.9123,-0.8215,-0.6544,-0.5332,-0.4424,-0.2442,-0.0916,0.0458,0.2443,0.3664,0.4422,0.5335,0.6402,0.7466,0.8679,0.9592,1.0493,1.1241,1.215,1.3208,1.4414,1.5161,1.5459,1.6037,1.6622,1.7076,1.7381,1.7834,1.812,1.8267,1.8257,1.8552,1.9003,1.9287,1.9433,2.0008,2.0289,2.0446,2.0592,2.0872,2.1599,2.196,2.2722,2.376,2.4271,2.4205,2.4231,2.4933,2.5914,2.7547,3.0147,3.2623,3.4057,3.427,3.5127,3.6309,3.7431,3.8439,3.9675,4.028,4.0711,4.1945,4.1797,4.1816,4.239,4.3693,4.4566,4.4855,4.5287,4.5574,4.5287,4.4711,4.4711,4.5165,4.5287,4.5143,4.4855,4.4855,4.5287,4.6736,4.69,4.6594,4.5982,4.5488,4.5029,4.4715,4.4166,4.3416,4.3055,4.2896,4.3119,4.3761,4.4103,4.4554,4.5563,4.6152,4.7032,4.7956,4.8443,4.9272,5.1285,5.2743,5.3266,5.4216,5.6063,5.8672,6.1153,6.2053,6.2106,6.2027,6.21,6.2188,-1.3501,-1.2458,-1.1085,-0.9727,-0.8367,-0.6699,-0.5481,-0.4422,-0.3205,-0.168,-0.0,0.1527,0.2901,0.4124,0.4884,0.5794,0.7006,0.7921,0.8835,0.9592,1.0342,1.1404,1.2464,1.3658,1.4406,1.5161,1.5459,1.5897,1.6483,1.6631,1.7085,1.7529,1.7686,1.7834,1.812,1.8414,1.8562,1.8562,1.8846,1.914,1.9569,1.9726,2.0008,2.0727,2.1308,2.1888,2.2322,2.2467,2.29,2.3775,2.4205,2.4777,2.607,2.8766,3.103,3.2345,3.3136,3.3918,3.5196,3.6581,3.798,3.8763,3.9524,4.0449,4.107,4.1369,4.1369,4.1667,4.2686,4.3421,4.3985,4.4711,4.4855,4.4255,4.3985,4.3964,4.411,4.4421,4.4421,4.4276,4.44,4.5143,4.5882,4.6025,4.5574,4.5574,4.5143,4.4855,4.477,4.4392,4.4286,4.4052,4.3649,4.3713,4.4216,4.465,4.5185,4.5686,4.6168,4.6878,4.7885,4.8187,4.8443,5.0588,5.2481,5.3005,5.3489,5.5693,5.8121,5.9801,6.1704,6.1678,6.1742,6.1791,6.1381,-1.4099,-1.3051,-1.1686,-1.0331,-0.8972,-0.7306,-0.594,-0.4723,-0.4119,-0.2594,-0.0611,0.0611,0.2129,0.363,0.4376,0.5274,0.6329,0.7235,0.7985,0.8744,0.9701,1.0795,1.1856,1.2758,1.3658,1.4713,1.5012,1.5459,1.5897,1.6037,1.6492,1.7085,1.7094,1.7381,1.7667,1.7824,1.7834,1.7982,1.7972,1.8267,1.8846,1.8993,1.9433,2.0008,2.0727,2.1018,2.1006,2.1454,2.2021,2.3044,2.3631,2.4192,2.5333,2.7591,2.9723,3.0871,3.1758,3.269,3.4019,3.5624,3.7081,3.7962,3.8916,3.9846,4.0299,4.075,4.09,4.1219,4.1945,4.2665,4.3401,4.3985,4.3985,4.3401,4.3401,4.338,4.3693,4.3818,4.3693,4.3693,4.3985,4.4711,4.5143,4.5143,4.4999,4.4999,4.4855,4.4711,4.4566,4.4358,4.4566,4.44,4.4421,4.4273,4.4354,4.4621,4.5115,4.5653,4.6025,4.6453,4.7605,4.8326,4.8558,4.975,5.1794,5.2869,5.3269,5.5053,5.7883,6.011,6.1067,6.1365,6.1431,6.1027,6.0413,-1.4689,-1.3808,-1.215,-1.094,-1.004,-0.8527,-0.7162,-0.594,-0.503,-0.351,-0.1678,-0.0305,0.1354,0.2961,0.3976,0.4552,0.5425,0.6291,0.704,0.7979,0.9163,1.0309,1.1548,1.2163,1.3065,1.4115,1.4713,1.5169,1.5318,1.5608,1.5897,1.6334,1.6334,1.6631,1.6918,1.7233,1.7538,1.7538,1.7824,1.7972,1.812,1.8414,1.8846,1.9287,1.9716,1.9851,2.0019,2.0872,2.1599,2.1888,2.3044,2.4205,2.5062,2.7184,2.8754,2.9672,3.0325,3.1384,3.2803,3.4318,3.6049,3.7252,3.8287,3.9049,3.9827,3.9978,4.0299,4.107,4.1945,4.2686,4.3254,4.3547,4.3401,4.296,4.296,4.3107,4.3401,4.3547,4.3526,4.3547,4.3401,4.3839,4.4421,4.4711,4.4711,4.4689,4.4545,4.4421,4.413,4.413,4.4006,4.3839,4.3839,4.3985,4.4276,4.4442,4.5143,4.5718,4.5861,4.631,4.7627,4.821,4.8581,4.95,5.1394,5.2505,5.2879,5.5219,5.8163,5.9835,6.0234,6.0933,6.0588,6.0085,5.9501,-1.5871,-1.4249,-1.2901,-1.1693,-1.0633,-0.8972,-0.7458,-0.5937,-0.4876,-0.3967,-0.274,-0.09,0.1335,0.338,0.3902,0.4124,0.4476,0.5167,0.6401,0.7779,0.8728,0.9882,1.1079,1.1869,1.2758,1.3501,1.4107,1.4713,1.5169,1.5318,1.5608,1.5897,1.5897,1.6186,1.6483,1.6631,1.6779,1.7066,1.7224,1.7371,1.7686,1.7824,1.8129,1.8689,1.8993,1.914,1.9423,2.0008,2.0727,2.1454,2.2322,2.29,2.3619,2.6183,2.8305,2.9342,3.0087,3.0742,3.1788,3.3435,3.4946,3.6247,3.7333,3.8439,3.9543,3.9391,3.9846,4.092,4.1945,4.239,4.2686,4.2833,4.2665,4.2538,4.2518,4.2665,4.2686,4.2813,4.2813,4.3128,4.296,4.3107,4.3839,4.4276,4.4421,4.4006,4.3839,4.3839,4.3693,4.3693,4.3693,4.3547,4.3421,4.3547,4.3985,4.4421,4.4999,4.5574,4.5861,4.6736,4.7627,4.8047,4.8605,4.966,5.0723,5.1686,5.3402,5.586,5.7907,5.9776,6.0524,6.0567,6.0096,5.9442,5.8172,-1.677,-1.5144,-1.3501,-1.215,-1.0934,-0.943,-0.7917,-0.6395,-0.5183,-0.4405,-0.346,-0.1334,0.0728,0.2433,0.3207,0.3686,0.3632,0.4609,0.5819,0.7142,0.8307,0.9474,1.0517,1.1373,1.2307,1.3201,1.3651,1.4257,1.4854,1.5003,1.5161,1.5451,1.5459,1.5749,1.6037,1.6195,1.6343,1.6631,1.677,1.6927,1.7233,1.74,1.76,1.8039,1.8019,1.824,1.8662,1.9096,1.9903,2.091,2.1649,2.2178,2.29,2.4607,2.6748,2.8754,2.9426,2.9946,3.114,3.2394,3.3965,3.5358,3.6539,3.7655,3.886,3.8934,3.922,4.06,4.1648,4.239,4.239,4.239,4.239,4.239,4.239,4.239,4.239,4.239,4.2538,4.2665,4.2538,4.2686,4.3401,4.3985,4.3985,4.3693,4.3547,4.3547,4.3401,4.3401,4.3254,4.3107,4.296,4.3087,4.3839,4.4276,4.4855,4.5431,4.6025,4.6617,4.7487,4.7908,4.872,4.9637,5.0747,5.171,5.2223,5.4685,5.7247,5.898,6.0233,6.0371,6.0014,5.8559,5.7282,-1.7371,-1.6029,-1.3942,-1.2444,-1.1392,-0.9889,-0.8527,-0.7314,-0.5933,-0.4812,-0.3692,-0.1759,-0.0571,0.0272,0.2261,0.3143,0.3283,0.4427,0.5304,0.6181,0.7604,0.8947,1.0129,1.0678,1.1555,1.2758,1.3201,1.3793,1.4548,1.4548,1.4846,1.5161,1.5161,1.531,1.5608,1.5749,1.5897,1.6334,1.6334,1.6474,1.6918,1.7177,1.7098,1.6901,1.6863,1.7124,1.7512,1.8215,1.9009,1.9703,2.0807,2.1781,2.2369,2.2657,2.454,2.7886,2.8335,2.905,3.0453,3.1394,3.2694,3.4582,3.5807,3.6964,3.8202,3.8336,3.8827,3.9959,4.118,4.2242,4.2242,4.239,4.239,4.239,4.239,4.239,4.239,4.239,4.239,4.239,4.239,4.2686,4.3254,4.3568,4.3401,4.3401,4.3401,4.3254,4.296,4.2981,4.2833,4.2538,4.2538,4.2686,4.338,4.411,4.4855,4.5287,4.5718,4.631,4.7182,4.8047,4.8835,4.9774,5.0882,5.1516,5.1822,5.3332,5.6023,5.8676,6.0004,5.975,5.9284,5.7769,5.6295,-1.7519,-1.6622,-1.5442,-1.38,-1.1837,-1.018,-0.8825,-0.7609,-0.5986,-0.5031,-0.4395,-0.3111,-0.164,0.0133,0.1709,0.2749,0.3401,0.3821,0.4808,0.614,0.7183,0.8514,0.9703,1.0534,1.141,1.2314,1.2751,1.3358,1.4107,1.4398,1.4689,1.4697,1.4697,1.5003,1.531,1.5318,1.5459,1.5897,1.6186,1.6334,1.6402,1.6063,1.572,1.576,1.6167,1.6545,1.6715,1.7354,1.8104,1.8506,1.9601,2.0094,2.0094,2.1564,2.3893,2.7236,2.7901,2.8552,2.944,3.0357,3.1542,3.266,3.393,3.5437,3.673,3.7052,3.7696,3.8904,3.9978,4.129,4.2094,4.239,4.239,4.239,4.239,4.239,4.237,4.239,4.239,4.239,4.239,4.2538,4.2686,4.2665,4.2665,4.2813,4.2686,4.2686,4.2538,4.2538,4.2538,4.239,4.239,4.2665,4.3401,4.413,4.4834,4.5287,4.5574,4.6168,4.7041,4.7767,4.8581,5.0046,5.0882,5.1468,5.1699,5.2371,5.4199,5.8348,6.0131,5.9725,5.848,5.7134,5.5533,-1.7667,-1.7066,-1.6195,-1.4241,-1.198,-1.0482,-0.9078,-0.7805,-0.6355,-0.5228,-0.4403,-0.3686,-0.2127,-0.0,0.0918,0.2095,0.3529,0.366,0.4485,0.5765,0.6878,0.8043,0.9113,1.0226,1.1156,1.2,1.2608,1.3051,1.3501,1.395,1.4099,1.4398,1.4548,1.4697,1.4854,1.4854,1.5161,1.5459,1.5595,1.5578,1.5389,1.5124,1.4965,1.4961,1.535,1.5691,1.5818,1.6469,1.722,1.7778,1.878,1.9105,1.8448,2.031,2.2925,2.6055,2.6735,2.7264,2.8333,2.9532,3.075,3.1772,3.2906,3.4106,3.5523,3.5797,3.6246,3.7157,3.8554,4.031,4.2062,4.1706,4.1284,4.1344,4.1646,4.1827,4.1847,4.2149,4.239,4.239,4.239,4.239,4.239,4.239,4.239,4.239,4.239,4.239,4.239,4.239,4.239,4.239,4.239,4.2665,4.3401,4.413,4.4711,4.4999,4.5431,4.6146,4.6878,4.7767,4.872,5.0453,5.1151,5.1443,5.1552,5.242,5.3985,5.6856,5.8785,5.8531,5.7413,5.594,5.4796,-1.7805,-1.7353,-1.6195,-1.4391,-1.2287,-1.094,-0.9313,-0.7801,-0.6882,-0.5553,-0.4082,-0.3706,-0.2357,-0.0393,-0.0131,0.1309,0.3399,0.366,0.4184,0.5245,0.6579,0.7571,0.8454,0.9848,1.0838,1.1473,1.2287,1.2758,1.2901,1.3194,1.3501,1.3957,1.4398,1.4548,1.454,1.4508,1.4649,1.4963,1.4717,1.4339,1.4173,1.4407,1.4636,1.4429,1.4553,1.4637,1.485,1.563,1.6357,1.7194,1.8216,1.8459,1.7864,1.9194,2.1613,2.4581,2.4933,2.5676,2.7244,2.8665,3.0009,3.1489,3.2152,3.3079,3.4489,3.4792,3.4787,3.555,3.7288,3.9568,4.1641,4.0598,3.9776,3.9976,4.0519,4.0921,4.1002,4.1646,4.2189,4.2229,4.2008,4.2209,4.233,4.239,4.239,4.239,4.2222,4.2222,4.2242,4.2242,4.239,4.239,4.239,4.2665,4.3401,4.413,4.4711,4.4855,4.5431,4.6025,4.6736,4.7605,4.872,5.0206,5.1175,5.1443,5.1907,5.2851,5.4571,5.6767,5.7057,5.6575,5.5584,5.4542,5.3675,-1.7962,-1.7815,-1.6343,-1.5153,-1.3793,-1.1392,-0.9601,-0.8504,-0.7053,-0.5691,-0.4507,-0.3805,-0.3137,-0.2224,-0.0655,0.1178,0.3007,0.3268,0.3793,0.4852,0.5783,0.6824,0.785,0.9204,1.0157,1.0954,1.1448,1.215,1.2751,1.2908,1.3201,1.3494,1.3957,1.4107,1.4099,1.4148,1.4161,1.4266,1.3676,1.3317,1.3254,1.3369,1.3457,1.3364,1.3879,1.4229,1.4267,1.4859,1.5417,1.5928,1.6924,1.7528,1.7571,1.932,2.1397,2.3417,2.4058,2.4519,2.5267,2.7034,2.8428,2.9297,3.0486,3.1987,3.3518,3.2976,3.3069,3.4965,3.7133,3.9078,3.9856,3.9596,3.9457,3.9714,3.9895,3.9996,4.0016,4.0177,4.0539,4.1143,4.07,4.0901,4.1988,4.239,4.239,4.2222,4.1866,4.1588,4.1945,4.2242,4.239,4.239,4.239,4.2686,4.3401,4.4276,4.4711,4.4711,4.5431,4.5861,4.631,4.7323,4.872,5.007,5.1041,5.1419,5.1577,5.2381,5.392,5.6032,5.6067,5.5736,5.6016,5.4796,5.3602,-1.8267,-1.7972,-1.664,-1.5442,-1.4391,-1.2451,-1.043,-0.8642,-0.7306,-0.5979,-0.4588,-0.3923,-0.3399,-0.2874,-0.0917,0.1178,0.3137,0.3268,0.3793,0.4585,0.5443,0.6453,0.749,0.8539,0.9759,1.0711,1.1144,1.1721,1.2601,1.2608,1.2751,1.3051,1.3358,1.3435,1.3436,1.3694,1.3669,1.3514,1.2969,1.2617,1.2764,1.2832,1.2847,1.3103,1.3358,1.3621,1.4003,1.4512,1.5019,1.5525,1.6408,1.7048,1.7538,1.8783,2.048,2.2308,2.2477,2.2856,2.3922,2.5163,2.6261,2.7521,2.9241,3.0442,3.0882,3.0793,3.1555,3.3771,3.6034,3.7562,3.7833,3.7988,3.8103,3.8507,3.8869,3.9091,3.9151,3.9413,3.9875,4.0278,3.9996,3.9936,4.0487,4.132,4.1797,4.1797,4.1479,4.1459,4.1816,4.142,4.1268,4.1787,4.2108,4.2625,4.3401,4.4276,4.4711,4.4711,4.5431,4.5861,4.6003,4.716,4.8743,5.0094,5.1017,5.1419,5.1552,5.1976,5.3219,5.5044,5.4771,5.4669,5.505,5.4466,5.3577,-1.8414,-1.7982,-1.6788,-1.5706,-1.4477,-1.3286,-1.1344,-0.8744,-0.7836,-0.6566,-0.4843,-0.4054,-0.3399,-0.3007,-0.0917,0.1047,0.2878,0.3268,0.3793,0.4187,0.5228,0.6214,0.7157,0.8137,0.9318,1.0579,1.0953,1.156,1.2084,1.2301,1.2444,1.2696,1.2696,1.2684,1.2693,1.3051,1.3007,1.2685,1.2247,1.208,1.2351,1.2351,1.26,1.2975,1.2975,1.3358,1.3867,1.4249,1.4756,1.5399,1.6105,1.6597,1.7141,1.7878,1.9221,2.0981,2.0739,2.1117,2.2735,2.3026,2.3953,2.581,2.8033,2.8733,2.7256,2.8002,2.9634,3.2029,3.4495,3.5795,3.5907,3.6141,3.6451,3.6809,3.7753,3.8278,3.8359,3.8829,3.9292,3.9355,3.9433,3.9017,3.8384,3.9569,4.0641,4.0953,4.0512,4.0602,4.0662,4.025,4.0126,4.0799,4.1525,4.224,4.2885,4.3858,4.452,4.4392,4.4892,4.5229,4.537,4.665,4.8235,5.0022,5.1017,5.1248,5.0965,5.1606,5.2643,5.3418,5.3755,5.3628,5.3729,5.3548,5.3526,-1.8709,-1.7972,-1.6779,-1.5708,-1.4556,-1.3251,-1.189,-1.029,0.0,0.0,0.0,-0.4312,-0.3529,-0.3007,-0.0917,0.0524,0.1441,0.2878,0.366,0.3793,0.4834,0.5891,0.6851,0.7537,0.8599,1.0061,1.0631,1.1173,1.1807,1.2051,1.2045,1.1821,1.194,1.1937,1.2075,1.2235,1.1938,1.1352,1.1497,1.1831,1.208,1.208,1.2208,1.2472,1.2847,1.323,1.3502,1.3876,1.4385,1.5019,1.5439,1.5645,1.5854,1.6772,1.8118,1.9652,1.9411,1.9281,1.9616,2.0507,2.1691,2.308,2.5896,2.6478,2.4277,2.4307,2.5725,2.8791,3.2777,3.54,3.5907,3.5421,3.5241,3.5595,3.6669,3.735,3.737,3.7461,3.7691,3.8023,3.7719,3.7148,3.5957,3.7277,3.8711,3.9744,3.9132,3.8014,3.7823,3.841,3.9056,3.9656,4.0036,4.0498,4.1422,4.3162,4.401,4.3076,4.3187,4.3644,4.4341,4.5166,4.6917,4.9571,5.1017,5.0638,4.9271,5.0028,5.1717,5.3219,5.3396,5.3396,5.3396,5.3371,5.327,-1.8313,-1.7319,-1.6455,-1.5332,0.0,-1.3059,-1.181,-1.057,-0.9501,-0.7929,-0.5746,-0.4706,-0.3923,-0.3268,-0.17,-0.0523,0.0524,0.2486,0.3268,0.3529,0.4445,0.5489,0.6274,0.7144,0.8176,0.9366,1.0031,1.0656,1.1219,1.1649,1.1643,1.1498,1.1491,1.1425,1.1559,1.1547,1.1243,1.0918,1.1053,1.1439,1.1695,1.1816,1.208,1.2216,1.26,0.0,0.0,0.0,0.0,0.0,0.0,0.0,0.0,0.0,0.0,1.8652,1.8061,1.7948,1.8789,1.9181,1.994,2.1447,2.3023,2.341,2.2066,2.2793,2.4715,2.7859,3.1272,3.3713,3.4601,3.3796,3.3588,3.4433,3.5349,3.5798,3.5461,3.5356,3.5654,3.6143,3.5452,3.4863,3.4909,3.6466,3.7814,3.8497,3.7985,3.7633,3.7742,3.7561,3.7679,3.8581,3.8573,3.8978,4.0598,4.2286,4.3045,4.2636,4.2718,4.2881,4.2651,4.326,4.4814,4.8002,4.9288,4.9125,4.727,4.8426,5.0766,5.2735,5.3069,5.2535,5.1926,5.1849,5.1824,-1.7926,-1.6832,-1.6127,-1.5111,-1.3936,-1.2724,-1.1571,-1.0465,-0.9253,-0.7823,-0.6039,-0.5017,-0.4249,-0.3476,-0.2573,-0.1417,0.0129,0.2202,0.3116,0.3243,0.4176,0.5101,0.5876,0.6916,0.7919,0.8757,0.9606,1.0149,1.0652,1.0975,1.1247,1.1201,1.1194,1.1168,1.1109,0.0,0.0,0.0,1.0796,1.1046,1.1317,1.156,1.1816,1.208,1.2216,0.0,1.2975,1.3172,1.338,1.3933,1.3999,0.0,0.0,0.0,0.0,0.0,0.0,0.0,0.0,0.0,0.0,0.0,1.9811,1.9948,1.9982,2.1248,2.3455,2.6734,2.9456,3.152,3.2627,3.1619,3.1443,3.2828,3.3782,3.4102,3.3719,3.3597,3.3715,3.4127,3.3239,3.3163,3.4758,3.6143,3.6979,3.7016,3.7016,3.7239,3.7738,3.6663,3.6306,3.7413,3.7511,3.7965,4.0,4.0862,4.1533,4.1933,4.2331,4.2222,4.1574,4.1856,4.3528,4.5983,4.7139,4.7026,4.5416,4.6996,4.9714,5.2357,5.2154,5.1265,5.0401,5.0198,5.0071,-1.8199,-1.6832,-1.6283,-1.5377,-1.4075,-1.2281,-1.1113,-1.0399,-0.9159,-0.797,-0.6889,-0.5086,-0.4122,-0.3635,-0.2913,-0.1579,0.0243,0.2245,0.328,0.3532,0.4269,0.5101,0.588,0.6916,0.771,0.8407,0.9397,1.0057,1.037,1.1017,1.1155,1.0931,1.0917,1.0792,1.0542,1.0625,1.0585,1.0545,1.0552,1.0674,1.0918,1.0918,1.1303,1.1952,1.208,1.2464,1.2967,1.2679,1.2867,1.3418,1.3119,1.262,1.2248,1.2892,1.3839,0.0,1.4316,0.0,0.0,0.0,0.0,0.0,0.0,0.0,0.0,1.7623,1.9064,2.2452,2.6863,2.9529,2.976,2.8564,2.8511,3.0335,3.1486,3.2476,3.348,3.3578,3.3179,3.217,3.2252,3.3144,3.4625,3.5156,3.5327,3.5365,3.5365,3.5364,3.5283,3.5334,3.5707,3.6989,3.7139,3.7196,3.8228,3.9018,3.9722,4.0421,4.1007,4.1418,4.1184,4.2185,4.3316,4.4344,4.5086,4.5249,4.4932,4.6355,4.8388,5.0355,5.0427,5.0097,4.997,4.9868,4.9538,-1.7543,-1.6357,-1.5711,-1.4696,-1.334,-1.2156,-1.106,-1.0092,-0.9242,-0.8239,-0.7289,-0.5985,-0.4672,-0.3713,-0.3121,-0.168,0.0601,0.1217,0.2204,0.343,0.372,0.4402,0.5491,0.6505,0.7332,0.783,0.8842,0.9419,0.9562,1.0201,1.0467,1.0351,1.0614,1.034,0.9681,0.9801,1.0004,1.0152,1.0416,1.0552,1.0667,1.0661,1.0911,1.1431,1.1816,1.1988,1.2188,1.2285,1.2389,1.2216,1.2128,1.185,1.1584,1.2145,1.2779,0.0,0.0,0.0,0.0,0.0,0.0,0.0,0.0,0.0,0.0,0.0,1.5909,1.9009,2.3871,2.719,2.7738,2.6541,2.6326,2.79,2.8934,2.9645,2.9801,2.9951,2.9744,2.9033,2.9351,3.0354,3.1986,3.303,3.3732,3.4036,3.3936,3.3991,3.3997,3.429,3.4798,3.555,3.5734,3.5838,3.6003,3.7698,3.8955,3.8728,3.9045,3.964,4.0135,4.0838,4.2165,4.4031,4.4742,4.4518,4.3488,4.4644,4.6786,4.8817,4.8242,4.6896,4.7251,4.7378,4.7429,-1.6569,-1.5696,-1.498,-1.3906,-1.255,-1.1772,-1.0824,-0.9793,-0.905,-0.8226,-0.7318,-0.6517,-0.5268,-0.3894,-0.3329,-0.1846,0.0348,0.0234,0.1296,0.3091,0.3225,0.388,0.4836,0.5953,0.664,0.7285,0.8174,0.8692,0.8814,0.932,0.9567,0.9694,0.9953,0.9725,0.8903,0.9148,0.9525,0.9794,1.0062,1.035,1.0545,1.0532,1.0654,1.0918,1.1231,1.1466,1.1352,1.1801,1.1672,1.1052,1.1177,1.1077,1.0642,1.1123,0.0,0.0,0.0,0.0,0.0,0.0,0.0,0.0,0.0,1.2453,1.34,0.0,1.3382,0.0,2.0762,2.4353,2.5737,2.4543,0.0,0.0,2.635,2.6817,2.6498,2.6769,2.6836,2.6239,2.6828,2.7988,2.9746,3.1455,3.2461,3.2214,3.2214,3.2476,3.3144,3.3524,3.3963,3.4323,3.4744,3.462,3.4397,3.6411,3.7981,3.7425,3.7882,3.839,3.8522,3.8962,4.0303,4.3365,4.4195,4.3341,4.1364,4.2533,4.5033,4.7593,4.5905,4.3746,4.4559,4.4762,4.499,-1.587,-1.5121,-1.4346,-1.3243,-1.1841,-1.0845,-1.008,-0.945,-0.8362,-0.7465,-0.6669,-0.6065,-0.5373,-0.4484,-0.3592,0.0,-0.147,-0.0325,0.1116,0.2994,0.3194,0.3718,0.4331,0.5403,0.6134,0.6755,0.747,0.7948,0.8199,0.8665,0.8892,0.8892,0.8898,0.8886,0.8742,0.8742,0.9122,0.9525,0.9537,0.9901,1.0539,1.0552,1.0674,1.0911,1.0655,1.075,1.1076,1.076,1.0615,1.0367,1.0732,1.0214,0.8748,0.0,0.0,0.0,0.0,0.0,0.0,0.0,0.0,0.0,0.0,0.0,0.0,0.0,0.0,0.0,1.7366,0.0,2.2832,2.2217,0.0,0.0,0.0,2.496,2.5365,2.6004,2.5979,2.4627,0.0,0.0,2.9653,3.1436,3.1682,2.9404,2.9591,3.0595,3.2165,3.2711,3.3401,3.4122,3.4643,3.4291,3.319,3.4701,3.6334,3.7056,3.8182,3.8183,3.6823,3.6852,3.8382,4.1416,4.2048,4.134,3.9144,4.0758,4.3031,4.3944,4.3457,4.3205,4.3361,4.3492,4.3597,-1.5494,-1.3991,-1.3301,-1.2412,-1.1452,-1.0697,-1.0041,-0.934,-0.8448,-0.7618,-0.7075,-0.6238,-0.5414,-0.4662,-0.4119,0.0,0.0,0.0,0.0618,0.1987,0.2651,0.327,0.3953,0.4869,0.5659,0.61,0.6823,0.73,0.7403,0.7883,0.7714,0.6943,0.0,0.0,0.7453,0.7708,0.8216,0.8862,0.9122,0.9499,1.0146,1.0152,1.0288,1.0661,1.0516,1.0392,1.0438,1.0182,0.9907,0.9577,0.9196,0.8614,0.0,0.0,0.0,0.0,0.0,0.0,0.0,0.0,0.0,0.0,0.0,0.8369,0.9469,0.0,0.0,0.0,1.4167,1.7894,2.0271,2.023,0.0,0.0,0.0,0.0,0.0,0.0,0.0,2.2046,2.2768,2.4701,2.7988,2.8934,2.9101,2.8114,2.8508,2.9359,3.0556,0.0,3.1868,3.2753,3.3063,3.3159,3.2615,3.3403,3.4402,3.5227,3.5842,3.5664,3.4569,3.4517,3.5832,3.8499,3.9595,3.9119,3.7021,3.7555,3.8907,4.0553,4.005,3.9493,4.0171,4.1002,4.1127,-1.4553,0.0,0.0,0.0,0.0,-1.0097,-0.9471,-0.8836,-0.8124,-0.7562,-0.6995,-0.6145,0.0,0.0,0.0,0.0,0.0,0.0,-0.0,0.1158,0.2124,0.2892,0.3593,0.4229,0.4882,0.5554,0.6014,0.6348,0.6451,0.6735,0.6287,0.5317,0.0,0.0,0.0,0.0,0.7329,0.8145,0.8478,0.888,0.9642,0.9722,0.99,1.0288,1.0309,1.0051,0.9647,0.9461,0.9164,0.8574,0.7825,0.0,0.0,0.0,0.0,0.0,0.0,0.0,0.0,0.0,0.0,0.0,0.0,0.0,0.0,0.0,0.0,0.0,0.0,0.0,1.7267,1.7643,1.7778,0.0,0.0,0.0,0.0,0.0,0.0,0.0,0.0,0.0,2.5448,2.6362,2.6683,0.0,0.0,2.8255,2.9202,2.9762,3.0233,3.0983,3.1347,0.0,3.1358,3.1888,3.2567,3.3545,3.3577,3.318,3.2302,3.2262,3.3281,3.6287,3.7214,3.6608,3.4149,3.3751,3.521,3.7566,3.7031,3.6237,3.698,3.8224,3.8741,0.0,0.0,0.0,0.0,0.0,0.0,0.0,0.0,-0.7416,-0.6888,0.0,-0.5815,0.0,0.0,0.0,0.0,0.0,-0.1569,0.0,0.0,0.1574,0.2559,0.3242,0.3345,0.3941,0.4829,0.4943,0.5136,0.5618,0.4848,0.0,0.0,0.0,0.0,0.0,0.0,0.6422,0.7426,0.7673,0.826,0.9004,0.9259,0.9507,0.9869,0.9625,0.9315,0.8837,0.8717,0.8344,0.7288,0.7127,0.0,0.0,0.0,0.0,0.0,0.0,0.0,0.0,0.0,0.0,0.0,0.0,0.0,0.0,0.0,0.0,0.0,0.0,0.0,0.0,1.3923,0.0,0.0,0.0,0.0,0.0,0.0,0.0,0.0,0.0,0.0,2.2156,2.3945,2.5,2.4829,0.0,0.0,0.0,0.0,2.8988,2.9273,2.9497,2.9516,2.9004,2.9793,3.088,3.2105,0.0,0.0,2.9724,2.992,3.1178,3.4124,3.5089,3.3963,2.9546,2.9776,3.1749,3.528,3.5056,3.4435,3.4831,3.5672,3.6517,0.0,0.0,0.0,0.0,0.0,0.0,0.0,0.0,0.0,-0.6406,0.0,-0.5487,0.0,0.0,0.0,0.0,0.0,0.0,0.0,0.0,0.0738,0.1594,0.245,0.2797,0.3099,0.0,0.3999,0.389,0.0,0.0,0.0,0.0,0.0,0.0,0.0,0.0,0.5707,0.663,0.7098,0.7762,0.8372,0.8865,0.9167,0.9248,0.9197,0.8881,0.8271,0.756,0.7072,0.0,0.0,0.0,0.0,0.0,0.0,0.0,0.0,0.0,0.0,0.0,0.0,0.0,0.0,0.0,0.0,0.0,0.0,0.0,0.0,0.0,0.0,0.0,1.3537,0.0,0.0,0.0,0.0,0.0,0.0,0.0,0.0,0.0,2.1638,2.259,2.3219,2.3834,2.4431,2.5418,2.6999,0.0,0.0,0.0,0.0,0.0,0.0,0.0,3.0184,3.1239,3.0696,2.9877,2.9123,2.8041,2.8493,3.1922,0.0,0.0,2.6459,2.7569,2.9618,3.116,3.1166,3.0974,3.1131,3.2267,3.3006,0.0,0.0,0.0,0.0,0.0,0.0,0.0,0.0,0.0,-0.6217,-0.593,0.0,0.0,0.0,0.0,0.0,0.0,0.0,0.0,0.0,0.0,0.0,0.1643,0.2141,0.0,0.0,0.0,0.0,0.0,0.0,0.0,0.0,0.0,0.0,0.0,0.0,0.5007,0.5779,0.6385,0.7013,0.7652,0.8118,0.8411,0.8623,0.8657,0.8329,0.7948,0.0,0.0,0.0,0.0,0.0,0.0,0.0,0.0,0.0,0.0,0.0,0.0,0.0,0.0,0.0,0.0,0.0,0.0,0.0,0.0,0.0,0.0,0.0,0.0,0.0,1.2268,0.0,0.0,0.0,0.0,0.0,0.0,0.0,0.0,0.0,0.0,0.0,2.2075,2.2422,2.3084,2.4108,2.5533,2.6321,2.7003,0.0,0.0,0.0,0.0,0.0,0.0,0.0,0.0,0.0,0.0,0.0,0.0,0.0,0.0,2.7806,2.3831,2.4821,2.659,2.7626,0.0,0.0,0.0,0.0,0.0,0.0,0.0,0.0,0.0,0.0,0.0,0.0,0.0,0.0,0.0,0.0,0.0,0.0,-0.5377,0.0,0.0,0.0,0.0,0.0,0.0,0.0,0.0,0.0,0.0,0.0,0.0,0.0,0.0,0.0,0.0,0.0,0.0,0.0,0.0,0.0,0.0,0.4136,0.4961,0.5408,0.6053,0.6759,0.7067,0.7532,0.812,0.7884,0.7743,0.7905,0.0,0.0,0.0,0.0,0.0,0.0,0.0,0.0,0.0,0.0,0.0,0.0,0.0,0.0,0.0,0.0,0.0,0.0,0.0,0.0,0.0,0.0,0.0,0.0,0.0,0.0,0.9619,1.1084,1.2429,0.0,0.0,0.0,0.0,0.0,0.0,0.0,0.0,0.0,0.0,2.1885,2.3201,2.3959,2.4838,2.5698,2.5993,2.6012,2.6198,2.6681,2.6773,2.6539,0.0,0.0,0.0,0.0,0.0,0.0,0.0,0.0,0.0,0.0,0.0,0.0,0.0,0.0,0.0,0.0,0.0,0.0,0.0,0.0,0.0,0.0,0.0,0.0,0.0,0.0,0.0,0.0,0.0,0.0,0.0,0.0,0.0,0.0,0.0,0.0,0.0,0.0,0.0,0.0,0.0,0.0,0.0,0.0,0.0,0.0,0.0,0.0,0.0,0.0,0.0,0.0,0.0,0.0,0.3419,0.3987,0.5021,0.5699,0.5935,0.6593,0.6871,0.6953,0.6735,0.6554,0.0,0.0,0.0,0.0,0.0,0.0,0.0,0.0,0.0,0.0,0.0,0.0,0.0,0.0,0.0,0.0,0.0,0.0,0.0,0.0,0.0,0.0,0.0,0.0,0.0,0.0,0.0,0.0,0.9334,1.0031,1.1042,0.0,0.0,0.0,0.0,0.0,0.0,0.0,0.0,0.0,0.0,2.1976,2.2674,2.4334,2.5281,2.4743,2.5303,2.5663,2.5272,2.5372,2.5249,2.4554,0.0,0.0,0.0,0.0,0.0,0.0,0.0,0.0,0.0,0.0,0.0,0.0,0.0,0.0,0.0,0.0,0.0,0.0,0.0,0.0,0.0,0.0,0.0,0.0,0.0,0.0,0.0,0.0,0.0,0.0,0.0,0.0,0.0,0.0,0.0,0.0,0.0,0.0,0.0,0.0,0.0,0.0,0.0,0.0,0.0,0.0,0.0,0.0,0.0,0.0,0.0,0.0,0.0,0.286,0.3432,0.4263,0.4886,0.5493,0.5948,0.6299,0.6283,0.6183,0.5816,0.0,0.0,0.0,0.0,0.0,0.0,0.0,0.0,0.0,0.0,0.0,0.0,0.0,0.0,0.0,0.0,0.0,0.0,0.0,0.0,0.0,0.0,0.0,0.0,0.0,0.0,0.0,0.0,0.8084,0.8554,0.9496,0.0,0.0,0.0,0.0,0.0,0.0,0.0,0.0,0.0,0.0,1.9704,2.1352,2.3181,0.0,0.0,2.4117,2.4451,2.4119,2.4194,2.4088,2.3376,2.3116,0.0,0.0,0.0,0.0,0.0,0.0,0.0,0.0,0.0,0.0,0.0,0.0,0.0,0.0,0.0,0.0,0.0,0.0,0.0,0.0,0.0,0.0,0.0,0.0,0.0,0.0,0.0,0.0,0.0,0.0,0.0,0.0,0.0,0.0,0.0,0.0,0.0,0.0,0.0,0.0,0.0,0.0,0.0,0.0,0.0,0.0,0.0,0.0,0.0,0.0,0.0,0.0,0.0,0.3203,0.3242,0.3885,0.5099,0.5114,0.5439,0.5953,0.5862,0.5558,0.0,0.0,0.0,0.0,0.0,0.0,0.0,0.0,0.0,0.0,0.0,0.0,0.0,0.0,0.0,0.0,0.0,0.0,0.0,0.0,0.0,0.0,0.0,0.0,0.0,0.0,0.0,0.0,0.0,0.0,0.0,0.0,0.0,0.0,0.0,0.0,0.0,0.0,0.0,0.0,0.0,1.7027,2.0025,2.162,2.2476,0.0,2.2692,2.2964,2.3177,2.3138,2.2867,2.2039,0.0,0.0,0.0,0.0,0.0,0.0,0.0,0.0,0.0,0.0,0.0,0.0,0.0,0.0,0.0,0.0,0.0,0.0,0.0,0.0,0.0,0.0,0.0,0.0,0.0,0.0,0.0,0.0,0.0,0.0,0.0,0.0,0.0,0.0,0.0,0.0,0.0,0.0,0.0,0.0,0.0,0.0,0.0,0.0,0.0,0.0,0.0,0.0,0.0,0.0,0.0,0.0,0.0,0.0,0.216,0.289,0.3444,0.3777,0.4302,0.4627,0.4815,0.4753,0.0,0.0,0.0,0.0,0.0,0.0,0.0,0.0,0.0,0.0,0.0,0.0,0.0,0.0,0.0,0.0,0.0,0.0,0.0,0.0,0.0,0.0,0.0,0.0,0.0,0.0,0.0,0.5936,0.0,0.0,0.0,0.0,0.0,0.0,0.0,0.0,0.0,0.0,0.0,0.0,0.0,0.0,1.6517,1.8183,2.0531,2.1919,0.0,0.0,2.2164,2.1659,2.1252,2.079,0.0,0.0,0.0,0.0,0.0,0.0,0.0,0.0,0.0,0.0,0.0,0.0,0.0,0.0,0.0,0.0,0.0,0.0,0.0,0.0,0.0,0.0,0.0,0.0,0.0,0.0,0.0,0.0,0.0,0.0,0.0,0.0,0.0,0.0,0.0,0.0,0.0,0.0,0.0,0.0,0.0,0.0,0.0,0.0,0.0,0.0,0.0,0.0,0.0,0.0,0.0,0.0,0.0,0.0,0.1681,0.1922,0.2456,0.2895,0.3313,0.3751,0.4071,0.4342,0.4196,0.4069,0.0,0.0,0.0,0.0,0.0,0.0,0.0,0.0,0.0,0.0,0.0,0.0,0.0,0.0,0.0,0.0,0.0,0.0,0.0,0.0,0.0,0.0,0.0,0.0,0.0,0.0,0.0,0.0,0.0,0.0,0.0,0.0,0.0,0.0,0.0,0.0,0.0,0.0,0.0,0.0,0.0,0.0,1.6724,1.8663,0.0,0.0,0.0,1.9778,1.9387,0.0,0.0,0.0,0.0,0.0,0.0,0.0,0.0,0.0,0.0,0.0,0.0,0.0,0.0,0.0,0.0,0.0,0.0,0.0,0.0,0.0,0.0,0.0,0.0,0.0,0.0,0.0,0.0,0.0,0.0,0.0,0.0,0.0,0.0,0.0,0.0,0.0,0.0,0.0,0.0,0.0,0.0,0.0,0.0,0.0,0.0,0.0,0.0,0.0,0.0,0.0,0.0,0.0,0.0,0.0,0.0,0.0,0.2066,0.2058,0.238,0.3192,0.3395,0.3613,0.4216,0.3974,0.3662,0.0,0.0,0.0,0.0,0.0,0.0,0.0,0.0,0.0,0.0,0.0,0.0,0.0,0.0,0.0,0.0,0.0,0.0,0.0,0.0,0.0,0.0,0.0,0.0,0.0,0.0,0.0,0.0,0.0,0.0,0.0,0.0,0.0,0.0,0.0,0.0,0.0,0.0,0.0,0.0,0.0,1.3398,1.5465,1.6451,1.6879,0.0,0.0,1.6963,1.7019,1.7133,0.0,0.0,0.0,0.0,0.0,0.0,0.0,0.0,0.0,0.0,0.0,0.0,0.0,0.0,0.0,0.0,0.0,0.0,0.0,0.0,0.0,0.0,0.0,0.0,0.0,0.0,0.0,0.0,0.0,0.0,0.0,0.0,0.0,0.0,0.0,0.0,0.0,0.0,0.0,0.0,0.0,0.0,0.0,0.0,0.0,0.0,0.0,0.0,0.0,0.0,0.0,0.0,0.0,0.0,0.0,0.0,0.1499,0.186,0.2291,0.2673,0.2798,0.3099,0.3671,0.3542,0.338,0.0,0.0,0.0,0.0,0.0,0.0,0.0,0.0,0.0,0.0,0.0,0.0,0.0,0.0,0.0,0.0,0.0,0.0,0.0,0.0,0.0,0.0,0.0,0.0,0.0,0.0,0.0,0.0,0.0,0.0,0.0,0.0,0.0,0.0,0.0,0.0,0.0,0.0,0.0,0.0,0.0,1.2141,1.4313,1.5029,0.0,0.0,0.0,0.0,1.6581,1.6537,0.0,0.0,0.0,0.0,0.0,0.0,0.0,0.0,0.0,0.0,0.0,0.0,0.0,0.0,0.0,0.0,0.0,0.0,0.0,0.0,0.0,0.0,0.0,0.0,0.0,0.0,0.0,0.0,0.0,0.0,0.0,0.0,0.0,0.0,0.0,0.0,0.0,0.0,0.0,0.0,0.0,0.0,0.0,0.0,0.0,0.0,0.0,0.0,0.0,0.0,0.0,0.0,0.0,0.0,0.0,0.0,0.0843,0.1537,0.202,0.2382,0.2333,0.2529,0.2961,0.2995,0.2887,0.0,0.0,0.0,0.0,0.0,0.0,0.0,0.0,0.0,0.0,0.0,0.0,0.0,0.0,0.0,0.0,0.0,0.0,0.0,0.0,0.0,0.0,0.0,0.0,0.0,0.0,0.0,0.0,0.0,0.0,0.0,0.0,0.0,0.0,0.0,0.0,0.0,0.0,0.0,0.0,1.0656,1.1575,1.2804,0.0,0.0,0.0,0.0,0.0,0.0,1.4873,1.4616,0.0,0.0,0.0,0.0,0.0,0.0,0.0,0.0,0.0,0.0,0.0,0.0,0.0,0.0,0.0,0.0,0.0,0.0,0.0,0.0,0.0,0.0,0.0,0.0,0.0,0.0,0.0,0.0,0.0,0.0,0.0,0.0,0.0,0.0,0.0,0.0,0.0,0.0,0.0,0.0,0.0,0.0,0.0,0.0,0.0,0.0,0.0,0.0,0.0,0.0,0.0,0.0,0.0,0.0,0.0,0.0153,0.0997,0.1682,0.2125,0.1996,0.2093,0.2501,0.2468,0.241,0.2355,0.0,0.0,0.0,0.0,0.0,0.0,0.0,0.0,0.0,0.0,0.0,0.0,0.0,0.0,0.0,0.0,0.0,0.0,0.0,0.0,0.0,0.0,0.0,0.0,0.0,0.0,0.0,0.0,0.0,0.0,0.0,0.0,0.0,0.0,0.0,0.0,0.0,0.0,0.0,0.9821,1.094,0.0,0.0,0.0,0.0,0.0,0.0,0.0,0.0,1.2968,0.0,0.0,0.0,0.0,0.0,0.0,0.0,0.0,0.0,0.0,0.0,0.0,0.0,0.0,0.0,0.0,0.0,0.0,0.0,0.0,0.0,0.0,0.0,0.0,0.0,0.0,0.0,0.0,0.0,0.0,0.0,0.0,0.0,0.0,0.0,0.0,0.0,0.0,0.0,0.0,0.0,0.0,0.0,0.0,0.0,0.0,0.0,0.0,0.0,0.0,0.0,0.0,0.0,0.0,0.0,0.0,0.0644,0.1288,0.2118,0.1895,0.1984,0.2402,0.2167,0.1995,0.1873,0.0,0.0,0.0,0.0,0.0,0.0,0.0,0.0,0.0,0.0,0.0,0.0,0.0,0.0,0.0,0.0,0.0,0.0,0.0,0.0,0.0,0.0,0.0,0.0,0.0,0.0,0.0,0.0,0.0,0.0,0.0,0.0,0.0,0.0,0.0,0.0,0.0,0.0,0.7417,0.8293,0.0,0.0,0.0,0.0,0.0,0.0,0.0,0.0,1.2832,0.0,0.0,0.0,0.0,0.0,0.0,0.0,0.0,0.0,0.0,0.0,0.0,0.0,0.0,0.0,0.0,0.0,0.0,0.0,0.0,0.0,0.0,0.0,0.0,0.0,0.0,0.0,0.0,0.0,0.0,0.0,0.0,0.0,0.0,0.0,0.0,0.0,0.0,0.0,0.0,0.0,0.0,0.0,0.0,0.0,0.0,0.0,0.0,0.0,0.0,0.0,0.0,0.0,0.0,0.0,0.0,0.0,0.0,0.0896,0.1734,0.157,0.1658,0.1994,0.1678,0.1489,0.0,0.0,0.0,0.0,0.0,0.0,0.0,0.0,0.0,0.0,0.0,0.0,0.0,0.0,0.0,0.0,0.0,0.0,0.0,0.0,0.0,0.0,0.0,0.0,0.0,0.0,0.0,0.0,0.0,0.0,0.0,0.0,0.0,0.0,0.0,0.0,0.0,0.0,0.0,0.0,0.0,0.0,0.0,0.0,0.0,0.0,0.0,0.0,0.0,0.0,0.0,0.0,0.0,0.0,0.0,0.0,0.0,0.0,0.0,0.0,0.0,0.0,0.0,0.0,0.0,0.0,0.0,0.0,0.0,0.0,0.0,0.0,0.0,0.0,0.0,0.0,0.0,0.0,0.0,0.0,0.0,0.0,0.0,0.0,0.0,0.0,0.0,0.0,0.0,0.0,0.0,0.0,0.0,0.0,0.0,0.0,0.0,0.0,0.0,0.0,0.0,0.0,0.0,0.0,0.0,0.0,0.0,0.0,0.0462,0.1048,0.1253,0.1505,0.1615,0.1337,0.1122,0.0,0.0,0.0,0.0,0.0,0.0,0.0,0.0,0.0,0.0,0.0,0.0,0.0,0.0,0.0,0.0,0.0,0.0,0.0,0.0,0.0,0.0,0.0,0.0,0.0,0.0,0.0,0.0,0.0,0.0,0.0,0.0,0.0,0.0,0.0,0.0,0.0,0.0,0.0,0.0,0.0,0.0,0.0,0.0,0.0,0.0,0.0,0.0,1.0147,0.0,0.0,0.0,0.0,0.0,0.0,0.0,0.0,0.0,0.0,0.0,0.0,0.0,0.0,0.0,0.0,0.0,0.0,0.0,0.0,0.0,0.0,0.0,0.0,0.0,0.0,0.0,0.0,0.0,0.0,0.0,0.0,0.0,0.0,0.0,0.0,0.0,0.0,0.0,0.0,0.0,0.0,0.0,0.0,0.0,0.0,0.0,0.0,0.0,0.0,0.0,0.0,0.0,0.0,0.0,0.0,0.0,0.0,0.0,0.022,0.0307,0.1006,0.1392,0.1383,0.1167,0.1017,0.0,0.0,0.0,0.0,0.0,0.0,0.0,0.0,0.0,0.0,0.0,0.0,0.0,0.0,0.0,0.0,0.0,0.0,0.0,0.0,0.0,0.0,0.0,0.0,0.0,0.0,0.0,0.0,0.0,0.0,0.0,0.0,0.0,0.0,0.0,0.0,0.0,0.0,0.0,0.0,0.0,0.0,0.0,0.0,0.0,0.0,0.0,0.0,0.0,0.0,0.0,0.0,0.0,0.0,0.0,0.0,0.0,0.0,0.0,0.0,0.0,0.0,0.0,0.0,0.0,0.0,0.0,0.0,0.0,0.0,0.0,0.0,0.0,0.0,0.0,0.0,0.0,0.0,0.0,0.0,0.0,0.0,0.0,0.0,0.0,0.0,0.0,0.0,0.0,0.0,0.0,0.0,0.0,0.0,0.0,0.0,0.0,0.0,0.0,0.0,0.0,0.0,0.0,0.0,0.0,0.0,0.0,0.0,-0.0347,0.0146,0.0526,0.0817,0.1121,0.0863,0.0755,0.0,0.0,0.0,0.0,0.0,0.0,0.0,0.0,0.0,0.0,0.0,0.0,0.0,0.0,0.0,0.0,0.0,0.0,0.0,0.0,0.0,0.0,0.0,0.0,0.0,0.0,0.0,0.0,0.0,0.0,0.0,0.0,0.0,0.0,0.0,0.0,0.0,0.0,0.0,0.0,0.0,0.0,0.0,0.0,0.0,0.0,0.0,0.0,0.0,0.0,0.0,0.0,0.0,0.0,0.0,0.0,0.0,0.0,0.0,0.0,0.0,0.0,0.0,0.0,0.0,0.0,0.0,0.0,0.0,0.0,0.0,0.0,0.0,0.0,0.0,0.0,0.0,0.0,0.0,0.0,0.0,0.0,0.0,0.0,0.0,0.0,0.0,0.0,0.0,0.0,0.0,0.0,0.0,0.0,0.0,0.0,0.0,0.0,0.0,0.0,0.0,0.0,0.0,0.0,0.0,0.0,0.0,0.0,0.0,-0.0204,-0.007,0.0136,0.0502,0.048,0.0406,0.0,0.0,0.0,0.0,0.0,0.0,0.0,0.0,0.0,0.0,0.0,0.0,0.0,0.0,0.0,0.0,0.0,0.0,0.0,0.0,0.0,0.0,0.0,0.0,0.0,0.0,0.0,0.0,0.0,0.0,0.0,0.0,0.0,0.0,0.0,0.0,0.0,0.0,0.0,0.0,0.0,0.0,0.0,0.0,0.0,0.0,0.0,0.0,0.0,0.0,0.0,0.0,0.0,0.0,0.0,0.0,0.0,0.0,0.0,0.0,0.0,0.0,0.0,0.0,0.0,0.0,0.0,0.0,0.0,0.0,0.0,0.0,0.0,0.0,0.0,0.0,0.0,0.0,0.0,0.0,0.0,0.0,0.0,0.0,0.0,0.0,0.0,0.0,0.0,0.0,0.0,0.0,0.0,0.0,0.0,0.0,0.0,0.0,0.0,0.0,0.0,0.0,0.0,0.0,0.0,0.0,0.0,0.0,0.0,-0.1088,-0.0863,-0.0671,-0.0665,-0.022,-0.0,0.0,0.0,0.0,0.0,0.0,0.0,0.0,0.0,0.0,0.0,0.0,0.0,0.0,0.0,0.0,0.0,0.0,0.0,0.0,0.0,0.0,0.0,0.0,0.0,0.0,0.0,0.0,0.0,0.0,0.0,0.0,0.0,0.0,0.0,0.0,0.0,0.0,0.0,0.0,0.0,0.0,0.0,0.0,0.0,0.0,0.0,0.0,0.0,0.0,0.0,0.0,0.0,0.0,0.0,0.0,0.0,0.0,0.0,0.0,0.0,0.0,0.0,0.0,0.0,0.0,0.0,0.0,0.0,0.0,0.0,0.0,0.0,0.0,0.0,0.0,0.0,0.0,0.0,0.0,0.0,0.0,0.0,0.0,0.0,0.0,0.0,0.0,0.0,0.0,0.0,0.0,0.0,0.0,0.0,0.0,0.0,0.0,0.0,0.0,0.0,0.0,0.0,0.0,0.0,0.0,0.0,0.0,0.0,0.0,-0.1378,-0.124,-0.1091,-0.0876,-0.0315,-0.0051,-0.0246,0.0,0.0,0.0,0.0,0.0,0.0,0.0,0.0,0.0,0.0,0.0,0.0,0.0,0.0,0.0,0.0,0.0,0.0,0.0,0.0,0.0,0.0,0.0,0.0,0.0,0.0,0.0,0.0,0.0,0.0,0.0,0.0,0.0,0.0,0.0,0.0,0.0,0.0,0.0,0.0,0.0,0.0,0.0,0.0,0.0,0.0,0.0,0.0,0.0,0.0,0.0,0.0,0.0,0.0,0.0,0.0,0.0,0.0,0.0,0.0,0.0,0.0,0.0,0.0,0.0,0.0,0.0,0.0,0.0,0.0,0.0,0.0,0.0,0.0,0.0,0.0,0.0,0.0,0.0,0.0,0.0,0.0,0.0,0.0,0.0,0.0,0.0,0.0,0.0,0.0,0.0,0.0,0.0,0.0,0.0,0.0,0.0,0.0,0.0,0.0,0.0,0.0,0.0,0.0,0.0,0.0,0.0,0.0,-0.1701,-0.1589,-0.1379,-0.1076,-0.0586,-0.038,0.0,0.0,0.0,0.0,0.0,0.0,0.0,0.0,0.0,0.0,0.0,0.0,0.0,0.0,0.0,0.0,0.0,0.0,0.0,0.0,0.0,0.0,0.0,0.0,0.0,0.0,0.0,0.0,0.0,0.0,0.0,0.0,0.0,0.0,0.0,0.0,0.0,0.0,0.0,0.0,0.0,0.0,0.0,0.0,0.0,0.0,0.0,0.0,0.0,0.0,0.0,0.0,0.0,0.0,0.0,0.0,0.0,0.0,0.0,0.0,0.0,0.0,0.0,0.0,0.0,0.0,0.0,0.0,0.0,0.0,0.0,0.0,0.0,0.0,0.0,0.0,0.0,0.0,0.0,0.0,0.0,0.0,0.0,0.0,0.0,0.0,0.0,0.0,0.0,0.0,0.0,0.0,0.0,0.0,0.0,0.0,0.0,0.0,0.0,0.0,0.0,0.0,0.0,0.0,0.0,0.0,0.0,0.0,-0.2573,-0.2001,-0.1921,-0.176,-0.136,-0.1099,-0.0965,0.0,0.0,0.0,0.0,0.0,0.0,0.0,0.0,0.0,0.0,0.0,0.0,0.0,0.0,0.0,0.0,0.0,0.0,0.0,0.0,0.0,0.0,0.0,0.0,0.0,0.0,0.0,0.0,0.0,0.0,0.0,0.0,0.0,0.0,0.0,0.0,0.0,0.0,0.0,0.0,0.0,0.0,0.0,0.0,0.0,0.0,0.0,0.0,0.0,0.0,0.0,0.0,0.0,0.0,0.0,0.0,0.0,0.0,0.0,0.0,0.0,0.0,0.0,0.0,0.0,0.0,0.0,0.0,0.0,0.0,0.0,0.0,0.0,0.0,0.0,0.0,0.0,0.0,0.0,0.0,0.0,0.0,0.0,0.0,0.0,0.0,0.0,0.0,0.0,0.0,0.0,0.0,0.0,0.0,0.0,0.0,0.0,0.0,0.0,0.0,0.0,0.0,0.0,0.0,0.0,0.0,0.0,0.0,0.0,-0.2741,0.0,-0.2131,0.0,-0.1396,-0.127,0.0,0.0,0.0,0.0,0.0,0.0,0.0,0.0,0.0,0.0,0.0,0.0,0.0,0.0,0.0,0.0,0.0,0.0,0.0,0.0,0.0,0.0,0.0,0.0,0.0,0.0,0.0,0.0,0.0,0.0,0.0,0.0,0.0,0.0,0.0,0.0,0.0,0.0,0.0,0.0,0.0,0.0,0.0,0.0,0.0,0.0,0.0,0.0,0.0,0.0,0.0,0.0,0.0,0.0,0.0,0.0,0.0,0.0,0.0,0.0,0.0,0.0,0.0,0.0,0.0,0.0,0.0,0.0,0.0,0.0,0.0,0.0,0.0,0.0,0.0,0.0,0.0,0.0,0.0,0.0,0.0,0.0,0.0,0.0,0.0,0.0,0.0,0.0,0.0,0.0,0.0,0.0,0.0,0.0,0.0,0.0,0.0,0.0,0.0,0.0,0.0,0.0,0.0,0.0,0.0,0.0,0.0,0.0,0.0,-0.3395,-0.2963,-0.252,-0.2083,-0.1831,-0.17,0.0,0.0,0.0,0.0,0.0,0.0,0.0,0.0,0.0,0.0,0.0,0.0,0.0,0.0,0.0,0.0,0.0,0.0,0.0,0.0,0.0,0.0,0.0,0.0,0.0,0.0,0.0,0.0,0.0,0.0,0.0,0.0,0.0,0.0,0.0,0.0,0.0,0.0,0.0,0.0,0.0,0.0,0.0,0.0,0.0,0.0,0.0,0.0,0.0,0.0,0.0,0.0,0.0,0.0,0.0,0.0,0.0,0.0,0.0,0.0,0.0,0.0,0.0,0.0,0.0,0.0,0.0,0.0,0.0,0.0,0.0,0.0,0.0,0.0,0.0,0.0,0.0,0.0,0.0,0.0,0.0,0.0,0.0,0.0,0.0,0.0,0.0,0.0,0.0,0.0,0.0,0.0,0.0,0.0,0.0,0.0,0.0,0.0,0.0,0.0,0.0,0.0,0.0,0.0,0.0,0.0,0.0,0.0,0.0,0.0,-0.3395,-0.2963,-0.2607,-0.2434,-0.23,0.0,0.0,0.0,0.0,0.0,0.0,0.0,0.0,0.0,0.0,0.0,0.0,0.0,0.0,0.0,0.0,0.0,0.0,0.0,0.0,0.0,0.0,0.0,0.0,0.0,0.0,0.0,0.0,0.0,0.0,0.0,0.0,0.0,0.0,0.0,0.0,0.0,0.0,0.0,0.0,0.0,0.0,0.0,0.0,0.0,0.0,0.0,0.0,0.0,0.0,0.0,0.0,0.0,0.0,0.0,0.0,0.0,0.0,0.0,0.0,0.0,0.0,0.0,0.0,0.0,0.0,0.0,0.0,0.0,0.0,0.0,0.0,0.0,0.0,0.0,0.0,0.0,0.0,0.0,0.0,0.0,0.0,0.0,0.0,0.0,0.0,0.0,0.0,0.0,0.0,0.0,0.0,0.0,0.0,0.0,0.0,0.0,0.0,0.0,0.0,0.0,0.0,0.0,0.0,0.0,0.0,0.0,0.0,0.0,0.0,-0.3903,0.0,-0.3382,-0.2957,-0.2655,-0.2563,0.0,0.0,0.0,0.0,0.0,0.0,0.0,0.0,0.0,0.0,0.0,0.0,0.0,0.0,0.0,0.0,0.0,0.0,0.0,0.0,0.0,0.0,0.0,0.0,0.0,0.0,0.0,0.0,0.0,0.0,0.0,0.0,0.0,0.0,0.0,0.0,0.0,0.0,0.0,0.0,0.0,0.0,0.0,0.0,0.0,0.0,0.0,0.0,0.0,0.0,0.0,0.0,0.0,0.0,0.0,0.0,0.0,0.0,0.0,0.0,0.0,0.0,0.0,0.0,0.0,0.0,0.0,0.0,0.0,0.0,0.0,0.0,0.0,0.0,0.0,0.0,0.0,0.0,0.0,0.0,0.0,0.0,0.0,0.0,0.0,0.0,0.0,0.0,0.0,0.0,0.0,0.0,0.0,0.0,0.0,0.0,0.0,0.0,0.0,0.0,0.0,0.0,0.0,0.0,0.0,0.0,0.0,0.0,0.0,0.0,0.0,-0.4024,-0.356,-0.3259,0.0,0.0,0.0,0.0,0.0,0.0,0.0,0.0,0.0,0.0,0.0,0.0,0.0,0.0,0.0,0.0,0.0,0.0,0.0,0.0,0.0,0.0,0.0,0.0,0.0,0.0,0.0,0.0,0.0,0.0,0.0,0.0,0.0,0.0,0.0,0.0,0.0,0.0,0.0,0.0,0.0,0.0,0.0,0.0,0.0,0.0,0.0,0.0,0.0,0.0,0.0,0.0,0.0,0.0,0.0,0.0,0.0,0.0,0.0,0.0,0.0,0.0,0.0,0.0,0.0,0.0,0.0,0.0,0.0,0.0,0.0,0.0,0.0,0.0,0.0,0.0,0.0,0.0,0.0,0.0,0.0,0.0,0.0,0.0,0.0,0.0,0.0,0.0,0.0,0.0,0.0,0.0,0.0,0.0,0.0,0.0,0.0,0.0,0.0,0.0,0.0,0.0,0.0,0.0,0.0,0.0,0.0,0.0,0.0,0.0,0.0,-0.4526,-0.4535,-0.4152,0.0,-0.3768,0.0,0.0,0.0,0.0,0.0,0.0,0.0,0.0,0.0,0.0,0.0,0.0,0.0,0.0,0.0,0.0,0.0,0.0,0.0,0.0,0.0,0.0,0.0,0.0,0.0,0.0,0.0,0.0,0.0,0.0,0.0,0.0,0.0,0.0,0.0,0.0,0.0,0.0,0.0,0.0,0.0,0.0,0.0,0.0,0.0,0.0,0.0,0.0,0.0,0.0,0.0,0.0,0.0,0.0,0.0,0.0,0.0,0.0,0.0,0.0,0.0,0.0,0.0,0.0,0.0,0.0,0.0,0.0,0.0,0.0,0.0,0.0,0.0,0.0,0.0,0.0,0.0,0.0,0.0,0.0,0.0,0.0,0.0,0.0,0.0,0.0,0.0,0.0,0.0,0.0,0.0,0.0,0.0,0.0,0.0,0.0,0.0,0.0,0.0,0.0,0.0,0.0,0.0,0.0,0.0,0.0,0.0,0.0,0.0,0.0,0.0,0.0,-0.4662,-0.4458,-0.4306,0.0,0.0,0.0,0.0,0.0,0.0,0.0,0.0,0.0,0.0,0.0,0.0,0.0,0.0,0.0,0.0,0.0,0.0,0.0,0.0,0.0,0.0,0.0,0.0,0.0,0.0,0.0,0.0,0.0,0.0,0.0,0.0,0.0,0.0,0.0,0.0,0.0,0.0,0.0,0.0,0.0,0.0,0.0,0.0,0.0,0.0,0.0,0.0,0.0,0.0,0.0,0.0,0.0,0.0,0.0,0.0,0.0,0.0,0.0,0.0,0.0,0.0,0.0,0.0,0.0,0.0,0.0,0.0,0.0,0.0,0.0,0.0,0.0,0.0,0.0,0.0,0.0,0.0,0.0,0.0,0.0,0.0,0.0,0.0,0.0,0.0,0.0,0.0,0.0,0.0,0.0,0.0,0.0,0.0,0.0,0.0,0.0,0.0,0.0,0.0,0.0,0.0,0.0,0.0,0.0,0.0,0.0,0.0,0.0,0.0,-0.5536,-0.5494,-0.5169,-0.4958,-0.4813,0.0,0.0,0.0,0.0,0.0,0.0,0.0,0.0,0.0,0.0,0.0,0.0,0.0,0.0,0.0,0.0,0.0,0.0,0.0,0.0,0.0,0.0,0.0,0.0,0.0,0.0,0.0,0.0,0.0,0.0,0.0,0.0,0.0,0.0,0.0,0.0,0.0,0.0,0.0,0.0,0.0,0.0,0.0,0.0,0.0,0.0,0.0,0.0,0.0,0.0,0.0,0.0,0.0,0.0,0.0,0.0,0.0,0.0,0.0,0.0,0.0,0.0,0.0,0.0,0.0,0.0,0.0,0.0,0.0,0.0,0.0,0.0,0.0,0.0,0.0,0.0,0.0,0.0,0.0,0.0,0.0,0.0,0.0,0.0,0.0,0.0,0.0,0.0,0.0,0.0,0.0,0.0,0.0,0.0,0.0,0.0,0.0,0.0,0.0,0.0,0.0,0.0,0.0,0.0,0.0,0.0,0.0,0.0,0.0,0.0,0.0,0.0,0.0,0.0,-0.5235,0.0,0.0,0.0,0.0,0.0,0.0,0.0,0.0,0.0,0.0,0.0,0.0,0.0,0.0,0.0,0.0,0.0,0.0,0.0,0.0,0.0,0.0,0.0,0.0,0.0,0.0,0.0,0.0,0.0,0.0,0.0,0.0,0.0,0.0,0.0,0.0,0.0,0.0,0.0,0.0,0.0,0.0,0.0,0.0,0.0,0.0,0.0,0.0,0.0,0.0,0.0,0.0,0.0,0.0,0.0,0.0,0.0,0.0,0.0,0.0,0.0,0.0,0.0,0.0,0.0,0.0,0.0,0.0,0.0,0.0,0.0,0.0,0.0,0.0,0.0,0.0,0.0,0.0,0.0,0.0,0.0,0.0,0.0,0.0,0.0,0.0,0.0,0.0,0.0,0.0,0.0,0.0,0.0,0.0,0.0,0.0,0.0,0.0,0.0,0.0,0.0,0.0,0.0,0.0,0.0,0.0,0.0,0.0,0.0,0.0,0.0,0.0,0.0,0.0,0.0,0.0,0.0,0.0,0.0,0.0,0.0,0.0,0.0,0.0,0.0,0.0,0.0,0.0,0.0,0.0,0.0,0.0,0.0,0.0,0.0,0.0,0.0,0.0,0.0,0.0,0.0,0.0,0.0,0.0,0.0,0.0,0.0,0.0,0.0,0.0,0.0,0.0,0.0,0.0,0.0,0.0,0.0,0.0,0.0,0.0,0.0,0.0,0.0,0.0,0.0,0.0,0.0,0.0,0.0,0.0,0.0,0.0,0.0,0.0,0.0,0.0,0.0,0.0,0.0,0.0,0.0,0.0,0.0,0.0,0.0,0.0,0.0,0.0,0.0,0.0,0.0,0.0,0.0,0.0,0.0,0.0,0.0,0.0,0.0,0.0,0.0,0.0,0.0,0.0,0.0,0.0,0.0,0.0,0.0,0.0,0.0,0.0,0.0,0.0,0.0,0.0,0.0,0.0,0.0,0.0,0.0,0.0,0.0,0.0,0.0,0.0,0.0,0.0,0.0,0.0,0.0,0.0,0.0,0.0,0.0,0.0,0.0,0.0,0.0,0.0,0.0,0.0,0.0,0.0,0.0,0.0,0.0,0.0,0.0,0.0,0.0,0.0,0.0,0.0,0.0,0.0,0.0,0.0,0.0,0.0,0.0,0.0,0.0,0.0,0.0,0.0,0.0,0.0,0.0,0.0,0.0,0.0,0.0,0.0,0.0,0.0,0.0,0.0,0.0,0.0,0.0,0.0,0.0,0.0,0.0,0.0,0.0,0.0,0.0,0.0,0.0,0.0,0.0,0.0,0.0,0.0,0.0,0.0,0.0,0.0,0.0,0.0,0.0,0.0,0.0,0.0,0.0,0.0,0.0,0.0,0.0,0.0,0.0,0.0,0.0,0.0,0.0,0.0,0.0,0.0,0.0,0.0,0.0,0.0,0.0,0.0,0.0,0.0,0.0,0.0,0.0,0.0,0.0,0.0,0.0,0.0,0.0,0.0,0.0,0.0,0.0,0.0,0.0,0.0,0.0,0.0,0.0,0.0,0.0,0.0,0.0,0.0,0.0,0.0,0.0,0.0,0.0,0.0,0.0,0.0,0.0,0.0,0.0,0.0,0.0,0.0,0.0,0.0,0.0,0.0,0.0,0.0,0.0,0.0,0.0,0.0,0.0,0.0,0.0,0.0,0.0,0.0,0.0,0.0,0.0,0.0,0.0,0.0,0.0,0.0,0.0,0.0,0.0,0.0,0.0,0.0,0.0,0.0,0.0,0.0,0.0,0.0,0.0,0.0,0.0,0.0,0.0,0.0,0.0,0.0,0.0,0.0,0.0,0.0,0.0,0.0,0.0,0.0,0.0,0.0,0.0,0.0,0.0,0.0,0.0,0.0,0.0,0.0,0.0,0.0,0.0,0.0,0.0,0.0,0.0,0.0,0.0,0.0,0.0,0.0,0.0,0.0,0.0,0.0,0.0,0.0,0.0,0.0,0.0,0.0,0.0,0.0,0.0,0.0,0.0,0.0,0.0,0.0,0.0,0.0,0.0,0.0,0.0,0.0,0.0,0.0,0.0,0.0,0.0,0.0,0.0,0.0,0.0,0.0,0.0,0.0,0.0,0.0,0.0,0.0,0.0,0.0,0.0,0.0,0.0,0.0,0.0,0.0,0.0,0.0,0.0,0.0,0.0,0.0,0.0,0.0,0.0,0.0,0.0,0.0,0.0,0.0,0.0,0.0,0.0,0.0,0.0,0.0,0.0,0.0,0.0,0.0,0.0,0.0,0.0,0.0,0.0,0.0,0.0,0.0,0.0,0.0,0.0,0.0,0.0,0.0,0.0,0.0,0.0,0.0,0.0,0.0,0.0,0.0,0.0,0.0,0.0,0.0,0.0,0.0,0.0,0.0,0.0,0.0,0.0,0.0,0.0,0.0,0.0,0.0,0.0,0.0,0.0,0.0,0.0,0.0,0.0,0.0,0.0,0.0,0.0,0.0,0.0,0.0,0.0,0.0,0.0,0.0,0.0,0.0,0.0,0.0,0.0,0.0,0.0,0.0,0.0,0.0,0.0,0.0,0.0,0.0,0.0,0.0,0.0,0.0,0.0,0.0,0.0,0.0,0.0,0.0,0.0,0.0,0.0,0.0,0.0,0.0,0.0,0.0,0.0,0.0,0.0,0.0,0.0,0.0,0.0,0.0,0.0,0.0,0.0,0.0,0.0,0.0,0.0,0.0,0.0,0.0,0.0,0.0,0.0,0.0,0.0,0.0,0.0,0.0,0.0,0.0,0.0,0.0,0.0,0.0,0.0,0.0,0.0,0.0,0.0,0.0,0.0,0.0,0.0,0.0,0.0,0.0,0.0,0.0,0.0,0.0,0.0,0.0,0.0,0.0,0.0,0.0,0.0,0.0,0.0,0.0,0.0,0.0,0.0,0.0,0.0,0.0,0.0,0.0,0.0,0.0,0.0,0.0,0.0,0.0,0.0,0.0,0.0,0.0,0.0,0.0,0.0,0.0,0.0,0.0,0.0,0.0,0.0,0.0,0.0,0.0,0.0,0.0,0.0,0.0,0.0,0.0,0.0,0.0,0.0,0.0,0.0,0.0,0.0,0.0,0.0,0.0,0.0,0.0,0.0,0.0,0.0,0.0,0.0,0.0,0.0,0.0,0.0,0.0,0.0,0.0,0.0,0.0,0.0,0.0,0.0,0.0,0.0,0.0,0.0,0.0,0.0,0.0,0.0,0.0,0.0,0.0,0.0,0.0,0.0,0.0,0.0,0.0,0.0,0.0,0.0,0.0,0.0,0.0,0.0,0.0,0.0,0.0,0.0,0.0,0.0,0.0,0.0,0.0,0.0,0.0,0.0,0.0,0.0,0.0,0.0,0.0,0.0,0.0,0.0,0.0,0.0,0.0,0.0,0.0,0.0,0.0,0.0,0.0,0.0,0.0,0.0,0.0,0.0,0.0,0.0,0.0,0.0,0.0,0.0,0.0,0.0,0.0,0.0,0.0,0.0,0.0,0.0,0.0,0.0,0.0,0.0,0.0,0.0,0.0,0.0,0.0,0.0,0.0,0.0,0.0,0.0,0.0,0.0,0.0,0.0,0.0,0.0,0.0,0.0,0.0,0.0,0.0,0.0,0.0,0.0,0.0,0.0,0.0,0.0,0.0,0.0,0.0,0.0,0.0,0.0,0.0,0.0,0.0,0.0,0.0,0.0,0.0,0.0,0.0,0.0,0.0,0.0,0.0,0.0,0.0,0.0,0.0,0.0,0.0,0.0,0.0,0.0,0.0,0.0,0.0,0.0,0.0,0.0,0.0,0.0,0.0,0.0,0.0,0.0,0.0,0.0,0.0,0.0,0.0,0.0,0.0,0.0,0.0,0.0,0.0,0.0,0.0,0.0,0.0,0.0,0.0,0.0,0.0,0.0,0.0,0.0,0.0,0.0,0.0,0.0,0.0,0.0,0.0,0.0,0.0,0.0,0.0,0.0,0.0,0.0,0.0,0.0,0.0,0.0,0.0,0.0,0.0,0.0,0.0,0.0,0.0,0.0,0.0,0.0,0.0,0.0,0.0,0.0,0.0,0.0,0.0,0.0,0.0,0.0,0.0,0.0,0.0,0.0,0.0,0.0,0.0,0.0,0.0,0.0,0.0,0.0,0.0,0.0,0.0,0.0,0.0,0.0,0.0,0.0,0.0,0.0,0.0,0.0,0.0,0.0,0.0,0.0,0.0,0.0,0.0,0.0,0.0,0.0,0.0,0.0,0.0,0.0,0.0,0.0,0.0,0.0,0.0,0.0,0.0,0.0,0.0,0.0,0.0,0.0,0.0,0.0,0.0,0.0,0.0,0.0,0.0,0.0,0.0,0.0,0.0]}],[{"header":{"parameterUnit":"kt","parameterCategory":2,"dx":1,"dy":1,"la1":29.587661999999998,"la2":31.0,"lo1":-88.76705300000003,"lo2":-86.6583820000003,"nx":115,"ny":88,"refTime":"2022-10-16T06:00:00:Z","depth":0,"parameterNumber":2,"parameterNumberName":"V-component_of_WINDS"},"data":[-5.5268,-5.4693,-5.4241,-5.5528,-5.7578,-5.7422,-5.8549,-6.0503,-6.0345,-5.999,-5.9675,-5.9387,-5.9467,-6.0035,-5.9274,-5.8899,-5.8702,-5.8062,-5.7688,-5.7547,-5.7167,-5.6636,-5.6185,-5.5912,-5.5451,-5.4825,-5.4088,-5.3601,-5.3177,-5.3078,-5.2679,-5.197,-5.1532,-5.1353,-5.1069,-5.0517,-5.0199,-4.9986,-4.9638,-4.9234,-4.9125,-4.9234,-4.9315,-4.9125,-4.8742,-4.8738,-4.8878,-4.9311,-4.9468,-4.9944,-5.0666,-5.0829,-4.9487,-4.7076,-4.5646,-4.5234,-4.5467,-4.5583,-4.5583,-4.5467,-4.5351,-4.5351,-4.5234,-4.4884,-4.5001,-4.5118,-4.5283,-4.5259,-4.5326,-4.5351,-4.5093,-4.5118,-4.5118,-4.5118,-4.5234,-4.4766,-4.4531,-4.4649,-4.4649,-4.4766,-4.4649,-4.3701,-4.2642,-4.252,-4.2642,-4.2422,-4.2392,-4.216,-4.2295,-4.21,-4.2002,-4.2464,-4.2907,-4.2799,-4.2562,-4.3076,-4.3379,-4.3191,-4.2986,-4.2843,-4.2838,-4.2772,-4.2362,-4.1845,-4.2471,-4.338,-4.3748,-4.3482,-4.4377,-4.5364,-4.5947,-4.6155,-4.5837,-4.5498,-4.531,-5.6059,-5.5715,-5.5166,-5.6458,-5.8607,-5.8231,-5.9538,-6.1728,-6.1385,-6.1016,-6.1016,-6.0941,-6.0974,-6.0791,-6.0113,-5.9879,-5.9515,-5.8949,-5.865,-5.8368,-5.803,-5.7602,-5.7285,-5.711,-5.6456,-5.5759,-5.5138,-5.4635,-5.4155,-5.3991,-5.363,-5.3136,-5.2736,-5.2534,-5.2129,-5.1691,-5.1222,-5.1014,-5.0595,-5.0199,-5.0199,-5.0227,-5.0227,-5.0013,-4.9881,-5.0067,-5.0752,-5.1289,-5.1691,-5.2271,-5.2833,-5.2659,-5.106,-4.8058,-4.6686,-4.5814,-4.6045,-4.616,-4.602,-4.6045,-4.593,-4.5814,-4.5814,-4.5699,-4.5724,-4.598,-4.631,-4.64,-4.6554,-4.6414,-4.593,-4.5699,-4.5699,-4.5699,-4.5699,-4.5558,-4.5467,-4.5492,-4.5467,-4.5558,-4.521,-4.4624,-4.4058,-4.3844,-4.3725,-4.3365,-4.3172,-4.2856,-4.2652,-4.2547,-4.2443,-4.269,-4.3248,-4.2921,-4.257,-4.2986,-4.3224,-4.314,-4.3437,-4.3397,-4.3403,-4.3444,-4.3189,-4.2294,-4.1975,-4.2913,-4.3199,-4.3881,-4.496,-4.5999,-4.6432,-4.6678,-4.6342,-4.6174,-4.6005,-5.6646,-5.6448,-5.6743,-5.7892,-5.9432,-6.0009,-6.1225,-6.2616,-6.2277,-6.2138,-6.238,-6.2031,-6.189,-6.1747,-6.0983,-6.0607,-6.0454,-5.9865,-5.9548,-5.9274,-5.903,-5.8567,-5.8316,-5.8062,-5.7373,-5.6845,-5.6306,-5.5851,-5.5231,-5.4949,-5.4503,-5.402,-5.3796,-5.3502,-5.3007,-5.2607,-5.2174,-5.2044,-5.1457,-5.1353,-5.1663,-5.1616,-5.1409,-5.0937,-5.0893,-5.1123,-5.1861,-5.255,-5.3155,-5.4006,-5.4689,-5.4408,-5.3416,-4.9455,-4.7201,-4.6617,-4.6757,-4.6958,-4.6933,-4.6794,-4.6655,-4.6592,-4.6478,-4.645,-4.645,-4.8572,-4.9001,-4.8232,-4.8271,-4.687,-4.6414,-4.65,-4.6551,-4.631,-4.626,-4.607,-4.593,-4.5814,-4.593,-4.602,-4.5674,-4.5093,-4.4766,-4.4555,-4.4319,-4.4058,-4.3844,-4.3532,-4.3172,-4.3018,-4.2988,-4.3143,-4.3551,-4.3528,-4.2865,-4.2854,-4.3069,-4.3634,-4.3959,-4.4029,-4.4222,-4.4354,-4.4297,-4.3483,-4.3189,-4.3274,-4.3484,-4.4301,-4.523,-4.6419,-4.6962,-4.7161,-4.7033,-4.6698,-4.7181,-5.8339,-5.8205,-5.8952,-5.9823,-6.0792,-6.1712,-6.2611,-6.3504,-6.3182,-6.3312,-6.341,-6.2922,-6.2619,-6.2517,-6.1818,-6.1458,-6.1312,-6.0791,-6.0378,-6.0223,-5.9865,-5.9387,-5.9062,-5.8899,-5.84,-5.7891,-5.7547,-5.7079,-5.6306,-5.5789,-5.5418,-5.4854,-5.4664,-5.4377,-5.3894,-5.3502,-5.3206,-5.3007,-5.2679,-5.275,-5.2908,-5.2764,-5.2462,-5.1998,-5.1756,-5.2134,-5.3286,-5.3948,-5.4593,-5.5668,-5.6271,-5.6648,-5.6825,-5.1522,-4.8512,-4.7502,-4.7831,-4.8005,-4.7901,-4.7496,-4.7246,-4.7159,-4.7378,-4.7226,-4.8206,-5.0734,-5.1672,-5.0666,-4.9554,-4.7965,-4.6833,-4.7162,-4.7224,-4.6907,-4.6616,-4.6375,-4.616,-4.616,-4.616,-4.616,-4.616,-4.5814,-4.5234,-4.5001,-4.4884,-4.4649,-4.4555,-4.4176,-4.382,-4.3701,-4.3747,-4.3867,-4.4177,-4.389,-4.3134,-4.2921,-4.3176,-4.3518,-4.4119,-4.464,-4.5001,-4.537,-4.5596,-4.4876,-4.4318,-4.4172,-4.4339,-4.4847,-4.5781,-4.7041,-4.7672,-4.8078,-4.7848,-4.7701,-4.818,-6.2232,-6.182,-6.1871,-6.2224,-6.2974,-6.2842,-6.3355,-6.4244,-6.4422,-6.4422,-6.4158,-6.3538,-6.3316,-6.3151,-6.2585,-6.231,-6.2031,-6.1531,-6.1165,-6.109,-6.0563,-6.0146,-5.9833,-5.9627,-5.9144,-5.8848,-5.8432,-5.8062,-5.7254,-5.6577,-5.6125,-5.5667,-5.5604,-5.5231,-5.476,-5.4473,-5.4252,-5.4088,-5.4059,-5.3932,-5.3923,-5.3531,-5.3036,-5.2836,-5.2933,-5.3335,-5.4796,-5.5591,-5.5979,-5.7331,-5.8062,-5.7943,-5.6887,-5.3789,-5.0538,-4.9243,-4.9445,-4.9375,-4.9061,-4.8653,-4.8273,-4.8367,-4.859,-4.912,-5.0568,-5.279,-5.3731,-5.3171,-5.0382,-4.8464,-4.8285,-4.8475,-4.8654,-4.8578,-4.7926,-4.7378,-4.7035,-4.6858,-4.6807,-4.6731,-4.6731,-4.6389,-4.593,-4.5467,-4.5326,-4.5467,-4.5351,-4.4976,-4.4742,-4.4742,-4.4791,-4.4791,-4.4791,-4.4603,-4.3794,-4.3325,-4.341,-4.3673,-4.4189,-4.4875,-4.5616,-4.6099,-4.6647,-4.6047,-4.5373,-4.5229,-4.5217,-4.5781,-4.6607,-4.7682,-4.8365,-4.8799,-4.882,-4.882,-4.917,-6.3057,-6.2852,-6.2635,-6.3194,-6.4163,-6.4611,-6.4986,-6.5273,-6.5361,-6.5142,-6.484,-6.4219,-6.3914,-6.3852,-6.3282,-6.2988,-6.2922,-6.2241,-6.1923,-6.1747,-6.1312,-6.0908,-6.064,-6.0333,-5.9944,-5.9548,-5.9225,-5.8899,-5.8147,-5.746,-5.6933,-5.6756,-5.6518,-5.6155,-5.5759,-5.5388,-5.5265,-5.5295,-5.5231,-5.5138,-5.4884,-5.4503,-5.4117,-5.3971,-5.446,-5.5153,-5.6253,-5.7121,-5.7867,-5.8964,-5.8804,-5.8831,-5.8875,-5.7199,-5.4366,-5.1642,-5.1651,-5.1358,-5.0952,-5.0505,-5.0407,-5.0502,-5.0466,-5.1443,-5.319,-5.4355,-5.4792,-5.4902,-5.1707,-4.9492,-4.9816,-4.9996,-5.0125,-5.0346,-4.9429,-4.8515,-4.8104,-4.7795,-4.7615,-4.7487,-4.7297,-4.6958,-4.6617,-4.6135,-4.5905,-4.6045,-4.593,-4.5674,-4.5558,-4.5558,-4.5558,-4.5442,-4.5326,-4.521,-4.4531,-4.4106,-4.4094,-4.4333,-4.471,-4.53,-4.6162,-4.6722,-4.6908,-4.669,-4.6453,-4.6376,-4.6212,-4.6751,-4.7282,-4.8186,-4.8964,-4.9652,-4.9989,-4.9826,-4.9642,-6.4839,-6.4728,-6.4427,-6.4837,-6.5659,-6.6332,-6.6485,-6.6247,-6.5987,-6.5732,-6.5504,-6.4897,-6.4609,-6.4492,-6.3914,-6.3636,-6.3316,-6.2988,-6.2687,-6.2344,-6.189,-6.1709,-6.1418,-6.1016,-6.064,-6.0301,-6.0022,-5.9627,-5.8981,-5.8599,-5.8178,-5.7665,-5.7317,-5.6964,-5.6666,-5.6456,-5.6456,-5.6366,-5.6185,-5.5942,-5.5604,-5.5231,-5.5044,-5.502,-5.5528,-5.6495,-5.7486,-5.833,-5.9133,-5.9971,-5.9739,-5.9651,-6.0515,-5.9595,-5.8143,-5.4968,-5.405,-5.3752,-5.3278,-5.2851,-5.2369,-5.2004,-5.2812,-5.4229,-5.5253,-5.5784,-5.5686,-5.5179,-5.3391,-5.2617,-5.2643,-5.2131,-5.1845,-5.1439,-5.0646,-4.97,-4.881,-4.845,-4.8099,-4.7944,-4.7969,-4.7634,-4.687,-4.6389,-4.6364,-4.6617,-4.6617,-4.6503,-4.6389,-4.6275,-4.616,-4.616,-4.6045,-4.5814,-4.5234,-4.4531,-4.4703,-4.4916,-4.527,-4.5638,-4.6172,-4.655,-4.7044,-4.7204,-4.7356,-4.7323,-4.7368,-4.7629,-4.7994,-4.876,-4.9816,-5.0556,-5.1148,-5.064,-5.0478,-6.85,-6.844,-6.8201,-6.7816,-6.7708,-6.7671,-6.7357,-6.6841,-6.6427,-6.6185,-6.6037,-6.5504,-6.5178,-6.4989,-6.4551,-6.4193,-6.3887,-6.3573,-6.3285,-6.2923,-6.2551,-6.2275,-6.196,-6.1603,-6.1279,-6.109,-6.0748,-6.0333,-5.9879,-5.9548,-5.9176,-5.8682,-5.8094,-5.7751,-5.7633,-5.7602,-5.7516,-5.7342,-5.711,-5.6786,-5.6427,-5.6064,-5.588,-5.6264,-5.6813,-5.7801,-5.8744,-5.9642,-6.0415,-6.0755,-6.0912,-6.0714,-6.06,-6.0572,-5.9651,-5.8357,-5.671,-5.5624,-5.4763,-5.4308,-5.3826,-5.4231,-5.53,-5.5973,-5.6537,-5.6564,-5.6193,-5.558,-5.4995,-5.5022,-5.5022,-5.4214,-5.3435,-5.279,-5.2069,-5.1038,-5.0037,-4.9285,-4.8905,-4.8497,-4.8491,-4.808,-4.7323,-4.7097,-4.6933,-4.7184,-4.7297,-4.7184,-4.7271,-4.7071,-4.6845,-4.6845,-4.6731,-4.6503,-4.5814,-4.5001,-4.4988,-4.5227,-4.5569,-4.569,-4.5907,-4.6192,-4.7422,-4.8291,-4.8259,-4.8278,-4.8344,-4.8603,-4.8926,-4.9871,-5.1014,-5.1788,-5.2091,-5.161,-5.161,-6.901,-6.8844,-6.8589,-6.834,-6.8103,-6.8208,-6.8036,-6.7628,-6.706,-6.666,-6.6427,-6.6037,-6.568,-6.545,-6.5158,-6.4876,-6.4562,-6.4228,-6.3859,-6.3607,-6.3186,-6.2889,-6.2619,-6.2309,-6.196,-6.1642,-6.1312,-6.1016,-6.0683,-6.0443,-6.0022,-5.9467,-5.8899,-5.8765,-5.8733,-5.865,-5.8484,-5.8232,-5.7891,-5.7578,-5.7229,-5.715,-5.7128,-5.7805,-5.868,-5.9496,-6.062,-6.1375,-6.202,-6.1821,-6.1696,-6.1473,-6.1391,-6.1137,-6.0315,-5.9535,-5.8502,-5.8077,-5.7199,-5.6683,-5.64,-5.6456,-5.6887,-5.7488,-5.7664,-5.73,-5.6687,-5.6068,-5.5542,-5.5489,-5.541,-5.566,-5.5033,-5.4821,-5.3785,-5.2534,-5.1562,-5.0522,-4.9977,-4.9165,-4.8851,-4.8412,-4.7746,-4.7746,-4.7608,-4.7746,-4.7969,-4.808,-4.8165,-4.7857,-4.7522,-4.7522,-4.741,-4.7071,-4.6503,-4.5699,-4.5467,-4.5583,-4.564,-4.5837,-4.6039,-4.6976,-4.8322,-4.9357,-4.9354,-4.9342,-4.9462,-4.9592,-5.001,-5.0864,-5.2125,-5.2868,-5.2935,-5.3205,-5.3408,-6.9273,-6.9095,-6.8817,-6.8648,-6.8485,-6.8492,-6.841,-6.8143,-6.763,-6.7229,-6.6921,-6.6521,-6.6149,-6.5936,-6.5627,-6.5342,-6.5081,-6.4761,-6.4373,-6.4071,-6.3824,-6.3543,-6.3254,-6.2889,-6.2585,-6.2241,-6.196,-6.1675,-6.1385,-6.1049,-6.064,-6.0223,-5.9865,-5.9819,-5.9865,-5.9548,-5.9257,-5.9013,-5.8682,-5.8463,-5.8188,-5.8371,-5.8703,-5.9185,-6.0545,-6.1547,-6.2137,-6.2903,-6.3116,-6.2946,-6.2436,-6.2356,-6.2604,-6.1946,-6.1025,-6.0114,-6.0085,-5.9883,-5.9507,-5.9245,-5.9011,-5.872,-5.8567,-5.8357,-5.8412,-5.8053,-5.7327,-5.6591,-5.6193,-5.5944,-5.5944,-5.6068,-5.6015,-5.5829,-5.5483,-5.407,-5.2772,-5.1837,-5.0805,-5.0009,-4.9504,-4.9152,-4.8715,-4.8715,-4.8606,-4.8606,-4.8768,-4.8987,-4.8851,-4.8522,-4.8191,-4.8191,-4.808,-4.7746,-4.7297,-4.6503,-4.616,-4.616,-4.616,-4.6135,-4.7036,-4.8137,-4.9338,-5.0351,-5.0396,-5.0501,-5.0533,-5.0688,-5.1119,-5.2025,-5.3597,-5.4614,-5.444,-5.4486,-5.4666,-6.9503,-6.939,-6.9136,-6.9023,-6.8986,-6.8844,-6.8656,-6.8373,-6.8248,-6.7892,-6.7348,-6.7016,-6.666,-6.6331,-6.61,-6.5783,-6.545,-6.5323,-6.4954,-6.4551,-6.4314,-6.4106,-6.3797,-6.3479,-6.3186,-6.2923,-6.2585,-6.2169,-6.1885,-6.1564,-6.1238,-6.0866,-6.0715,-6.0748,-6.0758,-6.0191,-5.9833,-5.966,-5.9338,-5.9013,-5.9052,-5.9775,-6.0033,-6.0751,-6.2108,-6.3194,-6.3548,-6.4123,-6.4138,-6.372,-6.319,-6.322,-6.3493,-6.2712,-6.1725,-6.0714,-6.1025,-6.0996,-6.0828,-6.0799,-6.0315,-5.9739,-5.9302,-5.9067,-5.8769,-5.8531,-5.8173,-5.7205,-5.681,-5.6687,-5.6564,-5.6564,-5.6564,-5.651,-5.636,-5.5435,-5.3911,-5.2717,-5.1571,-5.0497,-5.0367,-5.0227,-4.9799,-4.9585,-4.9369,-4.9504,-4.9665,-4.9665,-4.9557,-4.9314,-4.8987,-4.8878,-4.8904,-4.8548,-4.7969,-4.7297,-4.687,-4.687,-4.687,-4.6845,-4.7505,-4.8928,-5.0065,-5.1122,-5.1419,-5.1419,-5.1601,-5.1626,-5.2428,-5.3232,-5.5043,-5.5787,-5.5788,-5.5729,-5.542,-6.9641,-6.9503,-6.9332,-6.9306,-6.9252,-6.9119,-6.896,-6.8722,-6.8573,-6.8177,-6.7552,-6.7348,-6.7053,-6.6705,-6.6474,-6.6185,-6.5886,-6.5627,-6.5307,-6.5067,-6.4783,-6.4527,-6.4228,-6.3887,-6.3671,-6.3449,-6.3057,-6.2755,-6.255,-6.2135,-6.1747,-6.1636,-6.1564,-6.1564,-6.1385,-6.0908,-6.0498,-6.0378,-6.0101,-5.9819,-5.9774,-6.0806,-6.1467,-6.2471,-6.3635,-6.4681,-6.5111,-6.5023,-6.5023,-6.448,-6.4169,-6.3991,-6.3675,-6.3327,-6.2574,-6.2167,-6.1946,-6.1917,-6.1696,-6.1696,-6.1666,-6.077,-6.0085,-5.9767,-5.968,-5.9447,-5.8741,-5.7784,-5.7421,-5.73,-5.7178,-5.7055,-5.7055,-5.6933,-5.6906,-5.6298,-5.4815,-5.3609,-5.2366,-5.1288,-5.0746,-5.0439,-5.012,-4.9934,-5.0041,-5.036,-5.0493,-5.0493,-5.0281,-5.0068,-4.9719,-4.9665,-4.9692,-4.9096,-4.8522,-4.7969,-4.7522,-4.7522,-4.7522,-4.7522,-4.8089,-4.9764,-5.1079,-5.1788,-5.2217,-5.2374,-5.2505,-5.2374,-5.332,-5.4458,-5.5201,-5.5884,-5.6046,-5.6778,-5.632,-6.9768,-6.9656,-6.9576,-6.9541,-6.9448,-6.9332,-6.9156,-6.896,-6.8846,-6.8473,-6.7999,-6.7668,-6.743,-6.7181,-6.6885,-6.6614,-6.6415,-6.6136,-6.5835,-6.561,-6.5323,-6.5046,-6.4703,-6.4408,-6.4141,-6.3797,-6.3514,-6.3289,-6.3058,-6.2585,-6.2378,-6.2309,-6.2378,-6.2239,-6.1994,-6.157,-6.1205,-6.0983,-6.0683,-6.0804,-6.1119,-6.2335,-6.3375,-6.4416,-6.5539,-6.6324,-6.6484,-6.6157,-6.5826,-6.5326,-6.4921,-6.4716,-6.448,-6.375,-6.322,-6.2958,-6.279,-6.2653,-6.2327,-6.2436,-6.2544,-6.1748,-6.0854,-6.0229,-6.0171,-6.0056,-5.933,-5.8504,-5.7933,-5.7421,-5.7543,-5.7515,-5.7394,-5.7394,-5.7028,-5.6445,-5.5441,-5.4451,-5.3337,-5.2382,-5.1614,-5.0975,-5.0681,-5.0521,-5.0887,-5.1305,-5.1305,-5.1305,-5.0992,-5.0755,-5.0466,-5.0387,-5.0387,-5.0041,-4.926,-4.8715,-4.8191,-4.808,-4.808,-4.8054,-4.8236,-5.0061,-5.1733,-5.2332,-5.29,-5.3161,-5.3292,-5.3136,-5.3645,-5.4908,-5.5594,-5.6262,-5.7008,-5.7715,-5.7233,-6.9905,-6.978,-6.978,-6.9753,-6.9573,-6.9486,-6.9332,-6.9179,-6.9086,-6.8836,-6.8542,-6.814,-6.7818,-6.7586,-6.7307,-6.7096,-6.6877,-6.6614,-6.6331,-6.6087,-6.587,-6.554,-6.5158,-6.4911,-6.4621,-6.4167,-6.3859,-6.3514,-6.3189,-6.3057,-6.3024,-6.3024,-6.2923,-6.2721,-6.2413,-6.2205,-6.189,-6.1531,-6.1604,-6.201,-6.2893,-6.4256,-6.5216,-6.6442,-6.728,-6.7784,-6.7527,-6.7056,-6.6577,-6.6286,-6.5695,-6.5295,-6.5295,-6.4583,-6.3886,-6.3705,-6.3539,-6.3403,-6.3297,-6.319,-6.3083,-6.2731,-6.1968,-6.122,-6.097,-6.0629,-6.0142,-5.9302,-5.8265,-5.7784,-5.7784,-5.785,-5.7943,-5.785,-5.7675,-5.7116,-5.6578,-5.5432,-5.4418,-5.3509,-5.2676,-5.219,-5.1806,-5.152,-5.1719,-5.2027,-5.2129,-5.2027,-5.1691,-5.1512,-5.1305,-5.1097,-5.1097,-5.0755,-5.012,-4.9477,-4.9043,-4.8851,-4.8742,-4.8742,-4.8821,-5.046,-5.2372,-5.304,-5.3681,-5.4069,-5.4223,-5.4068,-5.442,-5.537,-5.6398,-5.7274,-5.813,-5.8511,-5.7987,-6.995,-6.9933,-6.9934,-6.9865,-6.973,-6.9596,-6.9466,-6.9332,-6.9202,-6.9048,-6.8836,-6.8535,-6.814,-6.7818,-6.7626,-6.7426,-6.7102,-6.6885,-6.6614,-6.6379,-6.6172,-6.587,-6.5557,-6.5213,-6.4968,-6.4644,-6.4288,-6.3921,-6.3734,-6.3671,-6.3642,-6.3548,-6.335,-6.3089,-6.2856,-6.2721,-6.2516,-6.2236,-6.283,-6.3349,-6.4203,-6.5972,-6.6912,-6.7553,-6.8085,-6.8673,-6.8362,-6.7838,-6.734,-6.6961,-6.6384,-6.6286,-6.6384,-6.5496,-6.4644,-6.4126,-6.4407,-6.4376,-6.4273,-6.4065,-6.375,-6.319,-6.2544,-6.2217,-6.1807,-6.1725,-6.1279,-5.9767,-5.8741,-5.8412,-5.8265,-5.8301,-5.842,-5.8357,-5.8293,-5.8127,-5.783,-5.6694,-5.5558,-5.4894,-5.4387,-5.3564,-5.2637,-5.2474,-5.2534,-5.2764,-5.2764,-5.2736,-5.2534,-5.236,-5.2157,-5.1822,-5.1822,-5.1794,-5.086,-5.0041,-4.9827,-4.9504,-4.9422,-4.9421,-4.9715,-5.1065,-5.2852,-5.3731,-5.4299,-5.4581,-5.4963,-5.4943,-5.5074,-5.6063,-5.7195,-5.8175,-5.9098,-5.9269,-5.9006,-7.0004,-7.0008,-7.0014,-6.9951,-6.9838,-6.973,-6.9596,-6.9466,-6.9352,-6.9202,-6.9086,-6.8836,-6.8573,-6.8211,-6.7855,-6.7628,-6.747,-6.7181,-6.6929,-6.6796,-6.6427,-6.61,-6.5886,-6.5557,-6.5233,-6.4954,-6.4644,-6.4349,-6.4383,-6.4323,-6.4141,-6.3894,-6.3636,-6.3445,-6.3154,-6.3089,-6.299,-6.3027,-6.3433,-6.4201,-6.5466,-6.7165,-6.8539,-6.8868,-6.9312,-6.9244,-6.8925,-6.8478,-6.8082,-6.7621,-6.756,-6.7466,-6.734,-6.6286,-6.5225,-6.4644,-6.5124,-6.5326,-6.5194,-6.4819,-6.4376,-6.3825,-6.3403,-6.2976,-6.2604,-6.2276,-6.1502,-6.0343,-5.9447,-5.9005,-5.8949,-5.8955,-5.8865,-5.8657,-5.8448,-5.8483,-5.8261,-5.7487,-5.7016,-5.6543,-5.5923,-5.4509,-5.3323,-5.3108,-5.3136,-5.3433,-5.3433,-5.3433,-5.3363,-5.3164,-5.2965,-5.2664,-5.2635,-5.2607,-5.1588,-5.0677,-5.0466,-5.0254,-5.0174,-5.0069,-5.0502,-5.1575,-5.3209,-5.424,-5.4703,-5.509,-5.5443,-5.5684,-5.5902,-5.6811,-5.7947,-5.8979,-5.9886,-6.0131,-5.9718,-6.9935,-6.996,-6.9968,-7.0009,-6.998,-6.9838,-6.9692,-6.9611,-6.9486,-6.9352,-6.924,-6.9048,-6.8874,-6.8573,-6.8177,-6.7929,-6.7743,-6.747,-6.7266,-6.706,-6.6751,-6.6521,-6.6283,-6.5936,-6.5663,-6.5288,-6.5046,-6.4968,-6.4968,-6.4831,-6.4503,-6.4167,-6.4045,-6.3859,-6.3543,-6.3543,-6.3415,-6.3254,-6.3125,-6.4356,-6.6658,-6.8422,-6.9685,-7.0189,-7.0283,-6.9898,-6.9471,-6.9123,-6.8803,-6.8445,-6.8568,-6.869,-6.8329,-6.6674,-6.5894,-6.5795,-6.6122,-6.6286,-6.5894,-6.5427,-6.4921,-6.451,-6.4065,-6.3509,-6.3113,-6.2712,-6.2167,-6.1391,-6.0229,-5.968,-5.9651,-5.9597,-5.9394,-5.9217,-5.9011,-5.9039,-5.8983,-5.8485,-5.8544,-5.8065,-5.8175,-5.6516,-5.3855,-5.3793,-5.3826,-5.402,-5.4244,-5.4244,-5.4244,-5.3952,-5.3728,-5.3433,-5.3334,-5.3007,-5.2202,-5.1616,-5.1201,-5.0992,-5.0755,-5.0677,-5.134,-5.2216,-5.3772,-5.4865,-5.5022,-5.5343,-5.572,-5.6143,-5.6629,-5.7285,-5.7984,-5.919,-6.0614,-6.0541,-6.0404,-6.9831,-6.9824,-6.9925,-7.0007,-6.9971,-6.9951,-6.9876,-6.973,-6.9611,-6.9483,-6.9352,-6.9202,-6.9074,-6.8901,-6.8603,-6.8211,-6.7852,-6.7818,-6.755,-6.7307,-6.7096,-6.6877,-6.6521,-6.6234,-6.6023,-6.5663,-6.5397,-6.5342,-6.5378,-6.5137,-6.4853,-6.4621,-6.4408,-6.4167,-6.3983,-6.3921,-6.3768,-6.3642,-6.3518,-6.4865,-6.7645,-6.9935,-7.142,-7.1286,-7.0942,-7.0615,-7.0233,-6.9898,-6.9471,-6.9244,-6.9331,-6.9364,-6.8568,-6.7434,-6.677,-6.677,-6.7056,-6.677,-6.6384,-6.5992,-6.5558,-6.4952,-6.4613,-6.423,-6.3811,-6.3493,-6.2958,-6.1532,-6.0629,-6.0286,-6.0142,-6.0257,-6.0171,-5.9999,-5.9739,-5.9711,-5.9654,-5.9713,-5.9599,-6.0028,-6.0311,-5.8388,-5.5026,-5.4391,-5.4382,-5.4643,-5.4747,-5.4747,-5.4849,-5.4628,-5.4532,-5.4244,-5.3952,-5.3531,-5.3007,-5.2332,-5.1998,-5.1878,-5.1596,-5.1444,-5.2201,-5.3233,-5.4498,-5.6054,-5.5988,-5.5819,-5.6095,-5.6459,-5.72,-5.7811,-5.8307,-5.9239,-6.073,-6.1221,-6.0985,-6.9717,-6.9744,-6.9852,-6.9927,-6.9969,-7.0014,-6.9905,-6.9778,-6.973,-6.9596,-6.9486,-6.9352,-6.924,-6.9074,-6.8891,-6.8542,-6.8147,-6.8002,-6.7743,-6.755,-6.7307,-6.7096,-6.6921,-6.6521,-6.6283,-6.6087,-6.5936,-6.5835,-6.5715,-6.5397,-6.5193,-6.5003,-6.4853,-6.4621,-6.4443,-6.4323,-6.4263,-6.4045,-6.4032,-6.5285,-6.8331,-6.9267,-7.087,-7.1352,-7.1545,-7.1229,-7.0888,-7.0481,-7.0099,-6.9846,-6.9931,-6.9676,-6.9156,-6.8413,-6.7806,-6.7838,-6.7653,-6.7434,-6.7151,-6.6478,-6.6086,-6.5558,-6.5124,-6.4716,-6.4468,-6.426,-6.3811,-6.2604,-6.1754,-6.0772,-6.0515,-6.0656,-6.0656,-6.0486,-6.0257,-6.0286,-6.0286,-6.0257,-6.0572,-6.122,-6.124,-5.9655,-5.6348,-5.5184,-5.5124,-5.5109,-5.5212,-5.5282,-5.5351,-5.5227,-5.5257,-5.4974,-5.4687,-5.4273,-5.363,-5.3235,-5.2908,-5.2734,-5.2644,-5.245,-5.3199,-5.5256,-5.6531,-5.6961,-5.6825,-5.6564,-5.6822,-5.7101,-5.7931,-5.8733,-5.9419,-6.0258,-6.1372,-6.1704,-6.1417,-6.9639,-6.9755,-6.9761,-6.9857,-6.9962,-7.0004,-6.9923,-6.984,-6.9789,-6.9718,-6.9641,-6.9468,-6.9352,-6.9224,-6.9098,-6.8846,-6.8479,-6.8143,-6.7929,-6.7781,-6.7513,-6.7307,-6.7139,-6.6877,-6.666,-6.6614,-6.6474,-6.6234,-6.5936,-6.5767,-6.5593,-6.5319,-6.5193,-6.5081,-6.4911,-6.4773,-6.468,-6.4527,-6.4418,-6.5517,-6.7684,-6.8809,-6.982,-7.2081,-7.2091,-7.1787,-7.1365,-7.0968,-7.0678,-7.0499,-7.03,-7.0183,-7.0015,-6.9364,-6.8747,-6.851,-6.8264,-6.799,-6.7685,-6.696,-6.6573,-6.6153,-6.5695,-6.5225,-6.4921,-6.4819,-6.4613,-6.375,-6.2682,-6.142,-6.0885,-6.1137,-6.1137,-6.0941,-6.0714,-6.0743,-6.0856,-6.097,-6.1308,-6.2057,-6.1931,-6.1142,-5.8685,-5.6948,-5.6708,-5.658,-5.6466,-5.6415,-5.5903,-5.5725,-5.5725,-5.5662,-5.5411,-5.4878,-5.434,-5.3991,-5.3903,-5.3768,-5.3912,-5.3823,-5.5766,-5.7639,-5.7893,-5.7565,-5.7394,-5.73,-5.7516,-5.796,-5.8953,-6.0406,-6.1098,-6.1519,-6.2037,-6.2274,-6.1989,-6.9512,-6.9604,-6.9762,-6.9852,-6.995,-7.0008,-6.9962,-6.9928,-6.9849,-6.9767,-6.9718,-6.9603,-6.9486,-6.9372,-6.9236,-6.9095,-6.8864,-6.8504,-6.814,-6.7929,-6.7744,-6.7513,-6.7348,-6.7181,-6.706,-6.706,-6.6841,-6.6531,-6.6295,-6.6172,-6.5886,-6.5767,-6.5557,-6.5432,-6.5378,-6.5213,-6.5046,-6.4989,-6.4853,-6.5756,-6.7179,-6.8421,-7.0048,-7.2002,-7.2339,-7.211,-7.1906,-7.171,-7.1399,-7.0955,-7.1069,-7.1069,-7.0908,-7.0266,-6.9537,-6.8723,-6.8803,-6.8625,-6.8023,-6.7626,-6.7088,-6.6318,-6.609,-6.5894,-6.5496,-6.5326,-6.5326,-6.4685,-6.3825,-6.2465,-6.1976,-6.2057,-6.1946,-6.1836,-6.1614,-6.1614,-6.1865,-6.1976,-6.2167,-6.282,-6.2779,-6.2015,-6.0181,-5.8548,-5.8215,-5.7933,-5.7696,-5.7336,-5.6487,-5.6002,-5.5972,-5.588,-5.591,-5.5479,-5.5168,-5.4854,-5.4879,-5.4917,-5.5418,-5.6699,-5.8879,-5.9486,-5.9368,-5.8685,-5.7933,-5.7933,-5.8086,-5.8838,-6.0332,-6.2148,-6.2843,-6.2518,-6.2535,-6.2593,-6.2531,-6.9392,-6.9581,-6.9642,-6.9735,-6.9859,-6.9954,-7.0009,-6.9954,-6.989,-6.9859,-6.9793,-6.9615,-6.9565,-6.9486,-6.9298,-6.9118,-6.8974,-6.8771,-6.8504,-6.8174,-6.7892,-6.7781,-6.7589,-6.755,-6.743,-6.7224,-6.7053,-6.6812,-6.6633,-6.6438,-6.6247,-6.6078,-6.5936,-6.5819,-6.5715,-6.561,-6.5504,-6.5432,-6.5323,-6.5956,-6.7093,-6.7998,-6.9337,-7.0699,-7.1482,-7.2031,-7.2366,-7.2173,-7.1795,-7.1225,-7.0178,-6.9441,-6.9395,-6.9739,-6.9713,-6.9331,-6.9351,-6.8937,-6.8535,-6.8087,-6.7624,-6.7183,-6.6577,-6.6189,-6.5992,-6.5894,-6.5795,-6.5396,-6.4583,-6.3327,-6.2415,-6.2465,-6.2574,-6.2465,-6.2276,-6.2167,-6.2276,-6.2742,-6.328,-6.3357,-6.3433,-6.2515,-6.1359,-6.006,-5.9535,-5.9891,-5.9623,-5.8444,-5.7528,-5.7009,-5.6856,-5.6643,-5.6551,-5.6247,-5.5942,-5.5933,-5.5999,-5.6414,-5.6905,-5.8827,-6.0668,-6.0822,-6.06,-5.9447,-5.8293,-5.8412,-5.8745,-6.0021,-6.1155,-6.2742,-6.3467,-6.3275,-6.3191,-6.3127,-6.2927,-6.9277,-6.9579,-6.9573,-6.9655,-6.9773,-6.9948,-7.0,-7.0004,-7.0014,-6.992,-6.9838,-6.9667,-6.9615,-6.9565,-6.939,-6.9181,-6.9081,-6.8986,-6.8836,-6.8504,-6.814,-6.8,-6.7965,-6.7855,-6.7667,-6.747,-6.7385,-6.7151,-6.6864,-6.6723,-6.6578,-6.6412,-6.6295,-6.6185,-6.6087,-6.5987,-6.5972,-6.5835,-6.568,-6.6251,-6.7104,-6.7542,-6.8292,-6.9125,-7.01,-7.1131,-7.1933,-7.1611,-7.132,-7.0527,-6.8713,-6.7475,-6.8295,-6.9496,-7.0133,-6.9898,-6.9647,-6.9411,-6.9123,-6.8568,-6.8082,-6.7746,-6.7151,-6.6577,-6.6384,-6.6384,-6.6189,-6.5726,-6.5225,-6.4273,-6.3036,-6.322,-6.3327,-6.3143,-6.2928,-6.282,-6.285,-6.3523,-6.3946,-6.4021,-6.4021,-6.3886,-6.3358,-6.1824,-6.157,-6.1801,-6.102,-5.974,-5.8943,-5.8293,-5.8077,-5.7801,-5.7495,-5.6945,-5.6948,-5.7252,-5.7514,-5.7974,-5.8728,-6.0271,-6.1685,-6.2167,-6.0912,-5.9796,-5.8769,-5.8797,-5.8943,-6.013,-6.1843,-6.2929,-6.3958,-6.3904,-6.3713,-6.349,-6.3293,-6.9171,-6.9411,-6.9512,-6.9667,-6.9805,-6.9916,-6.996,-7.0006,-7.0006,-6.9976,-6.992,-6.9821,-6.9679,-6.9577,-6.9512,-6.9392,-6.9193,-6.9081,-6.8986,-6.8808,-6.8573,-6.8312,-6.8282,-6.8037,-6.7892,-6.7743,-6.7662,-6.7466,-6.7224,-6.7181,-6.7053,-6.6796,-6.666,-6.6614,-6.6521,-6.6379,-6.627,-6.6198,-6.6087,-6.6274,-6.6478,-6.7355,-6.7783,-6.8201,-6.9164,-6.9848,-6.9581,-6.9327,-6.8885,-6.8816,-6.6193,-6.6002,-6.775,-6.9898,-7.0639,-7.02,-7.0049,-6.9816,-6.9351,-6.9156,-6.8714,-6.8114,-6.7806,-6.7434,-6.6866,-6.677,-6.6706,-6.6318,-6.6189,-6.5194,-6.4126,-6.4021,-6.4126,-6.3916,-6.3841,-6.3946,-6.4051,-6.423,-6.4364,-6.4644,-6.4644,-6.4644,-6.4552,-6.4307,-6.3785,-6.3111,-6.2548,-6.1539,-6.0798,-5.993,-5.94,-5.9183,-5.8657,-5.7889,-5.8202,-5.8574,-5.8966,-5.9623,-6.0476,-6.118,-6.2604,-6.2495,-6.125,-6.0114,-5.9213,-5.9005,-5.932,-6.0598,-6.2349,-6.3551,-6.4289,-6.4315,-6.415,-6.3874,-6.3736,-6.9048,-6.9209,-6.9392,-6.9543,-6.9655,-6.9838,-6.9913,-6.9976,-7.0007,-7.0,-6.9966,-6.9849,-6.9752,-6.9717,-6.9611,-6.9466,-6.9334,-6.9193,-6.9072,-6.8982,-6.8751,-6.8566,-6.8415,-6.8282,-6.8037,-6.7855,-6.7818,-6.7665,-6.7543,-6.7385,-6.7302,-6.7096,-6.6966,-6.6841,-6.6796,-6.666,-6.6614,-6.6614,-6.6521,-6.6379,-6.6234,-6.6855,-6.6939,-6.7053,-6.8049,-6.8677,-6.8385,-6.8623,-6.8015,-6.6435,-6.5186,-6.4716,-6.5933,-6.7704,-6.9394,-7.0726,-6.9806,-6.9577,-6.9716,-6.9471,-6.9068,-6.8625,-6.8082,-6.7714,-6.7434,-6.7151,-6.7056,-6.6674,-6.6384,-6.5795,-6.5124,-6.4952,-6.4819,-6.4613,-6.4716,-6.4921,-6.5023,-6.5053,-6.5124,-6.5124,-6.5124,-6.5124,-6.4747,-6.4716,-6.448,-6.412,-6.377,-6.3222,-6.2635,-6.1609,-6.0827,-6.0827,-6.0455,-6.0176,-6.0272,-6.0179,-6.0481,-6.1204,-6.1945,-6.2134,-6.2831,-6.285,-6.1614,-6.0486,-5.968,-5.9263,-5.9789,-6.072,-6.2533,-6.3794,-6.4288,-6.4616,-6.4452,-6.4315,-6.4315,-6.8971,-6.901,-6.9236,-6.9428,-6.9535,-6.9679,-6.9821,-6.992,-6.9957,-7.0008,-6.9954,-6.9845,-6.9783,-6.9762,-6.9653,-6.9587,-6.9448,-6.9297,-6.9202,-6.9048,-6.8881,-6.8743,-6.8603,-6.8452,-6.8286,-6.8037,-6.7929,-6.7818,-6.7665,-6.7623,-6.7466,-6.7307,-6.726,-6.7218,-6.7053,-6.7009,-6.6973,-6.6966,-6.6796,-6.666,-6.6604,-6.6546,-6.6331,-6.6194,-6.7082,-6.7392,-6.7278,-6.7893,-6.7176,-6.5279,-6.4783,-6.4551,-6.4672,-6.6307,-6.8151,-6.955,-6.9181,-6.9193,-6.9744,-6.9632,-6.9471,-6.9123,-6.8625,-6.8114,-6.7931,-6.7621,-6.7434,-6.7151,-6.6642,-6.609,-6.5795,-6.5527,-6.5527,-6.5396,-6.5596,-6.5695,-6.5596,-6.5596,-6.5627,-6.5695,-6.5726,-6.5427,-6.4921,-6.4716,-6.4757,-6.4978,-6.4749,-6.4229,-6.4076,-6.3265,-6.2544,-6.2544,-6.2169,-6.2014,-6.2046,-6.1825,-6.2099,-6.2856,-6.3141,-6.3296,-6.3161,-6.328,-6.2196,-6.0743,-5.9912,-5.933,-6.0,-6.1021,-6.2662,-6.4288,-6.4698,-6.4916,-6.4752,-6.448,-6.448,-6.8771,-6.9009,-6.9165,-6.9297,-6.941,-6.955,-6.9691,-6.9831,-6.9928,-7.0003,-7.0007,-6.9966,-6.9913,-6.9793,-6.9729,-6.9677,-6.9571,-6.943,-6.9348,-6.9179,-6.9023,-6.8908,-6.8751,-6.8548,-6.8386,-6.8319,-6.8108,-6.7929,-6.7855,-6.7817,-6.7738,-6.7623,-6.7583,-6.7547,-6.7466,-6.738,-6.726,-6.7218,-6.7009,-6.6885,-6.6877,-6.6832,-6.6705,-6.6474,-6.6595,-6.646,-6.6176,-6.6233,-6.6055,-6.5681,-6.5378,-6.4954,-6.4898,-6.6535,-6.726,-6.7568,-6.8735,-6.8941,-6.9013,-6.9663,-7.0066,-6.9417,-6.9068,-6.8771,-6.8114,-6.8206,-6.8238,-6.7838,-6.6961,-6.6384,-6.6189,-6.5894,-6.5695,-6.5894,-6.6286,-6.6286,-6.6023,-6.5894,-6.5992,-6.6189,-6.6189,-6.5894,-6.4921,-6.4849,-6.5023,-6.5365,-6.5571,-6.5518,-6.5365,-6.4867,-6.4366,-6.3831,-6.3297,-6.3329,-6.3672,-6.3574,-6.363,-6.4173,-6.4405,-6.4143,-6.393,-6.3705,-6.3066,-6.1391,-6.0142,-5.968,-5.9949,-6.1451,-6.2918,-6.4442,-6.5105,-6.516,-6.5078,-6.4588,-6.4397,-6.8656,-6.8891,-6.901,-6.9215,-6.9392,-6.9573,-6.9641,-6.9793,-6.9897,-6.9988,-7.0009,-6.9992,-6.9948,-6.9925,-6.9838,-6.973,-6.9581,-6.9521,-6.9449,-6.9348,-6.9202,-6.9074,-6.8929,-6.8663,-6.851,-6.8386,-6.8319,-6.818,-6.8002,-6.7965,-6.7892,-6.7779,-6.7777,-6.7738,-6.7623,-6.7543,-6.7503,-6.7503,-6.7385,-6.7302,-6.7139,-6.7132,-6.7009,-6.6751,-6.6567,-6.6379,-6.6234,-6.6185,-6.6037,-6.5767,-6.561,-6.5397,-6.4933,-6.499,-6.5792,-6.7058,-6.7939,-6.8401,-6.9076,-6.9899,-7.0316,-6.9931,-6.9504,-6.9013,-6.869,-6.851,-6.851,-6.8329,-6.7653,-6.7183,-6.677,-6.6286,-6.6189,-6.6546,-6.677,-6.6738,-6.6642,-6.6481,-6.6481,-6.6577,-6.6449,-6.5992,-6.5527,-6.5427,-6.5695,-6.5695,-6.5992,-6.6189,-6.6063,-6.5814,-6.5657,-6.531,-6.4712,-6.4807,-6.5246,-6.5271,-6.5134,-6.5247,-6.5326,-6.4819,-6.4126,-6.3946,-6.3705,-6.1917,-6.0372,-5.9912,-6.0193,-6.1583,-6.3428,-6.441,-6.5593,-6.5565,-6.5348,-6.4831,-6.412,-6.8535,-6.8743,-6.8911,-6.9127,-6.9316,-6.9512,-6.9642,-6.9735,-6.9849,-6.9923,-6.9968,-7.0006,-6.9672,-6.9268,-6.9073,-6.8934,-6.8883,-6.8832,-6.8749,-6.8733,-6.9027,-6.9133,-6.8997,-6.8836,-6.8663,-6.8484,-6.8419,-6.8319,-6.818,-6.8108,-6.8038,-6.7892,-6.7929,-6.7817,-6.7704,-6.7702,-6.7738,-6.7699,-6.7662,-6.7583,-6.7385,-6.7344,-6.7218,-6.7009,-6.6751,-6.666,-6.6624,-6.6521,-6.6295,-6.5987,-6.5819,-6.5575,-6.5142,-6.4219,-6.4474,-6.6202,-6.6581,-6.7397,-6.8605,-6.954,-7.0108,-7.0283,-6.9846,-6.9364,-6.9101,-6.8836,-6.8747,-6.86,-6.8114,-6.7621,-6.7151,-6.677,-6.677,-6.7151,-6.7151,-6.7119,-6.6961,-6.6834,-6.6961,-6.6961,-6.677,-6.6286,-6.5992,-6.5992,-6.609,-6.609,-6.6189,-6.6286,-6.6384,-6.6386,-6.6384,-6.6449,-6.6481,-6.626,-6.6068,-6.5843,-6.5643,-6.5502,-6.5427,-6.5124,-6.4334,-6.3841,-6.3569,-6.2544,-6.0912,-6.0285,-6.0742,-6.1953,-6.4004,-6.5312,-6.5773,-6.5806,-6.5589,-6.4874,-6.394,-6.8373,-6.8633,-6.8908,-6.9072,-6.9247,-6.9449,-6.9603,-6.9642,-6.9752,-6.9883,-6.9913,-6.9856,-6.8932,-6.7818,-6.7424,-6.7197,-6.7056,-6.6866,-6.6982,-6.7412,-6.8449,-6.8977,-6.9011,-6.8982,-6.8817,-6.861,-6.8484,-6.8423,-6.839,-6.8286,-6.818,-6.8037,-6.8037,-6.7965,-6.7855,-6.7855,-6.7815,-6.7815,-6.7702,-6.7662,-6.7623,-6.7543,-6.7385,-6.726,-6.7096,-6.7016,-6.7046,-6.6705,-6.6474,-6.6379,-6.5987,-6.561,-6.5288,-6.4433,-6.3831,-6.3996,-6.5032,-6.617,-6.7257,-6.8456,-6.962,-7.006,-7.015,-6.9728,-6.9331,-6.9244,-6.9101,-6.869,-6.8114,-6.7653,-6.7246,-6.7056,-6.7151,-6.7434,-6.7434,-6.734,-6.7151,-6.7056,-6.7025,-6.7056,-6.7151,-6.6866,-6.6481,-6.6286,-6.6286,-6.6255,-6.6352,-6.6481,-6.6674,-6.6674,-6.6802,-6.6866,-6.6866,-6.677,-6.6577,-6.6512,-6.5992,-6.5596,-6.5496,-6.5225,-6.4364,-6.3977,-6.3599,-6.279,-6.125,-6.0401,-6.083,-6.2414,-6.4314,-6.5873,-6.6023,-6.6206,-6.5544,-6.4716,-6.3807,-6.8069,-6.8504,-6.8771,-6.8948,-6.9081,-6.9316,-6.9496,-6.9604,-6.9724,-6.9858,-6.9727,-6.875,-6.7983,-6.7304,-6.6173,-6.5094,-6.4006,-6.3877,-6.4986,-6.6977,-6.7434,-6.8157,-6.8973,-6.9072,-6.8836,-6.8656,-6.8573,-6.8484,-6.8423,-6.839,-6.8286,-6.818,-6.818,-6.8073,-6.8002,-6.7965,-6.7929,-6.7818,-6.7818,-6.778,-6.7777,-6.7702,-6.766,-6.7389,-6.7344,-6.7302,-6.7181,-6.7009,-6.6751,-6.6521,-6.6234,-6.6037,-6.5783,-6.4805,-6.3949,-6.3647,-6.4891,-6.5927,-6.6272,-6.8174,-6.9331,-6.926,-6.9845,-7.0066,-6.9537,-6.9623,-6.9364,-6.878,-6.8114,-6.7838,-6.7653,-6.756,-6.7621,-6.7746,-6.7714,-6.7621,-6.7653,-6.7527,-6.7527,-6.7372,-6.7434,-6.734,-6.6866,-6.6577,-6.6481,-6.6802,-6.6866,-6.6866,-6.6961,-6.6961,-6.6961,-6.7056,-6.7183,-6.7056,-6.677,-6.6481,-6.609,-6.5695,-6.5496,-6.4921,-6.4364,-6.4051,-6.363,-6.2712,-6.1807,-6.1054,-6.1432,-6.2861,-6.4595,-6.6387,-6.6632,-6.6387,-6.5583,-6.4586,-6.3484,-6.7892,-6.8312,-6.8656,-6.8908,-6.9034,-6.9294,-6.9483,-6.9601,-6.974,-6.9528,-6.8897,-6.7945,-6.6778,-6.5559,-6.3854,-6.2497,-6.1587,-6.2017,-6.3326,-6.5215,-6.6454,-6.741,-6.8331,-6.8886,-6.8918,-6.8714,-6.8626,-6.8542,-6.8415,-6.8382,-6.8386,-6.8282,-6.8319,-6.8214,-6.8108,-6.811,-6.8074,-6.7965,-6.7892,-6.7892,-6.7855,-6.789,-6.7446,-6.674,-6.6667,-6.6332,-6.5622,-6.6051,-6.6129,-6.5818,-6.6138,-6.6283,-6.6037,-6.5379,-6.4574,-6.3831,-6.4569,-6.5333,-6.5656,-6.716,-6.8123,-6.8652,-6.9449,-6.9715,-6.9747,-6.9879,-6.9676,-6.8925,-6.8297,-6.7838,-6.7838,-6.7838,-6.7838,-6.7838,-6.7838,-6.7838,-6.7838,-6.7838,-6.7746,-6.7621,-6.7746,-6.7653,-6.7151,-6.677,-6.677,-6.6961,-6.7056,-6.7056,-6.7151,-6.7151,-6.7246,-6.734,-6.7434,-6.7308,-6.6866,-6.6577,-6.6189,-6.5795,-6.5427,-6.5053,-6.4468,-6.4156,-6.3493,-6.2682,-6.1836,-6.1083,-6.1145,-6.2631,-6.4422,-6.6081,-6.6895,-6.6463,-6.607,-6.4468,-6.3063,-6.778,-6.8071,-6.8529,-6.8817,-6.8999,-6.9268,-6.9449,-6.9587,-6.9566,-6.8816,-6.763,-6.7176,-6.5374,-6.2339,-6.0931,-5.9979,-6.0124,-6.1383,-6.219,-6.2757,-6.5468,-6.6831,-6.6777,-6.8383,-6.9048,-6.8836,-6.8714,-6.8559,-6.8442,-6.8442,-6.8377,-6.8386,-6.8386,-6.8353,-6.8286,-6.8214,-6.818,-6.8037,-6.8037,-6.7965,-6.7855,-6.7634,-6.6713,-6.5353,-6.5206,-6.447,-6.3145,-6.4052,-6.4692,-6.4444,-6.5492,-6.6054,-6.5898,-6.58,-6.5202,-6.4132,-6.4018,-6.4489,-6.5307,-6.5451,-6.6296,-6.8238,-6.8419,-6.8793,-6.9633,-6.9516,-6.933,-6.9211,-6.8535,-6.7931,-6.7931,-6.7838,-6.7838,-6.7838,-6.7838,-6.7838,-6.7838,-6.7838,-6.7838,-6.7838,-6.7838,-6.7653,-6.7246,-6.7088,-6.7151,-6.7151,-6.7151,-6.7246,-6.7434,-6.7466,-6.756,-6.7746,-6.7746,-6.7653,-6.7119,-6.6642,-6.6189,-6.5894,-6.5596,-6.5225,-6.4644,-6.4051,-6.3357,-6.2574,-6.1725,-6.1395,-6.1486,-6.2444,-6.3882,-6.5741,-6.6641,-6.6359,-6.5553,-6.4159,-6.2522,-6.7742,-6.7929,-6.8245,-6.8596,-6.8885,-6.9149,-6.9374,-6.9479,-6.8418,-6.7696,-6.7055,-6.4771,-6.2622,-6.0783,-6.0227,-5.9961,-5.9889,-6.032,-6.1088,-6.2342,-6.4293,-6.5777,-6.6917,-6.8443,-6.9111,-6.8956,-6.8799,-6.8722,-6.8573,-6.8473,-6.8373,-6.841,-6.841,-6.8382,-6.8353,-6.839,-6.8319,-6.818,-6.8073,-6.8037,-6.7669,-6.5642,-6.4241,-6.3801,-6.366,-6.3405,-6.2929,-6.311,-6.3136,-6.298,-6.3125,-6.3249,-6.3249,-6.3525,-6.3904,-6.4164,-6.4167,-6.4129,-6.4228,-6.5101,-6.5759,-6.6228,-6.6951,-6.7712,-6.8359,-6.7536,-6.7657,-6.9113,-6.9244,-6.838,-6.8023,-6.7838,-6.7838,-6.7838,-6.7838,-6.7838,-6.7806,-6.7838,-6.7838,-6.7838,-6.7838,-6.7746,-6.7653,-6.7621,-6.7621,-6.7527,-6.7653,-6.7653,-6.7746,-6.7746,-6.7746,-6.7838,-6.7838,-6.7621,-6.7151,-6.6674,-6.6157,-6.5894,-6.5695,-6.5326,-6.4747,-6.426,-6.3599,-6.2356,-6.1725,-6.1337,-6.134,-6.1318,-6.2349,-6.5373,-6.6782,-6.6331,-6.4949,-6.3453,-6.1676,-6.7704,-6.7818,-6.811,-6.8467,-6.8822,-6.9104,-6.8958,-6.8502,-6.7546,-6.6424,-6.5,-6.2497,-6.0898,-6.01,-6.0093,-5.9987,-5.9844,-5.9836,-6.0351,-6.1272,-6.2799,-6.4345,-6.5888,-6.7415,-6.8499,-6.8934,-6.8864,-6.8743,-6.8656,-6.8566,-6.8535,-6.8473,-6.8442,-6.841,-6.8415,-6.8415,-6.8386,-6.8319,-6.7548,-6.6812,-6.5998,-6.4228,-6.2939,-6.2315,-6.2142,-6.1783,-6.1163,-6.1462,-6.1571,-6.1492,-6.1908,-6.153,-6.0342,-6.1143,-6.2562,-6.4488,-6.3757,-6.3078,-6.2897,-6.4061,-6.4832,-6.5141,-6.5639,-6.6222,-6.6809,-6.6274,-6.5726,-6.6349,-6.6778,-6.7419,-6.7641,-6.6744,-6.6068,-6.6164,-6.6647,-6.6937,-6.6969,-6.7452,-6.7838,-6.7838,-6.7838,-6.7838,-6.7838,-6.7838,-6.7838,-6.7838,-6.7838,-6.7838,-6.7838,-6.7838,-6.7838,-6.7838,-6.7838,-6.7621,-6.7151,-6.6674,-6.6286,-6.609,-6.5795,-6.5295,-6.4819,-6.426,-6.3493,-6.2027,-6.1502,-6.1308,-6.1166,-6.1376,-6.183,-6.3702,-6.5287,-6.5005,-6.3764,-6.2127,-6.0858,-6.7628,-6.7706,-6.811,-6.8436,-6.8806,-6.9072,-6.8429,-6.7165,-6.6884,-6.5102,-6.2282,-6.0594,-5.9977,-6.0022,-6.0061,-6.0009,-5.9851,-5.9836,-5.984,-5.9947,-6.1304,-6.2796,-6.4215,-6.5898,-6.7473,-6.8562,-6.8806,-6.8836,-6.8771,-6.8677,-6.8656,-6.8603,-6.8473,-6.8442,-6.8404,-6.8256,-6.8187,-6.8197,-6.6385,-6.468,-6.3277,-6.303,-6.2158,-6.0686,-6.0617,-5.9815,-5.8471,-5.9367,-5.9998,-5.9961,-6.1007,-6.0378,-5.7979,-5.9072,-6.1459,-6.4455,-6.2893,-6.1607,-6.1553,-6.2537,-6.3629,-6.4561,-6.4488,-6.4573,-6.4864,-6.5434,-6.4403,-6.2199,-6.2988,-6.5207,-6.6964,-6.5287,-6.3965,-6.3975,-6.4844,-6.5488,-6.5617,-6.6647,-6.7516,-6.7581,-6.7227,-6.7549,-6.7742,-6.7838,-6.7838,-6.7838,-6.7898,-6.7898,-6.7931,-6.7931,-6.7838,-6.7838,-6.7838,-6.7621,-6.7151,-6.6674,-6.6286,-6.6189,-6.5795,-6.5427,-6.4921,-6.4334,-6.3493,-6.2276,-6.1532,-6.1308,-6.1314,-6.1607,-6.2226,-6.3323,-6.3369,-6.2832,-6.1732,-6.0575,-5.9874,-6.7626,-6.7665,-6.8074,-6.8349,-6.8559,-6.8999,-6.8312,-6.685,-6.5721,-6.3452,-6.0654,-6.0055,-5.9866,-5.9944,-6.002,-6.0012,-5.9872,-5.9859,-5.9866,-5.998,-6.1461,-6.2309,-6.28,-6.5492,-6.6965,-6.7262,-6.8412,-6.8908,-6.8799,-6.8808,-6.8714,-6.8619,-6.8603,-6.8573,-6.8535,-6.7284,-6.6622,-6.6405,-6.3659,-6.1988,-6.1691,-6.0306,-5.9469,-5.9062,-5.8943,-5.8703,-5.8303,-5.8508,-5.856,-5.8423,-5.8538,-5.824,-5.7474,-5.8591,-6.0006,-6.1405,-6.1075,-6.0687,-6.0626,-6.1439,-6.202,-6.2118,-6.2853,-6.3807,-6.4731,-6.4028,-6.2523,-6.1177,-6.2727,-6.4083,-6.4407,-6.3987,-6.3761,-6.3556,-6.3846,-6.4007,-6.4039,-6.4297,-6.4876,-6.5842,-6.5134,-6.5456,-6.7194,-6.7838,-6.7838,-6.7898,-6.7985,-6.82,-6.8114,-6.7931,-6.7838,-6.7838,-6.7838,-6.7653,-6.7151,-6.6577,-6.6286,-6.6286,-6.5795,-6.5496,-6.5225,-6.4541,-6.3493,-6.2386,-6.1643,-6.1279,-6.1195,-6.106,-6.1484,-6.2503,-6.2268,-6.1901,-6.2212,-6.0858,-5.9531,-6.7583,-6.7662,-6.8002,-6.8245,-6.8436,-6.8854,-6.7768,-6.5646,-6.4127,-6.209,-5.9962,-5.9857,-5.9851,-5.9841,-6.0017,-5.9974,-5.9866,-5.9859,-5.9866,-5.9924,-6.0691,-6.1394,-6.2117,-6.3783,-6.5297,-6.6686,-6.75,-6.8212,-6.8827,-6.8864,-6.8799,-6.8743,-6.8722,-6.8321,-6.7546,-6.6564,-6.5717,-6.4973,-6.1674,-6.0002,-6.0049,-5.9102,-5.8555,-5.8498,-5.8441,-5.8419,-5.8328,-5.8204,-5.8075,-5.7942,-5.7698,-5.7552,-5.7365,-5.7808,-5.8236,-5.8496,-5.8553,-5.8773,-5.9208,-5.9641,-6.0037,-6.0389,-6.1304,-6.2072,-6.2279,-6.1092,-6.0617,-6.1238,-6.1788,-6.2205,-6.2041,-6.199,-6.1875,-6.1624,-6.2204,-6.2558,-6.2655,-6.3073,-6.3814,-6.4458,-6.4007,-6.4223,-6.6069,-6.7429,-6.8206,-6.8206,-6.8355,-6.8323,-6.8238,-6.7591,-6.7015,-6.6872,-6.7388,-6.7556,-6.7151,-6.6577,-6.6286,-6.6286,-6.5795,-6.5496,-6.5396,-6.4613,-6.3523,-6.2415,-6.1614,-6.1279,-6.1166,-6.0856,-6.0685,-6.1401,-6.0829,-6.0716,-6.114,-6.0491,-5.9503,-6.7543,-6.7699,-6.7966,-6.8029,-6.8107,-6.835,-6.689,-6.4253,-6.2687,-6.1191,-5.9866,-5.9849,-5.9851,-5.9872,-6.0017,-5.9977,-5.9917,-5.9859,-5.9866,-5.9877,-5.9757,-6.0388,-6.1622,-6.1806,-6.329,-6.5861,-6.6339,-6.7276,-6.8534,-6.8881,-6.8817,-6.85,-6.85,-6.7614,-6.6067,-6.561,-6.4651,-6.305,-6.0195,-5.8718,-5.8739,-5.8739,-5.8648,-5.8527,-5.8527,-5.8441,-5.8322,-5.823,-5.8103,-5.7975,-5.7586,-5.7407,-5.7405,-5.6702,-5.6221,-5.6116,-5.5841,-5.6105,-5.6985,-5.6991,-5.7472,-5.8659,-5.9775,-5.9569,-5.7791,-5.7096,-5.7848,-6.0238,-6.0353,-6.0166,-6.0055,-5.9559,-5.9192,-5.9194,-6.0126,-6.0962,-6.109,-6.214,-6.288,-6.3288,-6.3105,-6.3051,-6.3882,-6.6181,-6.7973,-6.8495,-6.8094,-6.7908,-6.734,-6.6658,-6.5801,-6.5609,-6.6454,-6.6946,-6.6354,-6.6262,-6.6003,-6.5814,-6.5014,-6.4594,-6.4495,-6.3622,-6.2861,-6.2327,-6.1614,-6.1075,-6.047,-6.0423,-6.0028,-5.985,-5.9701,-5.956,-5.9673,-5.9733,-5.9447,-6.7462,-6.7662,-6.7929,-6.7366,-6.6342,-6.6615,-6.5753,-6.4062,0.0,0.0,0.0,-5.9792,-5.9844,-5.9872,-6.0017,-6.0021,-6.0044,-5.9917,-5.9836,-5.9866,-5.9753,-5.981,-6.0128,-6.1385,-6.2165,-6.2638,-6.5276,-6.6764,-6.6963,-6.8347,-6.8309,-6.7038,-6.6863,-6.6015,-6.4368,-6.2946,-6.1418,-5.9791,-5.9144,-5.8807,-5.8718,-5.8718,-5.8692,-5.8675,-5.8555,-5.847,-5.8485,-5.8359,-5.8235,-5.8075,-5.6628,-5.6414,-5.7656,-5.4859,-5.415,-5.6273,-5.4063,-5.2616,-5.2816,-5.2395,-5.3353,-5.6066,-5.8164,-5.7107,-5.1766,-5.1248,-5.2165,-5.4435,-5.8228,-6.0399,-6.0055,-5.8086,-5.6949,-5.7802,-5.8117,-5.8628,-5.9515,-5.995,-6.0612,-6.1746,-6.0952,-6.0323,-6.1349,-6.392,-6.6379,-6.815,-6.7101,-6.5511,-6.5183,-6.4883,-6.4363,-6.4084,-6.4071,-6.4185,-6.409,-6.4902,-6.5248,-6.3266,-6.2545,-6.2042,-6.1593,-6.1038,-6.1144,-6.1764,-6.1614,-6.0348,-5.8719,-5.8576,-5.8972,-5.9366,-5.9563,-5.9563,-5.9563,-5.9535,-5.9422,-6.4932,-6.5204,-6.5388,-6.5115,0.0,-6.4911,-6.3722,-6.1514,-6.0843,-6.0225,-5.9672,-5.9801,-5.9857,-5.9859,-5.9924,-5.9983,-6.0021,-5.9934,-5.9859,-5.9844,-5.9821,-5.9734,-5.9695,-6.0362,-6.1073,-6.1747,-6.3334,-6.4541,-6.5293,-6.6066,-6.6029,-6.5206,-6.5169,-6.4795,-6.3922,-6.2304,-6.0661,-5.8907,-5.892,-5.8846,-5.8796,-5.8733,-5.8718,-5.8729,-5.8648,0.0,0.0,0.0,0.0,0.0,0.0,0.0,0.0,0.0,0.0,-5.4169,-5.2083,-5.1037,-5.1623,-5.0627,-5.0945,-5.3083,-5.4239,-5.3203,-4.9272,-4.9442,-5.0673,-5.2952,-5.6416,-5.8393,-5.7872,-5.6805,-5.6177,-5.6466,-5.657,-5.6736,-5.7304,-5.7414,-5.7899,-5.898,-5.8423,-5.86,-6.0465,-6.3161,-6.5495,-6.6679,-6.5791,-6.4854,-6.4395,-6.3135,-6.24,-6.2651,-6.2031,-6.1777,-6.2815,-6.3888,-6.3517,-6.2326,-6.1578,-6.0675,-5.8974,-5.8197,-5.8403,-5.981,-5.9792,-5.8545,-5.6334,-5.6699,-5.7887,-5.9085,-5.8939,-5.8346,-5.7669,-5.7585,-5.7556,-6.2516,-6.2819,-6.2925,-6.2943,-6.2863,-6.2539,-6.0947,-5.8603,-5.8422,-5.8439,-5.8689,-5.8823,-5.8921,-5.8934,-5.8942,-5.902,-5.9112,-5.9337,-5.9449,-5.9404,-5.9726,-5.9807,-5.9659,-5.9547,-6.015,-6.1338,-6.1518,-6.2316,-6.3656,-6.3871,-6.3785,-6.3524,-6.3486,-6.3337,-6.3,0.0,0.0,0.0,-5.8968,-5.8883,-5.8908,-5.8784,-5.8733,-5.8718,-5.8729,0.0,-5.8527,-5.821,-5.7383,-5.5883,-5.5123,0.0,0.0,0.0,0.0,0.0,0.0,0.0,0.0,0.0,0.0,0.0,-4.9035,-4.8159,-4.7074,-4.7724,-4.9173,-5.1356,-5.4251,-5.5712,-5.5115,-5.5043,-5.5013,-5.4907,-5.5128,-5.5377,-5.5567,-5.564,-5.5835,-5.6518,-5.6429,-5.744,-6.0202,-6.2602,-6.4049,-6.4114,-6.4114,-6.3854,-6.3118,-6.1018,-6.0125,-6.1052,-6.0322,-6.0171,-6.189,-6.1735,-6.1286,-6.1013,-6.0737,-5.9467,-5.7222,-5.6308,-5.6471,-5.7293,-5.7184,-5.6044,-5.4124,-5.5025,-5.6689,-5.8404,-5.7923,-5.6936,-5.5976,-5.5751,-5.561,-6.2437,-6.2819,-6.2964,-6.2253,-6.0964,-5.8405,-5.7169,-5.6802,-5.5476,-5.4969,-5.5115,-5.5349,-5.5467,-5.5463,-5.5581,-5.5673,-5.5771,-5.7132,-5.7767,-5.7752,-5.9187,-5.9807,-5.9697,-5.9547,-5.9565,-5.9815,-6.1051,-6.1754,-6.1971,-6.3286,-6.3262,-6.1991,-6.1916,-6.1206,-5.9785,-5.95,-5.9276,-5.9052,-5.9089,-5.9028,-5.8907,-5.8907,-5.8834,-5.8744,-5.8718,-5.8638,-5.849,-5.7192,-5.6294,-5.5892,-5.3112,-5.0615,-4.8673,-4.7288,-4.7098,0.0,-4.5405,0.0,0.0,0.0,0.0,0.0,0.0,0.0,0.0,-4.2547,-4.3584,-4.5779,-5.0258,-5.2998,-5.2869,-5.1797,-5.1435,-5.2278,-5.3452,-5.4586,-5.5445,-5.5608,-5.5493,-5.5163,-5.5862,-5.7407,-5.9972,-6.0892,-6.1188,-6.1254,-6.1254,-6.064,-5.9012,-5.8228,-5.8268,-5.9484,-5.9435,-5.8951,-5.9148,-5.8949,-5.8614,-5.7996,-5.749,-5.7007,-5.6426,-5.5729,-5.5193,-5.5005,-5.4694,-5.4165,-5.3786,-5.4274,-5.5176,-5.6171,-5.6005,-5.5638,-5.5497,-5.5384,-5.5017,-5.9702,-5.9998,-6.0209,-5.8941,-5.6652,-5.5403,-5.4974,-5.5121,-5.45,-5.4315,-5.445,-5.4647,-5.4775,-5.4811,-5.4962,-5.4987,-5.5085,-5.5758,-5.6108,-5.6084,-5.6751,-5.754,-5.8361,-5.8219,-5.8656,-5.9472,-6.006,-6.0318,-6.0372,-6.096,-6.0915,-6.0242,-6.0196,-5.9396,-5.7852,-5.7794,-5.8221,-5.9082,-5.9074,-5.9089,-5.8991,-5.8954,-5.8869,-5.8809,-5.8733,-5.8272,-5.7338,-5.6579,-5.5312,-5.3444,-5.1008,-4.9358,-4.8718,-4.6544,-4.531,0.0,0.0,0.0,0.0,0.0,0.0,0.0,0.0,0.0,0.0,0.0,-3.8408,-4.2695,-4.7617,-5.034,-5.0041,-4.9655,-4.9511,-4.982,-5.0368,-5.0834,-5.1358,-5.1359,-5.126,-5.1055,-5.1354,-5.2574,-5.5401,-5.721,-5.8426,-5.8952,-5.8484,-5.7704,-5.6862,-5.6508,-5.6509,-5.6892,-5.691,-5.68,-5.6786,-5.7499,-5.7483,-5.5566,-5.4739,-5.431,-5.3992,-5.3462,-5.3247,-5.3891,-5.3796,-5.3291,-5.1827,-5.2041,-5.3349,-5.4695,-5.3578,-5.2083,-5.2478,-5.2619,-5.2675,-5.6387,-5.6597,-5.6398,-5.4755,-5.2274,-5.2026,-5.2038,-5.2203,-5.199,-5.1935,-5.2071,-5.2139,-5.2318,-5.24,-5.2553,-5.2854,-5.3227,-5.3645,-5.401,-5.4431,-5.4689,-5.5484,-5.6705,-5.6636,-5.7172,-5.8279,-5.8161,-5.8163,-5.8106,-5.8027,-5.7948,-5.7927,-5.7922,-5.7345,-5.621,-5.617,-5.6916,-5.8526,-5.8558,-5.87,-5.9052,-5.8977,-5.8916,-5.8907,-5.8461,-5.7642,-5.6425,-5.5518,-5.376,-5.0903,-4.9397,-4.7979,-4.656,-4.4611,0.0,0.0,0.0,0.0,0.0,0.0,0.0,0.0,0.0,-3.4213,-3.5603,0.0,-3.4635,0.0,-4.4022,-4.7031,-4.7155,-4.7146,0.0,0.0,-4.7294,-4.7641,-4.7559,-4.7799,-4.7674,-4.7095,-4.7418,-4.8722,-5.1522,-5.4481,-5.6223,-5.5796,-5.4962,-5.4586,-5.516,-5.4975,-5.4883,-5.5196,-5.5066,-5.4606,-5.4253,-5.5801,-5.6309,-5.3698,-5.2864,-5.2119,-5.1121,-5.0547,-5.0896,-5.2373,-5.267,-5.1652,-4.9296,-4.98,-5.1351,-5.309,-5.0983,-4.8584,-4.9487,-4.9713,-4.9967,-5.3149,-5.317,-5.1731,-5.0299,-4.8852,-4.7448,-4.6918,-4.6971,-4.5673,-4.5212,-4.5298,-4.5306,-4.5394,-4.5528,-4.5645,0.0,-4.8118,-4.9658,-5.1165,-5.2725,-5.4159,-5.4886,-5.5032,-5.4861,-5.4898,-5.5017,-5.4886,-5.4819,-5.4859,-5.471,-5.4597,-5.4597,-5.4634,-5.4559,-5.4428,-5.4428,-5.5251,-5.6916,-5.6991,-5.7623,-5.9014,-5.9089,-5.9028,-5.8869,-5.7488,-5.662,-5.6325,-5.3485,-5.1035,-4.9302,-4.8913,-4.6073,-4.0292,0.0,0.0,0.0,0.0,0.0,0.0,0.0,0.0,0.0,0.0,0.0,0.0,0.0,0.0,0.0,-3.8106,0.0,-4.4569,-4.3604,0.0,0.0,0.0,-4.6453,-4.6234,-4.7399,-4.7109,-4.4429,0.0,0.0,-5.1619,-5.4448,-5.4875,-5.093,-4.9985,-5.0668,-5.3268,-5.338,-5.3713,-5.4873,-5.4906,-5.3825,-5.16,-5.2927,-5.4122,-5.3168,-5.2553,-5.0901,-4.8645,-4.7811,-4.8253,-4.9797,-5.0111,-4.9267,-4.665,-4.7721,-4.9067,-4.9019,-4.869,-4.8407,-4.8369,-4.8302,-4.8207,-5.0287,-4.6856,-4.6385,-4.5923,-4.5507,-4.4988,-4.4828,-4.4901,-4.4498,-4.3762,-4.2853,-4.3021,-4.2558,-4.173,-4.2779,0.0,0.0,0.0,-4.7225,-4.7909,-4.8562,-4.9894,-5.1672,-5.1746,-5.2735,-5.4597,-5.4587,-5.4526,-5.4397,-5.4368,-5.2397,-4.8634,0.0,0.0,-5.1399,-5.236,-5.4165,-5.6754,-5.679,-5.7536,-5.9044,-5.9082,-5.9097,-5.8954,-5.7436,-5.6069,-5.4979,-5.1781,-4.9242,-4.7604,-4.4699,-4.1872,0.0,0.0,0.0,0.0,0.0,0.0,0.0,0.0,0.0,0.0,0.0,-2.6342,-2.7697,0.0,0.0,0.0,-3.3993,-3.9492,-4.2026,-4.1709,0.0,0.0,0.0,0.0,0.0,0.0,0.0,-4.1682,-4.2373,-4.4562,-4.8722,-5.0368,-5.0404,-4.8694,-4.8156,-4.862,-5.0603,0.0,-5.1,-5.2416,-5.2401,-5.18,-5.0706,-5.1191,-5.1486,-5.1017,-4.956,-4.776,-4.5875,-4.5392,-4.5863,-4.733,-4.7608,-4.6621,-4.4119,-4.4165,-4.4956,-4.6241,-4.5268,-4.4442,-4.5008,-4.5537,-4.5476,-4.5808,0.0,0.0,0.0,0.0,-4.0875,-4.1025,-4.1127,-4.1313,-4.0802,-3.967,-3.9925,0.0,0.0,0.0,0.0,0.0,0.0,-4.3281,-4.4215,-4.4217,-4.5657,-4.8349,-4.8335,-4.9571,-5.1754,-5.1779,-5.1701,-5.1611,-5.1154,-4.857,-4.41,0.0,0.0,0.0,0.0,-5.2146,-5.5327,-5.5892,-5.6867,-5.8398,-5.8885,-5.9163,-5.9097,-5.7011,-5.4897,-5.2694,-4.9832,-4.7144,-4.4629,-4.1216,0.0,0.0,0.0,0.0,0.0,0.0,0.0,0.0,0.0,0.0,0.0,0.0,0.0,0.0,0.0,0.0,0.0,0.0,0.0,-3.8109,-3.8271,-3.8125,0.0,0.0,0.0,0.0,0.0,0.0,0.0,0.0,0.0,-4.4752,-4.5891,-4.6451,0.0,0.0,-4.7024,-4.836,-4.833,-4.8619,-4.9583,-4.9443,0.0,-4.8986,-4.887,-4.874,-4.858,-4.7073,-4.5252,-4.3257,-4.2813,-4.3373,-4.5213,-4.5144,-4.3821,-4.0879,-4.0222,-4.1225,-4.3405,-4.2412,-4.1139,-4.1799,-4.2827,-4.3026,0.0,0.0,0.0,0.0,0.0,0.0,0.0,0.0,-3.452,-3.463,0.0,-3.4749,0.0,0.0,0.0,0.0,0.0,-3.7819,0.0,0.0,-4.2416,-4.3395,-4.4948,-4.5017,-4.5045,-4.4997,-4.5137,-4.5077,-4.4943,-4.339,0.0,0.0,0.0,0.0,0.0,0.0,-4.8783,-5.2017,-5.3746,-5.5272,-5.6847,-5.846,-5.9189,-5.8976,-5.6014,-5.283,-4.9484,-4.7615,-4.4479,-3.981,-3.9415,0.0,0.0,0.0,0.0,0.0,0.0,0.0,0.0,0.0,0.0,0.0,0.0,0.0,0.0,0.0,0.0,0.0,0.0,0.0,0.0,-3.2406,0.0,0.0,0.0,0.0,0.0,0.0,0.0,0.0,0.0,0.0,-3.9765,-4.1894,-4.3521,-4.3663,0.0,0.0,0.0,0.0,-4.6844,-4.6846,-4.6525,-4.6108,-4.5309,-4.5658,-4.6214,-4.6714,0.0,0.0,-4.11,-4.025,-4.0632,-4.2518,-4.2566,-4.0836,-3.6162,-3.6121,-3.7837,-4.0764,-4.0506,-3.9788,-3.9543,-4.032,-4.1094,0.0,0.0,0.0,0.0,0.0,0.0,0.0,0.0,0.0,-3.0466,0.0,-2.9603,0.0,0.0,0.0,0.0,0.0,0.0,0.0,0.0,-3.7579,-3.8426,-4.0055,-3.9994,-4.0505,0.0,-4.1532,-4.0398,0.0,0.0,0.0,0.0,0.0,0.0,0.0,0.0,-4.8221,-5.0363,-5.3021,-5.5229,-5.6867,-5.8444,-5.8705,-5.7577,-5.647,-5.379,-4.9427,-4.4581,-4.1159,0.0,0.0,0.0,0.0,0.0,0.0,0.0,0.0,0.0,0.0,0.0,0.0,0.0,0.0,0.0,0.0,0.0,0.0,0.0,0.0,0.0,0.0,0.0,-3.2281,0.0,0.0,0.0,0.0,0.0,0.0,0.0,0.0,0.0,-3.8837,-4.0131,-4.104,-4.1913,-4.2316,-4.3367,-4.5608,0.0,0.0,0.0,0.0,0.0,0.0,0.0,-4.6038,-4.588,-4.4872,-4.3269,-4.1017,-3.9131,-3.8331,-3.9953,0.0,0.0,-3.3866,-3.4197,-3.5611,-3.6645,-3.6491,-3.6106,-3.597,-3.6793,-3.7306,0.0,0.0,0.0,0.0,0.0,0.0,0.0,0.0,0.0,-2.6931,-2.5945,0.0,0.0,0.0,0.0,0.0,0.0,0.0,0.0,0.0,0.0,0.0,-3.584,-3.6308,0.0,0.0,0.0,0.0,0.0,0.0,0.0,0.0,0.0,0.0,0.0,0.0,-4.6658,-4.8825,-5.2002,-5.4181,-5.5321,-5.6865,-5.713,-5.6023,-5.5441,-5.3341,-4.948,0.0,0.0,0.0,0.0,0.0,0.0,0.0,0.0,0.0,0.0,0.0,0.0,0.0,0.0,0.0,0.0,0.0,0.0,0.0,0.0,0.0,0.0,0.0,0.0,0.0,-3.0749,0.0,0.0,0.0,0.0,0.0,0.0,0.0,0.0,0.0,0.0,0.0,-3.9419,-3.9834,-4.0593,-4.1757,-4.3563,-4.4023,-4.4499,0.0,0.0,0.0,0.0,0.0,0.0,0.0,0.0,0.0,0.0,0.0,0.0,0.0,0.0,-3.5271,-3.1339,-3.1485,-3.24,-3.307,0.0,0.0,0.0,0.0,0.0,0.0,0.0,0.0,0.0,0.0,0.0,0.0,0.0,0.0,0.0,0.0,0.0,0.0,-2.4007,0.0,0.0,0.0,0.0,0.0,0.0,0.0,0.0,0.0,0.0,0.0,0.0,0.0,0.0,0.0,0.0,0.0,0.0,0.0,0.0,0.0,0.0,-4.396,-4.7197,-5.0395,-5.2118,-5.2223,-5.3676,-5.4456,-5.4333,-5.2756,-5.1049,-4.9218,0.0,0.0,0.0,0.0,0.0,0.0,0.0,0.0,0.0,0.0,0.0,0.0,0.0,0.0,0.0,0.0,0.0,0.0,0.0,0.0,0.0,0.0,0.0,0.0,0.0,0.0,-2.6073,-2.8319,-2.9822,0.0,0.0,0.0,0.0,0.0,0.0,0.0,0.0,0.0,0.0,-3.9481,-4.1007,-4.0877,-4.2166,-4.298,-4.2625,-4.2657,-4.2543,-4.2287,-4.2229,-4.1658,0.0,0.0,0.0,0.0,0.0,0.0,0.0,0.0,0.0,0.0,0.0,0.0,0.0,0.0,0.0,0.0,0.0,0.0,0.0,0.0,0.0,0.0,0.0,0.0,0.0,0.0,0.0,0.0,0.0,0.0,0.0,0.0,0.0,0.0,0.0,0.0,0.0,0.0,0.0,0.0,0.0,0.0,0.0,0.0,0.0,0.0,0.0,0.0,0.0,0.0,0.0,0.0,0.0,0.0,-4.227,-4.5574,-4.8794,-5.1012,-5.2094,-5.3698,-5.4007,-5.281,-5.1154,-4.8957,0.0,0.0,0.0,0.0,0.0,0.0,0.0,0.0,0.0,0.0,0.0,0.0,0.0,0.0,0.0,0.0,0.0,0.0,0.0,0.0,0.0,0.0,0.0,0.0,0.0,0.0,0.0,0.0,-2.4964,-2.5795,-2.6658,0.0,0.0,0.0,0.0,0.0,0.0,0.0,0.0,0.0,0.0,-3.8646,-3.9472,-4.0699,-4.1458,-4.1384,-4.2111,-4.2292,-4.1241,-4.1001,-4.0407,-3.8916,0.0,0.0,0.0,0.0,0.0,0.0,0.0,0.0,0.0,0.0,0.0,0.0,0.0,0.0,0.0,0.0,0.0,0.0,0.0,0.0,0.0,0.0,0.0,0.0,0.0,0.0,0.0,0.0,0.0,0.0,0.0,0.0,0.0,0.0,0.0,0.0,0.0,0.0,0.0,0.0,0.0,0.0,0.0,0.0,0.0,0.0,0.0,0.0,0.0,0.0,0.0,0.0,0.0,-4.0903,-4.4858,-4.7532,-4.9609,-5.1188,-5.2207,-5.2242,-5.1173,-4.9464,-4.7367,0.0,0.0,0.0,0.0,0.0,0.0,0.0,0.0,0.0,0.0,0.0,0.0,0.0,0.0,0.0,0.0,0.0,0.0,0.0,0.0,0.0,0.0,0.0,0.0,0.0,0.0,0.0,0.0,-2.2672,-2.3188,-2.4577,0.0,0.0,0.0,0.0,0.0,0.0,0.0,0.0,0.0,0.0,-3.6864,-3.8127,-3.9353,0.0,0.0,-4.074,-4.0895,-3.9943,-3.9675,-3.9116,-3.7592,-3.6815,0.0,0.0,0.0,0.0,0.0,0.0,0.0,0.0,0.0,0.0,0.0,0.0,0.0,0.0,0.0,0.0,0.0,0.0,0.0,0.0,0.0,0.0,0.0,0.0,0.0,0.0,0.0,0.0,0.0,0.0,0.0,0.0,0.0,0.0,0.0,0.0,0.0,0.0,0.0,0.0,0.0,0.0,0.0,0.0,0.0,0.0,0.0,0.0,0.0,0.0,0.0,0.0,0.0,-4.4418,-4.6357,-4.8021,-4.9549,-4.97,-4.9666,-4.9377,-4.7744,-4.6098,0.0,0.0,0.0,0.0,0.0,0.0,0.0,0.0,0.0,0.0,0.0,0.0,0.0,0.0,0.0,0.0,0.0,0.0,0.0,0.0,0.0,0.0,0.0,0.0,0.0,0.0,0.0,0.0,0.0,0.0,0.0,0.0,0.0,0.0,0.0,0.0,0.0,0.0,0.0,0.0,0.0,-3.5498,-3.6691,-3.8019,-3.8929,0.0,-3.8716,-3.8599,-3.8383,-3.8318,-3.7683,-3.6142,0.0,0.0,0.0,0.0,0.0,0.0,0.0,0.0,0.0,0.0,0.0,0.0,0.0,0.0,0.0,0.0,0.0,0.0,0.0,0.0,0.0,0.0,0.0,0.0,0.0,0.0,0.0,0.0,0.0,0.0,0.0,0.0,0.0,0.0,0.0,0.0,0.0,0.0,0.0,0.0,0.0,0.0,0.0,0.0,0.0,0.0,0.0,0.0,0.0,0.0,0.0,0.0,0.0,0.0,-4.1212,-4.4097,-4.6342,-4.7992,-4.9167,-4.9176,-4.7823,-4.6188,0.0,0.0,0.0,0.0,0.0,0.0,0.0,0.0,0.0,0.0,0.0,0.0,0.0,0.0,0.0,0.0,0.0,0.0,0.0,0.0,0.0,0.0,0.0,0.0,0.0,0.0,0.0,-1.9266,0.0,0.0,0.0,0.0,0.0,0.0,0.0,0.0,0.0,0.0,0.0,0.0,0.0,0.0,-3.3678,-3.4018,-3.6105,-3.7584,0.0,0.0,-3.8583,-3.7515,-3.6259,-3.4944,0.0,0.0,0.0,0.0,0.0,0.0,0.0,0.0,0.0,0.0,0.0,0.0,0.0,0.0,0.0,0.0,0.0,0.0,0.0,0.0,0.0,0.0,0.0,0.0,0.0,0.0,0.0,0.0,0.0,0.0,0.0,0.0,0.0,0.0,0.0,0.0,0.0,0.0,0.0,0.0,0.0,0.0,0.0,0.0,0.0,0.0,0.0,0.0,0.0,0.0,0.0,0.0,0.0,0.0,-3.6674,-4.0008,-4.3249,-4.5695,-4.7379,-4.9022,-4.8997,-4.7258,-4.567,-4.3242,0.0,0.0,0.0,0.0,0.0,0.0,0.0,0.0,0.0,0.0,0.0,0.0,0.0,0.0,0.0,0.0,0.0,0.0,0.0,0.0,0.0,0.0,0.0,0.0,0.0,0.0,0.0,0.0,0.0,0.0,0.0,0.0,0.0,0.0,0.0,0.0,0.0,0.0,0.0,0.0,0.0,0.0,-3.2127,-3.3497,0.0,0.0,0.0,-3.5136,-3.4266,0.0,0.0,0.0,0.0,0.0,0.0,0.0,0.0,0.0,0.0,0.0,0.0,0.0,0.0,0.0,0.0,0.0,0.0,0.0,0.0,0.0,0.0,0.0,0.0,0.0,0.0,0.0,0.0,0.0,0.0,0.0,0.0,0.0,0.0,0.0,0.0,0.0,0.0,0.0,0.0,0.0,0.0,0.0,0.0,0.0,0.0,0.0,0.0,0.0,0.0,0.0,0.0,0.0,0.0,0.0,0.0,0.0,-3.943,-4.2852,-4.542,-4.7121,-4.8553,-4.8614,-4.7003,-4.5423,-4.2935,0.0,0.0,0.0,0.0,0.0,0.0,0.0,0.0,0.0,0.0,0.0,0.0,0.0,0.0,0.0,0.0,0.0,0.0,0.0,0.0,0.0,0.0,0.0,0.0,0.0,0.0,0.0,0.0,0.0,0.0,0.0,0.0,0.0,0.0,0.0,0.0,0.0,0.0,0.0,0.0,0.0,-2.94,-3.0682,-3.094,-3.0926,0.0,0.0,-3.0446,-3.0545,-3.0438,0.0,0.0,0.0,0.0,0.0,0.0,0.0,0.0,0.0,0.0,0.0,0.0,0.0,0.0,0.0,0.0,0.0,0.0,0.0,0.0,0.0,0.0,0.0,0.0,0.0,0.0,0.0,0.0,0.0,0.0,0.0,0.0,0.0,0.0,0.0,0.0,0.0,0.0,0.0,0.0,0.0,0.0,0.0,0.0,0.0,0.0,0.0,0.0,0.0,0.0,0.0,0.0,0.0,0.0,0.0,0.0,-3.615,-4.0581,-4.3714,-4.5328,-4.5739,-4.5758,-4.5373,-4.3783,-4.0673,0.0,0.0,0.0,0.0,0.0,0.0,0.0,0.0,0.0,0.0,0.0,0.0,0.0,0.0,0.0,0.0,0.0,0.0,0.0,0.0,0.0,0.0,0.0,0.0,0.0,0.0,0.0,0.0,0.0,0.0,0.0,0.0,0.0,0.0,0.0,0.0,0.0,0.0,0.0,0.0,0.0,-2.7923,-2.9346,-3.0475,0.0,0.0,0.0,0.0,-3.0699,-2.9987,0.0,0.0,0.0,0.0,0.0,0.0,0.0,0.0,0.0,0.0,0.0,0.0,0.0,0.0,0.0,0.0,0.0,0.0,0.0,0.0,0.0,0.0,0.0,0.0,0.0,0.0,0.0,0.0,0.0,0.0,0.0,0.0,0.0,0.0,0.0,0.0,0.0,0.0,0.0,0.0,0.0,0.0,0.0,0.0,0.0,0.0,0.0,0.0,0.0,0.0,0.0,0.0,0.0,0.0,0.0,0.0,-3.5108,-3.9112,-4.2055,-4.3633,-4.4511,-4.4538,-4.3712,-4.2835,-4.0026,0.0,0.0,0.0,0.0,0.0,0.0,0.0,0.0,0.0,0.0,0.0,0.0,0.0,0.0,0.0,0.0,0.0,0.0,0.0,0.0,0.0,0.0,0.0,0.0,0.0,0.0,0.0,0.0,0.0,0.0,0.0,0.0,0.0,0.0,0.0,0.0,0.0,0.0,0.0,0.0,-2.4801,-2.6306,-2.6996,0.0,0.0,0.0,0.0,0.0,0.0,-2.7393,-2.6234,0.0,0.0,0.0,0.0,0.0,0.0,0.0,0.0,0.0,0.0,0.0,0.0,0.0,0.0,0.0,0.0,0.0,0.0,0.0,0.0,0.0,0.0,0.0,0.0,0.0,0.0,0.0,0.0,0.0,0.0,0.0,0.0,0.0,0.0,0.0,0.0,0.0,0.0,0.0,0.0,0.0,0.0,0.0,0.0,0.0,0.0,0.0,0.0,0.0,0.0,0.0,0.0,0.0,0.0,0.0,-3.4966,-3.8066,-4.055,-4.2316,-4.3539,-4.3572,-4.241,-4.1841,-3.9411,-3.4773,0.0,0.0,0.0,0.0,0.0,0.0,0.0,0.0,0.0,0.0,0.0,0.0,0.0,0.0,0.0,0.0,0.0,0.0,0.0,0.0,0.0,0.0,0.0,0.0,0.0,0.0,0.0,0.0,0.0,0.0,0.0,0.0,0.0,0.0,0.0,0.0,0.0,0.0,0.0,-2.2722,-2.4428,0.0,0.0,0.0,0.0,0.0,0.0,0.0,0.0,-2.3761,0.0,0.0,0.0,0.0,0.0,0.0,0.0,0.0,0.0,0.0,0.0,0.0,0.0,0.0,0.0,0.0,0.0,0.0,0.0,0.0,0.0,0.0,0.0,0.0,0.0,0.0,0.0,0.0,0.0,0.0,0.0,0.0,0.0,0.0,0.0,0.0,0.0,0.0,0.0,0.0,0.0,0.0,0.0,0.0,0.0,0.0,0.0,0.0,0.0,0.0,0.0,0.0,0.0,0.0,0.0,0.0,-3.6897,-3.9349,-4.2165,-4.1339,-4.1297,-4.2301,-3.9691,-3.6544,-3.2977,0.0,0.0,0.0,0.0,0.0,0.0,0.0,0.0,0.0,0.0,0.0,0.0,0.0,0.0,0.0,0.0,0.0,0.0,0.0,0.0,0.0,0.0,0.0,0.0,0.0,0.0,0.0,0.0,0.0,0.0,0.0,0.0,0.0,0.0,0.0,0.0,0.0,0.0,-1.895,-2.0399,0.0,0.0,0.0,0.0,0.0,0.0,0.0,0.0,-2.4651,0.0,0.0,0.0,0.0,0.0,0.0,0.0,0.0,0.0,0.0,0.0,0.0,0.0,0.0,0.0,0.0,0.0,0.0,0.0,0.0,0.0,0.0,0.0,0.0,0.0,0.0,0.0,0.0,0.0,0.0,0.0,0.0,0.0,0.0,0.0,0.0,0.0,0.0,0.0,0.0,0.0,0.0,0.0,0.0,0.0,0.0,0.0,0.0,0.0,0.0,0.0,0.0,0.0,0.0,0.0,0.0,0.0,0.0,-3.7347,-3.9712,-3.9947,-3.9981,-3.97,-3.6598,-3.4099,0.0,0.0,0.0,0.0,0.0,0.0,0.0,0.0,0.0,0.0,0.0,0.0,0.0,0.0,0.0,0.0,0.0,0.0,0.0,0.0,0.0,0.0,0.0,0.0,0.0,0.0,0.0,0.0,0.0,0.0,0.0,0.0,0.0,0.0,0.0,0.0,0.0,0.0,0.0,0.0,0.0,0.0,0.0,0.0,0.0,0.0,0.0,0.0,0.0,0.0,0.0,0.0,0.0,0.0,0.0,0.0,0.0,0.0,0.0,0.0,0.0,0.0,0.0,0.0,0.0,0.0,0.0,0.0,0.0,0.0,0.0,0.0,0.0,0.0,0.0,0.0,0.0,0.0,0.0,0.0,0.0,0.0,0.0,0.0,0.0,0.0,0.0,0.0,0.0,0.0,0.0,0.0,0.0,0.0,0.0,0.0,0.0,0.0,0.0,0.0,0.0,0.0,0.0,0.0,0.0,0.0,0.0,0.0,-3.5305,-3.6926,-3.8287,-3.8316,-3.6981,-3.4029,-3.2137,0.0,0.0,0.0,0.0,0.0,0.0,0.0,0.0,0.0,0.0,0.0,0.0,0.0,0.0,0.0,0.0,0.0,0.0,0.0,0.0,0.0,0.0,0.0,0.0,0.0,0.0,0.0,0.0,0.0,0.0,0.0,0.0,0.0,0.0,0.0,0.0,0.0,0.0,0.0,0.0,0.0,0.0,0.0,0.0,0.0,0.0,0.0,0.0,-2.1155,0.0,0.0,0.0,0.0,0.0,0.0,0.0,0.0,0.0,0.0,0.0,0.0,0.0,0.0,0.0,0.0,0.0,0.0,0.0,0.0,0.0,0.0,0.0,0.0,0.0,0.0,0.0,0.0,0.0,0.0,0.0,0.0,0.0,0.0,0.0,0.0,0.0,0.0,0.0,0.0,0.0,0.0,0.0,0.0,0.0,0.0,0.0,0.0,0.0,0.0,0.0,0.0,0.0,0.0,0.0,0.0,0.0,0.0,0.0,-3.3561,-3.5231,-3.5446,-3.5433,-3.5205,-3.3427,-3.1077,0.0,0.0,0.0,0.0,0.0,0.0,0.0,0.0,0.0,0.0,0.0,0.0,0.0,0.0,0.0,0.0,0.0,0.0,0.0,0.0,0.0,0.0,0.0,0.0,0.0,0.0,0.0,0.0,0.0,0.0,0.0,0.0,0.0,0.0,0.0,0.0,0.0,0.0,0.0,0.0,0.0,0.0,0.0,0.0,0.0,0.0,0.0,0.0,0.0,0.0,0.0,0.0,0.0,0.0,0.0,0.0,0.0,0.0,0.0,0.0,0.0,0.0,0.0,0.0,0.0,0.0,0.0,0.0,0.0,0.0,0.0,0.0,0.0,0.0,0.0,0.0,0.0,0.0,0.0,0.0,0.0,0.0,0.0,0.0,0.0,0.0,0.0,0.0,0.0,0.0,0.0,0.0,0.0,0.0,0.0,0.0,0.0,0.0,0.0,0.0,0.0,0.0,0.0,0.0,0.0,0.0,0.0,0.0,-3.1813,-3.3523,-3.4469,-3.4045,-3.2099,-3.0436,-2.8844,0.0,0.0,0.0,0.0,0.0,0.0,0.0,0.0,0.0,0.0,0.0,0.0,0.0,0.0,0.0,0.0,0.0,0.0,0.0,0.0,0.0,0.0,0.0,0.0,0.0,0.0,0.0,0.0,0.0,0.0,0.0,0.0,0.0,0.0,0.0,0.0,0.0,0.0,0.0,0.0,0.0,0.0,0.0,0.0,0.0,0.0,0.0,0.0,0.0,0.0,0.0,0.0,0.0,0.0,0.0,0.0,0.0,0.0,0.0,0.0,0.0,0.0,0.0,0.0,0.0,0.0,0.0,0.0,0.0,0.0,0.0,0.0,0.0,0.0,0.0,0.0,0.0,0.0,0.0,0.0,0.0,0.0,0.0,0.0,0.0,0.0,0.0,0.0,0.0,0.0,0.0,0.0,0.0,0.0,0.0,0.0,0.0,0.0,0.0,0.0,0.0,0.0,0.0,0.0,0.0,0.0,0.0,0.0,0.0,-3.1093,-3.1967,-3.1207,-2.8774,-2.7483,-2.6573,0.0,0.0,0.0,0.0,0.0,0.0,0.0,0.0,0.0,0.0,0.0,0.0,0.0,0.0,0.0,0.0,0.0,0.0,0.0,0.0,0.0,0.0,0.0,0.0,0.0,0.0,0.0,0.0,0.0,0.0,0.0,0.0,0.0,0.0,0.0,0.0,0.0,0.0,0.0,0.0,0.0,0.0,0.0,0.0,0.0,0.0,0.0,0.0,0.0,0.0,0.0,0.0,0.0,0.0,0.0,0.0,0.0,0.0,0.0,0.0,0.0,0.0,0.0,0.0,0.0,0.0,0.0,0.0,0.0,0.0,0.0,0.0,0.0,0.0,0.0,0.0,0.0,0.0,0.0,0.0,0.0,0.0,0.0,0.0,0.0,0.0,0.0,0.0,0.0,0.0,0.0,0.0,0.0,0.0,0.0,0.0,0.0,0.0,0.0,0.0,0.0,0.0,0.0,0.0,0.0,0.0,0.0,0.0,0.0,-2.7694,-2.6372,-2.5618,-2.539,-2.5246,-2.445,0.0,0.0,0.0,0.0,0.0,0.0,0.0,0.0,0.0,0.0,0.0,0.0,0.0,0.0,0.0,0.0,0.0,0.0,0.0,0.0,0.0,0.0,0.0,0.0,0.0,0.0,0.0,0.0,0.0,0.0,0.0,0.0,0.0,0.0,0.0,0.0,0.0,0.0,0.0,0.0,0.0,0.0,0.0,0.0,0.0,0.0,0.0,0.0,0.0,0.0,0.0,0.0,0.0,0.0,0.0,0.0,0.0,0.0,0.0,0.0,0.0,0.0,0.0,0.0,0.0,0.0,0.0,0.0,0.0,0.0,0.0,0.0,0.0,0.0,0.0,0.0,0.0,0.0,0.0,0.0,0.0,0.0,0.0,0.0,0.0,0.0,0.0,0.0,0.0,0.0,0.0,0.0,0.0,0.0,0.0,0.0,0.0,0.0,0.0,0.0,0.0,0.0,0.0,0.0,0.0,0.0,0.0,0.0,0.0,-2.4259,-2.4685,-2.4996,-2.508,-2.4068,-2.3197,-2.255,0.0,0.0,0.0,0.0,0.0,0.0,0.0,0.0,0.0,0.0,0.0,0.0,0.0,0.0,0.0,0.0,0.0,0.0,0.0,0.0,0.0,0.0,0.0,0.0,0.0,0.0,0.0,0.0,0.0,0.0,0.0,0.0,0.0,0.0,0.0,0.0,0.0,0.0,0.0,0.0,0.0,0.0,0.0,0.0,0.0,0.0,0.0,0.0,0.0,0.0,0.0,0.0,0.0,0.0,0.0,0.0,0.0,0.0,0.0,0.0,0.0,0.0,0.0,0.0,0.0,0.0,0.0,0.0,0.0,0.0,0.0,0.0,0.0,0.0,0.0,0.0,0.0,0.0,0.0,0.0,0.0,0.0,0.0,0.0,0.0,0.0,0.0,0.0,0.0,0.0,0.0,0.0,0.0,0.0,0.0,0.0,0.0,0.0,0.0,0.0,0.0,0.0,0.0,0.0,0.0,0.0,0.0,0.0,-2.1612,-2.2724,-2.3384,-2.3476,-2.2392,-2.1789,0.0,0.0,0.0,0.0,0.0,0.0,0.0,0.0,0.0,0.0,0.0,0.0,0.0,0.0,0.0,0.0,0.0,0.0,0.0,0.0,0.0,0.0,0.0,0.0,0.0,0.0,0.0,0.0,0.0,0.0,0.0,0.0,0.0,0.0,0.0,0.0,0.0,0.0,0.0,0.0,0.0,0.0,0.0,0.0,0.0,0.0,0.0,0.0,0.0,0.0,0.0,0.0,0.0,0.0,0.0,0.0,0.0,0.0,0.0,0.0,0.0,0.0,0.0,0.0,0.0,0.0,0.0,0.0,0.0,0.0,0.0,0.0,0.0,0.0,0.0,0.0,0.0,0.0,0.0,0.0,0.0,0.0,0.0,0.0,0.0,0.0,0.0,0.0,0.0,0.0,0.0,0.0,0.0,0.0,0.0,0.0,0.0,0.0,0.0,0.0,0.0,0.0,0.0,0.0,0.0,0.0,0.0,0.0,-1.988,-1.9869,-1.9954,-2.0121,-2.0076,-2.013,-2.0099,0.0,0.0,0.0,0.0,0.0,0.0,0.0,0.0,0.0,0.0,0.0,0.0,0.0,0.0,0.0,0.0,0.0,0.0,0.0,0.0,0.0,0.0,0.0,0.0,0.0,0.0,0.0,0.0,0.0,0.0,0.0,0.0,0.0,0.0,0.0,0.0,0.0,0.0,0.0,0.0,0.0,0.0,0.0,0.0,0.0,0.0,0.0,0.0,0.0,0.0,0.0,0.0,0.0,0.0,0.0,0.0,0.0,0.0,0.0,0.0,0.0,0.0,0.0,0.0,0.0,0.0,0.0,0.0,0.0,0.0,0.0,0.0,0.0,0.0,0.0,0.0,0.0,0.0,0.0,0.0,0.0,0.0,0.0,0.0,0.0,0.0,0.0,0.0,0.0,0.0,0.0,0.0,0.0,0.0,0.0,0.0,0.0,0.0,0.0,0.0,0.0,0.0,0.0,0.0,0.0,0.0,0.0,0.0,0.0,-1.9819,0.0,-1.9856,0.0,-1.9959,-2.0044,0.0,0.0,0.0,0.0,0.0,0.0,0.0,0.0,0.0,0.0,0.0,0.0,0.0,0.0,0.0,0.0,0.0,0.0,0.0,0.0,0.0,0.0,0.0,0.0,0.0,0.0,0.0,0.0,0.0,0.0,0.0,0.0,0.0,0.0,0.0,0.0,0.0,0.0,0.0,0.0,0.0,0.0,0.0,0.0,0.0,0.0,0.0,0.0,0.0,0.0,0.0,0.0,0.0,0.0,0.0,0.0,0.0,0.0,0.0,0.0,0.0,0.0,0.0,0.0,0.0,0.0,0.0,0.0,0.0,0.0,0.0,0.0,0.0,0.0,0.0,0.0,0.0,0.0,0.0,0.0,0.0,0.0,0.0,0.0,0.0,0.0,0.0,0.0,0.0,0.0,0.0,0.0,0.0,0.0,0.0,0.0,0.0,0.0,0.0,0.0,0.0,0.0,0.0,0.0,0.0,0.0,0.0,0.0,0.0,-1.9756,-1.9826,-1.981,-1.9823,-1.9924,-1.9936,0.0,0.0,0.0,0.0,0.0,0.0,0.0,0.0,0.0,0.0,0.0,0.0,0.0,0.0,0.0,0.0,0.0,0.0,0.0,0.0,0.0,0.0,0.0,0.0,0.0,0.0,0.0,0.0,0.0,0.0,0.0,0.0,0.0,0.0,0.0,0.0,0.0,0.0,0.0,0.0,0.0,0.0,0.0,0.0,0.0,0.0,0.0,0.0,0.0,0.0,0.0,0.0,0.0,0.0,0.0,0.0,0.0,0.0,0.0,0.0,0.0,0.0,0.0,0.0,0.0,0.0,0.0,0.0,0.0,0.0,0.0,0.0,0.0,0.0,0.0,0.0,0.0,0.0,0.0,0.0,0.0,0.0,0.0,0.0,0.0,0.0,0.0,0.0,0.0,0.0,0.0,0.0,0.0,0.0,0.0,0.0,0.0,0.0,0.0,0.0,0.0,0.0,0.0,0.0,0.0,0.0,0.0,0.0,0.0,0.0,-1.9756,-1.9826,-1.9799,-1.9821,-1.9799,0.0,0.0,0.0,0.0,0.0,0.0,0.0,0.0,0.0,0.0,0.0,0.0,0.0,0.0,0.0,0.0,0.0,0.0,0.0,0.0,0.0,0.0,0.0,0.0,0.0,0.0,0.0,0.0,0.0,0.0,0.0,0.0,0.0,0.0,0.0,0.0,0.0,0.0,0.0,0.0,0.0,0.0,0.0,0.0,0.0,0.0,0.0,0.0,0.0,0.0,0.0,0.0,0.0,0.0,0.0,0.0,0.0,0.0,0.0,0.0,0.0,0.0,0.0,0.0,0.0,0.0,0.0,0.0,0.0,0.0,0.0,0.0,0.0,0.0,0.0,0.0,0.0,0.0,0.0,0.0,0.0,0.0,0.0,0.0,0.0,0.0,0.0,0.0,0.0,0.0,0.0,0.0,0.0,0.0,0.0,0.0,0.0,0.0,0.0,0.0,0.0,0.0,0.0,0.0,0.0,0.0,0.0,0.0,0.0,0.0,-1.9623,0.0,-1.9681,-1.9788,-1.9831,-1.9805,0.0,0.0,0.0,0.0,0.0,0.0,0.0,0.0,0.0,0.0,0.0,0.0,0.0,0.0,0.0,0.0,0.0,0.0,0.0,0.0,0.0,0.0,0.0,0.0,0.0,0.0,0.0,0.0,0.0,0.0,0.0,0.0,0.0,0.0,0.0,0.0,0.0,0.0,0.0,0.0,0.0,0.0,0.0,0.0,0.0,0.0,0.0,0.0,0.0,0.0,0.0,0.0,0.0,0.0,0.0,0.0,0.0,0.0,0.0,0.0,0.0,0.0,0.0,0.0,0.0,0.0,0.0,0.0,0.0,0.0,0.0,0.0,0.0,0.0,0.0,0.0,0.0,0.0,0.0,0.0,0.0,0.0,0.0,0.0,0.0,0.0,0.0,0.0,0.0,0.0,0.0,0.0,0.0,0.0,0.0,0.0,0.0,0.0,0.0,0.0,0.0,0.0,0.0,0.0,0.0,0.0,0.0,0.0,0.0,0.0,0.0,-1.956,-1.9689,-1.9741,0.0,0.0,0.0,0.0,0.0,0.0,0.0,0.0,0.0,0.0,0.0,0.0,0.0,0.0,0.0,0.0,0.0,0.0,0.0,0.0,0.0,0.0,0.0,0.0,0.0,0.0,0.0,0.0,0.0,0.0,0.0,0.0,0.0,0.0,0.0,0.0,0.0,0.0,0.0,0.0,0.0,0.0,0.0,0.0,0.0,0.0,0.0,0.0,0.0,0.0,0.0,0.0,0.0,0.0,0.0,0.0,0.0,0.0,0.0,0.0,0.0,0.0,0.0,0.0,0.0,0.0,0.0,0.0,0.0,0.0,0.0,0.0,0.0,0.0,0.0,0.0,0.0,0.0,0.0,0.0,0.0,0.0,0.0,0.0,0.0,0.0,0.0,0.0,0.0,0.0,0.0,0.0,0.0,0.0,0.0,0.0,0.0,0.0,0.0,0.0,0.0,0.0,0.0,0.0,0.0,0.0,0.0,0.0,0.0,0.0,0.0,-1.9411,-1.9448,-1.9534,0.0,-1.9611,0.0,0.0,0.0,0.0,0.0,0.0,0.0,0.0,0.0,0.0,0.0,0.0,0.0,0.0,0.0,0.0,0.0,0.0,0.0,0.0,0.0,0.0,0.0,0.0,0.0,0.0,0.0,0.0,0.0,0.0,0.0,0.0,0.0,0.0,0.0,0.0,0.0,0.0,0.0,0.0,0.0,0.0,0.0,0.0,0.0,0.0,0.0,0.0,0.0,0.0,0.0,0.0,0.0,0.0,0.0,0.0,0.0,0.0,0.0,0.0,0.0,0.0,0.0,0.0,0.0,0.0,0.0,0.0,0.0,0.0,0.0,0.0,0.0,0.0,0.0,0.0,0.0,0.0,0.0,0.0,0.0,0.0,0.0,0.0,0.0,0.0,0.0,0.0,0.0,0.0,0.0,0.0,0.0,0.0,0.0,0.0,0.0,0.0,0.0,0.0,0.0,0.0,0.0,0.0,0.0,0.0,0.0,0.0,0.0,0.0,0.0,0.0,-1.9418,-1.9505,-1.9422,0.0,0.0,0.0,0.0,0.0,0.0,0.0,0.0,0.0,0.0,0.0,0.0,0.0,0.0,0.0,0.0,0.0,0.0,0.0,0.0,0.0,0.0,0.0,0.0,0.0,0.0,0.0,0.0,0.0,0.0,0.0,0.0,0.0,0.0,0.0,0.0,0.0,0.0,0.0,0.0,0.0,0.0,0.0,0.0,0.0,0.0,0.0,0.0,0.0,0.0,0.0,0.0,0.0,0.0,0.0,0.0,0.0,0.0,0.0,0.0,0.0,0.0,0.0,0.0,0.0,0.0,0.0,0.0,0.0,0.0,0.0,0.0,0.0,0.0,0.0,0.0,0.0,0.0,0.0,0.0,0.0,0.0,0.0,0.0,0.0,0.0,0.0,0.0,0.0,0.0,0.0,0.0,0.0,0.0,0.0,0.0,0.0,0.0,0.0,0.0,0.0,0.0,0.0,0.0,0.0,0.0,0.0,0.0,0.0,0.0,-1.9148,-1.916,-1.9289,-1.9345,-1.9303,0.0,0.0,0.0,0.0,0.0,0.0,0.0,0.0,0.0,0.0,0.0,0.0,0.0,0.0,0.0,0.0,0.0,0.0,0.0,0.0,0.0,0.0,0.0,0.0,0.0,0.0,0.0,0.0,0.0,0.0,0.0,0.0,0.0,0.0,0.0,0.0,0.0,0.0,0.0,0.0,0.0,0.0,0.0,0.0,0.0,0.0,0.0,0.0,0.0,0.0,0.0,0.0,0.0,0.0,0.0,0.0,0.0,0.0,0.0,0.0,0.0,0.0,0.0,0.0,0.0,0.0,0.0,0.0,0.0,0.0,0.0,0.0,0.0,0.0,0.0,0.0,0.0,0.0,0.0,0.0,0.0,0.0,0.0,0.0,0.0,0.0,0.0,0.0,0.0,0.0,0.0,0.0,0.0,0.0,0.0,0.0,0.0,0.0,0.0,0.0,0.0,0.0,0.0,0.0,0.0,0.0,0.0,0.0,0.0,0.0,0.0,0.0,0.0,0.0,-1.8878,0.0,0.0,0.0,0.0,0.0,0.0,0.0,0.0,0.0,0.0,0.0,0.0,0.0,0.0,0.0,0.0,0.0,0.0,0.0,0.0,0.0,0.0,0.0,0.0,0.0,0.0,0.0,0.0,0.0,0.0,0.0,0.0,0.0,0.0,0.0,0.0,0.0,0.0,0.0,0.0,0.0,0.0,0.0,0.0,0.0,0.0,0.0,0.0,0.0,0.0,0.0,0.0,0.0,0.0,0.0,0.0,0.0,0.0,0.0,0.0,0.0,0.0,0.0,0.0,0.0,0.0,0.0,0.0,0.0,0.0,0.0,0.0,0.0,0.0,0.0,0.0,0.0,0.0,0.0,0.0,0.0,0.0,0.0,0.0,0.0,0.0,0.0,0.0,0.0,0.0,0.0,0.0,0.0,0.0,0.0,0.0,0.0,0.0,0.0,0.0,0.0,0.0,0.0,0.0,0.0,0.0,0.0,0.0,0.0,0.0,0.0,0.0,0.0,0.0,0.0,0.0,0.0,0.0,0.0,0.0,0.0,0.0,0.0,0.0,0.0,0.0,0.0,0.0,0.0,0.0,0.0,0.0,0.0,0.0,0.0,0.0,0.0,0.0,0.0,0.0,0.0,0.0,0.0,0.0,0.0,0.0,0.0,0.0,0.0,0.0,0.0,0.0,0.0,0.0,0.0,0.0,0.0,0.0,0.0,0.0,0.0,0.0,0.0,0.0,0.0,0.0,0.0,0.0,0.0,0.0,0.0,0.0,0.0,0.0,0.0,0.0,0.0,0.0,0.0,0.0,0.0,0.0,0.0,0.0,0.0,0.0,0.0,0.0,0.0,0.0,0.0,0.0,0.0,0.0,0.0,0.0,0.0,0.0,0.0,0.0,0.0,0.0,0.0,0.0,0.0,0.0,0.0,0.0,0.0,0.0,0.0,0.0,0.0,0.0,0.0,0.0,0.0,0.0,0.0,0.0,0.0,0.0,0.0,0.0,0.0,0.0,0.0,0.0,0.0,0.0,0.0,0.0,0.0,0.0,0.0,0.0,0.0,0.0,0.0,0.0,0.0,0.0,0.0,0.0,0.0,0.0,0.0,0.0,0.0,0.0,0.0,0.0,0.0,0.0,0.0,0.0,0.0,0.0,0.0,0.0,0.0,0.0,0.0,0.0,0.0,0.0,0.0,0.0,0.0,0.0,0.0,0.0,0.0,0.0,0.0,0.0,0.0,0.0,0.0,0.0,0.0,0.0,0.0,0.0,0.0,0.0,0.0,0.0,0.0,0.0,0.0,0.0,0.0,0.0,0.0,0.0,0.0,0.0,0.0,0.0,0.0,0.0,0.0,0.0,0.0,0.0,0.0,0.0,0.0,0.0,0.0,0.0,0.0,0.0,0.0,0.0,0.0,0.0,0.0,0.0,0.0,0.0,0.0,0.0,0.0,0.0,0.0,0.0,0.0,0.0,0.0,0.0,0.0,0.0,0.0,0.0,0.0,0.0,0.0,0.0,0.0,0.0,0.0,0.0,0.0,0.0,0.0,0.0,0.0,0.0,0.0,0.0,0.0,0.0,0.0,0.0,0.0,0.0,0.0,0.0,0.0,0.0,0.0,0.0,0.0,0.0,0.0,0.0,0.0,0.0,0.0,0.0,0.0,0.0,0.0,0.0,0.0,0.0,0.0,0.0,0.0,0.0,0.0,0.0,0.0,0.0,0.0,0.0,0.0,0.0,0.0,0.0,0.0,0.0,0.0,0.0,0.0,0.0,0.0,0.0,0.0,0.0,0.0,0.0,0.0,0.0,0.0,0.0,0.0,0.0,0.0,0.0,0.0,0.0,0.0,0.0,0.0,0.0,0.0,0.0,0.0,0.0,0.0,0.0,0.0,0.0,0.0,0.0,0.0,0.0,0.0,0.0,0.0,0.0,0.0,0.0,0.0,0.0,0.0,0.0,0.0,0.0,0.0,0.0,0.0,0.0,0.0,0.0,0.0,0.0,0.0,0.0,0.0,0.0,0.0,0.0,0.0,0.0,0.0,0.0,0.0,0.0,0.0,0.0,0.0,0.0,0.0,0.0,0.0,0.0,0.0,0.0,0.0,0.0,0.0,0.0,0.0,0.0,0.0,0.0,0.0,0.0,0.0,0.0,0.0,0.0,0.0,0.0,0.0,0.0,0.0,0.0,0.0,0.0,0.0,0.0,0.0,0.0,0.0,0.0,0.0,0.0,0.0,0.0,0.0,0.0,0.0,0.0,0.0,0.0,0.0,0.0,0.0,0.0,0.0,0.0,0.0,0.0,0.0,0.0,0.0,0.0,0.0,0.0,0.0,0.0,0.0,0.0,0.0,0.0,0.0,0.0,0.0,0.0,0.0,0.0,0.0,0.0,0.0,0.0,0.0,0.0,0.0,0.0,0.0,0.0,0.0,0.0,0.0,0.0,0.0,0.0,0.0,0.0,0.0,0.0,0.0,0.0,0.0,0.0,0.0,0.0,0.0,0.0,0.0,0.0,0.0,0.0,0.0,0.0,0.0,0.0,0.0,0.0,0.0,0.0,0.0,0.0,0.0,0.0,0.0,0.0,0.0,0.0,0.0,0.0,0.0,0.0,0.0,0.0,0.0,0.0,0.0,0.0,0.0,0.0,0.0,0.0,0.0,0.0,0.0,0.0,0.0,0.0,0.0,0.0,0.0,0.0,0.0,0.0,0.0,0.0,0.0,0.0,0.0,0.0,0.0,0.0,0.0,0.0,0.0,0.0,0.0,0.0,0.0,0.0,0.0,0.0,0.0,0.0,0.0,0.0,0.0,0.0,0.0,0.0,0.0,0.0,0.0,0.0,0.0,0.0,0.0,0.0,0.0,0.0,0.0,0.0,0.0,0.0,0.0,0.0,0.0,0.0,0.0,0.0,0.0,0.0,0.0,0.0,0.0,0.0,0.0,0.0,0.0,0.0,0.0,0.0,0.0,0.0,0.0,0.0,0.0,0.0,0.0,0.0,0.0,0.0,0.0,0.0,0.0,0.0,0.0,0.0,0.0,0.0,0.0,0.0,0.0,0.0,0.0,0.0,0.0,0.0,0.0,0.0,0.0,0.0,0.0,0.0,0.0,0.0,0.0,0.0,0.0,0.0,0.0,0.0,0.0,0.0,0.0,0.0,0.0,0.0,0.0,0.0,0.0,0.0,0.0,0.0,0.0,0.0,0.0,0.0,0.0,0.0,0.0,0.0,0.0,0.0,0.0,0.0,0.0,0.0,0.0,0.0,0.0,0.0,0.0,0.0,0.0,0.0,0.0,0.0,0.0,0.0,0.0,0.0,0.0,0.0,0.0,0.0,0.0,0.0,0.0,0.0,0.0,0.0,0.0,0.0,0.0,0.0,0.0,0.0,0.0,0.0,0.0,0.0,0.0,0.0,0.0,0.0,0.0,0.0,0.0,0.0,0.0,0.0,0.0,0.0,0.0,0.0,0.0,0.0,0.0,0.0,0.0,0.0,0.0,0.0,0.0,0.0,0.0,0.0,0.0,0.0,0.0,0.0,0.0,0.0,0.0,0.0,0.0,0.0,0.0,0.0,0.0,0.0,0.0,0.0,0.0,0.0,0.0,0.0,0.0,0.0,0.0,0.0,0.0,0.0,0.0,0.0,0.0,0.0,0.0,0.0,0.0,0.0,0.0,0.0,0.0,0.0,0.0,0.0,0.0,0.0,0.0,0.0,0.0,0.0,0.0,0.0,0.0,0.0,0.0,0.0,0.0,0.0,0.0,0.0,0.0,0.0,0.0,0.0,0.0,0.0,0.0,0.0,0.0,0.0,0.0,0.0,0.0,0.0,0.0,0.0,0.0,0.0,0.0,0.0,0.0,0.0,0.0,0.0,0.0,0.0,0.0,0.0,0.0,0.0,0.0,0.0,0.0,0.0,0.0,0.0,0.0,0.0,0.0,0.0,0.0,0.0,0.0,0.0,0.0,0.0,0.0,0.0,0.0,0.0,0.0,0.0,0.0,0.0,0.0,0.0,0.0,0.0,0.0,0.0,0.0,0.0,0.0,0.0,0.0,0.0,0.0,0.0,0.0,0.0,0.0,0.0,0.0,0.0,0.0,0.0,0.0,0.0,0.0,0.0,0.0,0.0,0.0,0.0,0.0,0.0,0.0,0.0,0.0,0.0,0.0,0.0,0.0,0.0,0.0,0.0,0.0,0.0,0.0,0.0,0.0,0.0,0.0,0.0,0.0,0.0,0.0,0.0,0.0,0.0,0.0,0.0,0.0,0.0,0.0,0.0,0.0,0.0,0.0,0.0,0.0,0.0,0.0,0.0,0.0,0.0,0.0,0.0,0.0,0.0,0.0,0.0,0.0,0.0,0.0,0.0,0.0,0.0]}]]]